<?xml version="1.0" encoding="UTF-8" standalone="no" ?>
<gpx xmlns="http://www.topografix.com/GPX/1/1" xmlns:xsi="http://www.w3.org/2001/XMLSchema-instance" xsi:schemaLocation="http://www.topografix.com/GPX/1/1 http://www.topografix.com/GPX/1/1/gpx.xsd" version="1.1" creator="VisuGPX - https://www.visugpx.com">
  <metadata>
    <name>Fargues Saint Hilaire sud</name>
    <desc><![CDATA[Randonnée VTT]]></desc>
  </metadata>
  <trk>
    <name><![CDATA[Fargues sud]]></name>
    <trkseg>
      <trkpt lat="44.82044" lon="-0.4394">
        <ele>82</ele>
        <time>2012-10-14T12:40:52Z</time>
      </trkpt>
      <trkpt lat="44.82045" lon="-0.43939">
        <ele>82</ele>
        <time>2012-10-14T12:40:53Z</time>
      </trkpt>
      <trkpt lat="44.82046" lon="-0.43939">
        <ele>82</ele>
        <time>2012-10-14T12:40:56Z</time>
      </trkpt>
      <trkpt lat="44.82047" lon="-0.43938">
        <ele>82</ele>
        <time>2012-10-14T12:40:57Z</time>
      </trkpt>
      <trkpt lat="44.82047" lon="-0.43938">
        <ele>82</ele>
        <time>2012-10-14T12:40:58Z</time>
      </trkpt>
      <trkpt lat="44.82047" lon="-0.43939">
        <ele>82</ele>
        <time>2012-10-14T12:41:00Z</time>
      </trkpt>
      <trkpt lat="44.82047" lon="-0.43938">
        <ele>82</ele>
        <time>2012-10-14T12:41:02Z</time>
      </trkpt>
      <trkpt lat="44.82048" lon="-0.43938">
        <ele>82</ele>
        <time>2012-10-14T12:41:04Z</time>
      </trkpt>
      <trkpt lat="44.82049" lon="-0.43937">
        <ele>82</ele>
        <time>2012-10-14T12:41:06Z</time>
      </trkpt>
      <trkpt lat="44.8205" lon="-0.43937">
        <ele>82</ele>
        <time>2012-10-14T12:41:08Z</time>
      </trkpt>
      <trkpt lat="44.82051" lon="-0.43937">
        <ele>82</ele>
        <time>2012-10-14T12:41:10Z</time>
      </trkpt>
      <trkpt lat="44.82051" lon="-0.43936">
        <ele>82</ele>
        <time>2012-10-14T12:41:12Z</time>
      </trkpt>
      <trkpt lat="44.82051" lon="-0.43935">
        <ele>82</ele>
        <time>2012-10-14T12:41:14Z</time>
      </trkpt>
      <trkpt lat="44.82051" lon="-0.43935">
        <ele>82</ele>
        <time>2012-10-14T12:41:16Z</time>
      </trkpt>
      <trkpt lat="44.82051" lon="-0.43934">
        <ele>82</ele>
        <time>2012-10-14T12:41:18Z</time>
      </trkpt>
      <trkpt lat="44.82051" lon="-0.43933">
        <ele>82</ele>
        <time>2012-10-14T12:41:21Z</time>
      </trkpt>
      <trkpt lat="44.82051" lon="-0.43932">
        <ele>82</ele>
        <time>2012-10-14T12:41:23Z</time>
      </trkpt>
      <trkpt lat="44.82051" lon="-0.43932">
        <ele>82</ele>
        <time>2012-10-14T12:41:27Z</time>
      </trkpt>
      <trkpt lat="44.82051" lon="-0.43931">
        <ele>82</ele>
        <time>2012-10-14T12:41:30Z</time>
      </trkpt>
      <trkpt lat="44.8205" lon="-0.4393">
        <ele>82</ele>
        <time>2012-10-14T12:41:34Z</time>
      </trkpt>
      <trkpt lat="44.82051" lon="-0.43932">
        <ele>82</ele>
        <time>2012-10-14T12:41:40Z</time>
      </trkpt>
      <trkpt lat="44.82051" lon="-0.43933">
        <ele>82</ele>
        <time>2012-10-14T12:41:47Z</time>
      </trkpt>
      <trkpt lat="44.82051" lon="-0.43934">
        <ele>82</ele>
        <time>2012-10-14T12:41:55Z</time>
      </trkpt>
      <trkpt lat="44.82052" lon="-0.43936">
        <ele>82</ele>
        <time>2012-10-14T12:42:05Z</time>
      </trkpt>
      <trkpt lat="44.82051" lon="-0.43938">
        <ele>82</ele>
        <time>2012-10-14T12:42:20Z</time>
      </trkpt>
      <trkpt lat="44.82052" lon="-0.43937">
        <ele>82</ele>
        <time>2012-10-14T12:42:36Z</time>
      </trkpt>
      <trkpt lat="44.82051" lon="-0.43937">
        <ele>82</ele>
        <time>2012-10-14T12:42:51Z</time>
      </trkpt>
      <trkpt lat="44.82052" lon="-0.4394">
        <ele>82</ele>
        <time>2012-10-14T12:43:06Z</time>
      </trkpt>
      <trkpt lat="44.82049" lon="-0.43946">
        <ele>82</ele>
        <time>2012-10-14T12:43:10Z</time>
      </trkpt>
      <trkpt lat="44.82052" lon="-0.43958">
        <ele>83</ele>
        <time>2012-10-14T12:43:17Z</time>
      </trkpt>
      <trkpt lat="44.82066" lon="-0.43963">
        <ele>82</ele>
        <time>2012-10-14T12:43:27Z</time>
      </trkpt>
      <trkpt lat="44.82067" lon="-0.43969">
        <ele>82</ele>
        <time>2012-10-14T12:43:29Z</time>
      </trkpt>
      <trkpt lat="44.82071" lon="-0.44005">
        <ele>83</ele>
        <time>2012-10-14T12:43:40Z</time>
      </trkpt>
      <trkpt lat="44.82083" lon="-0.44046">
        <ele>83</ele>
        <time>2012-10-14T12:43:50Z</time>
      </trkpt>
      <trkpt lat="44.82096" lon="-0.44107">
        <ele>83</ele>
        <time>2012-10-14T12:44:03Z</time>
      </trkpt>
      <trkpt lat="44.82105" lon="-0.44144">
        <ele>83</ele>
        <time>2012-10-14T12:44:12Z</time>
      </trkpt>
      <trkpt lat="44.82112" lon="-0.44184">
        <ele>83</ele>
        <time>2012-10-14T12:44:21Z</time>
      </trkpt>
      <trkpt lat="44.82125" lon="-0.44251">
        <ele>84</ele>
        <time>2012-10-14T12:44:35Z</time>
      </trkpt>
      <trkpt lat="44.82136" lon="-0.44311">
        <ele>85</ele>
        <time>2012-10-14T12:44:48Z</time>
      </trkpt>
      <trkpt lat="44.82142" lon="-0.44348">
        <ele>86</ele>
        <time>2012-10-14T12:44:57Z</time>
      </trkpt>
      <trkpt lat="44.82148" lon="-0.44385">
        <ele>86</ele>
        <time>2012-10-14T12:45:07Z</time>
      </trkpt>
      <trkpt lat="44.82141" lon="-0.44396">
        <ele>86</ele>
        <time>2012-10-14T12:45:11Z</time>
      </trkpt>
      <trkpt lat="44.82108" lon="-0.44409">
        <ele>85</ele>
        <time>2012-10-14T12:45:22Z</time>
      </trkpt>
      <trkpt lat="44.82069" lon="-0.44428">
        <ele>85</ele>
        <time>2012-10-14T12:45:35Z</time>
      </trkpt>
      <trkpt lat="44.82032" lon="-0.44455">
        <ele>86</ele>
        <time>2012-10-14T12:45:48Z</time>
      </trkpt>
      <trkpt lat="44.82003" lon="-0.44485">
        <ele>86</ele>
        <time>2012-10-14T12:45:59Z</time>
      </trkpt>
      <trkpt lat="44.81965" lon="-0.44525">
        <ele>86</ele>
        <time>2012-10-14T12:46:12Z</time>
      </trkpt>
      <trkpt lat="44.81932" lon="-0.44562">
        <ele>85</ele>
        <time>2012-10-14T12:46:23Z</time>
      </trkpt>
      <trkpt lat="44.81911" lon="-0.44586">
        <ele>85</ele>
        <time>2012-10-14T12:46:30Z</time>
      </trkpt>
      <trkpt lat="44.81896" lon="-0.44603">
        <ele>85</ele>
        <time>2012-10-14T12:46:34Z</time>
      </trkpt>
      <trkpt lat="44.81893" lon="-0.44607">
        <ele>85</ele>
        <time>2012-10-14T12:46:35Z</time>
      </trkpt>
      <trkpt lat="44.81887" lon="-0.44615">
        <ele>85</ele>
        <time>2012-10-14T12:46:37Z</time>
      </trkpt>
      <trkpt lat="44.81884" lon="-0.4462">
        <ele>85</ele>
        <time>2012-10-14T12:46:38Z</time>
      </trkpt>
      <trkpt lat="44.81882" lon="-0.44625">
        <ele>85</ele>
        <time>2012-10-14T12:46:39Z</time>
      </trkpt>
      <trkpt lat="44.81851" lon="-0.44688">
        <ele>85</ele>
        <time>2012-10-14T12:46:51Z</time>
      </trkpt>
      <trkpt lat="44.81831" lon="-0.4473">
        <ele>85</ele>
        <time>2012-10-14T12:46:59Z</time>
      </trkpt>
      <trkpt lat="44.81827" lon="-0.44734">
        <ele>85</ele>
        <time>2012-10-14T12:47:00Z</time>
      </trkpt>
      <trkpt lat="44.81823" lon="-0.44737">
        <ele>84</ele>
        <time>2012-10-14T12:47:01Z</time>
      </trkpt>
      <trkpt lat="44.81819" lon="-0.44739">
        <ele>84</ele>
        <time>2012-10-14T12:47:02Z</time>
      </trkpt>
      <trkpt lat="44.81814" lon="-0.44741">
        <ele>84</ele>
        <time>2012-10-14T12:47:03Z</time>
      </trkpt>
      <trkpt lat="44.81783" lon="-0.44753">
        <ele>83</ele>
        <time>2012-10-14T12:47:09Z</time>
      </trkpt>
      <trkpt lat="44.81753" lon="-0.44759">
        <ele>82</ele>
        <time>2012-10-14T12:47:15Z</time>
      </trkpt>
      <trkpt lat="44.81723" lon="-0.44766">
        <ele>81</ele>
        <time>2012-10-14T12:47:21Z</time>
      </trkpt>
      <trkpt lat="44.81708" lon="-0.4477">
        <ele>81</ele>
        <time>2012-10-14T12:47:24Z</time>
      </trkpt>
      <trkpt lat="44.81698" lon="-0.44772">
        <ele>81</ele>
        <time>2012-10-14T12:47:26Z</time>
      </trkpt>
      <trkpt lat="44.81692" lon="-0.44774">
        <ele>81</ele>
        <time>2012-10-14T12:47:27Z</time>
      </trkpt>
      <trkpt lat="44.81682" lon="-0.44779">
        <ele>80</ele>
        <time>2012-10-14T12:47:29Z</time>
      </trkpt>
      <trkpt lat="44.81665" lon="-0.44785">
        <ele>80</ele>
        <time>2012-10-14T12:47:32Z</time>
      </trkpt>
      <trkpt lat="44.81636" lon="-0.44789">
        <ele>79</ele>
        <time>2012-10-14T12:47:37Z</time>
      </trkpt>
      <trkpt lat="44.81613" lon="-0.44788">
        <ele>79</ele>
        <time>2012-10-14T12:47:41Z</time>
      </trkpt>
      <trkpt lat="44.81566" lon="-0.44789">
        <ele>79</ele>
        <time>2012-10-14T12:47:50Z</time>
      </trkpt>
      <trkpt lat="44.81533" lon="-0.44791">
        <ele>80</ele>
        <time>2012-10-14T12:47:59Z</time>
      </trkpt>
      <trkpt lat="44.81501" lon="-0.44788">
        <ele>80</ele>
        <time>2012-10-14T12:48:07Z</time>
      </trkpt>
      <trkpt lat="44.81484" lon="-0.44786">
        <ele>80</ele>
        <time>2012-10-14T12:48:11Z</time>
      </trkpt>
      <trkpt lat="44.81472" lon="-0.44787">
        <ele>80</ele>
        <time>2012-10-14T12:48:14Z</time>
      </trkpt>
      <trkpt lat="44.81434" lon="-0.44777">
        <ele>81</ele>
        <time>2012-10-14T12:48:26Z</time>
      </trkpt>
      <trkpt lat="44.81432" lon="-0.44777">
        <ele>81</ele>
        <time>2012-10-14T12:48:27Z</time>
      </trkpt>
      <trkpt lat="44.81431" lon="-0.44778">
        <ele>81</ele>
        <time>2012-10-14T12:48:28Z</time>
      </trkpt>
      <trkpt lat="44.81429" lon="-0.44777">
        <ele>81</ele>
        <time>2012-10-14T12:48:36Z</time>
      </trkpt>
      <trkpt lat="44.81429" lon="-0.44778">
        <ele>81</ele>
        <time>2012-10-14T12:48:38Z</time>
      </trkpt>
      <trkpt lat="44.81423" lon="-0.44803">
        <ele>81</ele>
        <time>2012-10-14T12:48:48Z</time>
      </trkpt>
      <trkpt lat="44.81412" lon="-0.44843">
        <ele>81</ele>
        <time>2012-10-14T12:48:57Z</time>
      </trkpt>
      <trkpt lat="44.81397" lon="-0.44893">
        <ele>80</ele>
        <time>2012-10-14T12:49:07Z</time>
      </trkpt>
      <trkpt lat="44.81382" lon="-0.44947">
        <ele>79</ele>
        <time>2012-10-14T12:49:18Z</time>
      </trkpt>
      <trkpt lat="44.81372" lon="-0.44983">
        <ele>78</ele>
        <time>2012-10-14T12:49:26Z</time>
      </trkpt>
      <trkpt lat="44.81361" lon="-0.45018">
        <ele>77</ele>
        <time>2012-10-14T12:49:34Z</time>
      </trkpt>
      <trkpt lat="44.81351" lon="-0.45056">
        <ele>77</ele>
        <time>2012-10-14T12:49:44Z</time>
      </trkpt>
      <trkpt lat="44.81348" lon="-0.45069">
        <ele>78</ele>
        <time>2012-10-14T12:49:48Z</time>
      </trkpt>
      <trkpt lat="44.81342" lon="-0.45089">
        <ele>78</ele>
        <time>2012-10-14T12:49:57Z</time>
      </trkpt>
      <trkpt lat="44.81339" lon="-0.45091">
        <ele>78</ele>
        <time>2012-10-14T12:49:59Z</time>
      </trkpt>
      <trkpt lat="44.81313" lon="-0.45096">
        <ele>76</ele>
        <time>2012-10-14T12:50:10Z</time>
      </trkpt>
      <trkpt lat="44.81299" lon="-0.45115">
        <ele>75</ele>
        <time>2012-10-14T12:50:17Z</time>
      </trkpt>
      <trkpt lat="44.81299" lon="-0.45119">
        <ele>75</ele>
        <time>2012-10-14T12:50:19Z</time>
      </trkpt>
      <trkpt lat="44.81291" lon="-0.45145">
        <ele>74</ele>
        <time>2012-10-14T12:50:29Z</time>
      </trkpt>
      <trkpt lat="44.81286" lon="-0.45179">
        <ele>72</ele>
        <time>2012-10-14T12:50:36Z</time>
      </trkpt>
      <trkpt lat="44.81289" lon="-0.45226">
        <ele>71</ele>
        <time>2012-10-14T12:50:46Z</time>
      </trkpt>
      <trkpt lat="44.81282" lon="-0.45253">
        <ele>69</ele>
        <time>2012-10-14T12:50:53Z</time>
      </trkpt>
      <trkpt lat="44.81279" lon="-0.4526">
        <ele>69</ele>
        <time>2012-10-14T12:51:00Z</time>
      </trkpt>
      <trkpt lat="44.81279" lon="-0.4526">
        <ele>69</ele>
        <time>2012-10-14T12:51:14Z</time>
      </trkpt>
      <trkpt lat="44.81279" lon="-0.4526">
        <ele>69</ele>
        <time>2012-10-14T12:51:15Z</time>
      </trkpt>
      <trkpt lat="44.81257" lon="-0.45261">
        <ele>66</ele>
        <time>2012-10-14T12:51:22Z</time>
      </trkpt>
      <trkpt lat="44.81234" lon="-0.45275">
        <ele>62</ele>
        <time>2012-10-14T12:51:33Z</time>
      </trkpt>
      <trkpt lat="44.81217" lon="-0.4528">
        <ele>59</ele>
        <time>2012-10-14T12:51:40Z</time>
      </trkpt>
      <trkpt lat="44.81204" lon="-0.45287">
        <ele>56</ele>
        <time>2012-10-14T12:51:45Z</time>
      </trkpt>
      <trkpt lat="44.81197" lon="-0.45289">
        <ele>55</ele>
        <time>2012-10-14T12:51:48Z</time>
      </trkpt>
      <trkpt lat="44.81186" lon="-0.45287">
        <ele>54</ele>
        <time>2012-10-14T12:51:52Z</time>
      </trkpt>
      <trkpt lat="44.81175" lon="-0.45292">
        <ele>52</ele>
        <time>2012-10-14T12:51:55Z</time>
      </trkpt>
      <trkpt lat="44.81167" lon="-0.453">
        <ele>51</ele>
        <time>2012-10-14T12:51:58Z</time>
      </trkpt>
      <trkpt lat="44.81169" lon="-0.45316">
        <ele>51</ele>
        <time>2012-10-14T12:52:09Z</time>
      </trkpt>
      <trkpt lat="44.81171" lon="-0.45336">
        <ele>50</ele>
        <time>2012-10-14T12:52:17Z</time>
      </trkpt>
      <trkpt lat="44.81173" lon="-0.45355">
        <ele>49</ele>
        <time>2012-10-14T12:52:21Z</time>
      </trkpt>
      <trkpt lat="44.81177" lon="-0.45368">
        <ele>49</ele>
        <time>2012-10-14T12:52:25Z</time>
      </trkpt>
      <trkpt lat="44.8118" lon="-0.45377">
        <ele>49</ele>
        <time>2012-10-14T12:52:28Z</time>
      </trkpt>
      <trkpt lat="44.81182" lon="-0.4539">
        <ele>49</ele>
        <time>2012-10-14T12:52:32Z</time>
      </trkpt>
      <trkpt lat="44.8119" lon="-0.45432">
        <ele>46</ele>
        <time>2012-10-14T12:52:41Z</time>
      </trkpt>
      <trkpt lat="44.81198" lon="-0.45441">
        <ele>46</ele>
        <time>2012-10-14T12:52:48Z</time>
      </trkpt>
      <trkpt lat="44.81197" lon="-0.45453">
        <ele>44</ele>
        <time>2012-10-14T12:52:51Z</time>
      </trkpt>
      <trkpt lat="44.81196" lon="-0.45485">
        <ele>40</ele>
        <time>2012-10-14T12:52:55Z</time>
      </trkpt>
      <trkpt lat="44.81196" lon="-0.45493">
        <ele>39</ele>
        <time>2012-10-14T12:52:56Z</time>
      </trkpt>
      <trkpt lat="44.81204" lon="-0.45522">
        <ele>35</ele>
        <time>2012-10-14T12:53:01Z</time>
      </trkpt>
      <trkpt lat="44.8121" lon="-0.45532">
        <ele>35</ele>
        <time>2012-10-14T12:53:04Z</time>
      </trkpt>
      <trkpt lat="44.81214" lon="-0.45549">
        <ele>35</ele>
        <time>2012-10-14T12:53:11Z</time>
      </trkpt>
      <trkpt lat="44.81215" lon="-0.45552">
        <ele>35</ele>
        <time>2012-10-14T12:53:21Z</time>
      </trkpt>
      <trkpt lat="44.81216" lon="-0.45555">
        <ele>35</ele>
        <time>2012-10-14T12:53:29Z</time>
      </trkpt>
      <trkpt lat="44.81215" lon="-0.45558">
        <ele>34</ele>
        <time>2012-10-14T12:53:34Z</time>
      </trkpt>
      <trkpt lat="44.81212" lon="-0.45567">
        <ele>34</ele>
        <time>2012-10-14T12:53:39Z</time>
      </trkpt>
      <trkpt lat="44.81212" lon="-0.45576">
        <ele>34</ele>
        <time>2012-10-14T12:53:42Z</time>
      </trkpt>
      <trkpt lat="44.81211" lon="-0.45589">
        <ele>33</ele>
        <time>2012-10-14T12:53:48Z</time>
      </trkpt>
      <trkpt lat="44.81206" lon="-0.45597">
        <ele>33</ele>
        <time>2012-10-14T12:53:58Z</time>
      </trkpt>
      <trkpt lat="44.81204" lon="-0.4561">
        <ele>34</ele>
        <time>2012-10-14T12:54:10Z</time>
      </trkpt>
      <trkpt lat="44.81203" lon="-0.45621">
        <ele>34</ele>
        <time>2012-10-14T12:54:20Z</time>
      </trkpt>
      <trkpt lat="44.81201" lon="-0.45634">
        <ele>34</ele>
        <time>2012-10-14T12:54:29Z</time>
      </trkpt>
      <trkpt lat="44.81201" lon="-0.45638">
        <ele>34</ele>
        <time>2012-10-14T12:54:40Z</time>
      </trkpt>
      <trkpt lat="44.81203" lon="-0.45641">
        <ele>34</ele>
        <time>2012-10-14T12:54:52Z</time>
      </trkpt>
      <trkpt lat="44.81202" lon="-0.45652">
        <ele>34</ele>
        <time>2012-10-14T12:54:57Z</time>
      </trkpt>
      <trkpt lat="44.81207" lon="-0.45668">
        <ele>35</ele>
        <time>2012-10-14T12:55:03Z</time>
      </trkpt>
      <trkpt lat="44.81215" lon="-0.4569">
        <ele>36</ele>
        <time>2012-10-14T12:55:10Z</time>
      </trkpt>
      <trkpt lat="44.81229" lon="-0.45708">
        <ele>38</ele>
        <time>2012-10-14T12:55:19Z</time>
      </trkpt>
      <trkpt lat="44.81233" lon="-0.45715">
        <ele>39</ele>
        <time>2012-10-14T12:55:22Z</time>
      </trkpt>
      <trkpt lat="44.81239" lon="-0.45728">
        <ele>40</ele>
        <time>2012-10-14T12:55:27Z</time>
      </trkpt>
      <trkpt lat="44.8124" lon="-0.4573">
        <ele>40</ele>
        <time>2012-10-14T12:55:28Z</time>
      </trkpt>
      <trkpt lat="44.81252" lon="-0.45745">
        <ele>41</ele>
        <time>2012-10-14T12:55:36Z</time>
      </trkpt>
      <trkpt lat="44.81253" lon="-0.45746">
        <ele>41</ele>
        <time>2012-10-14T12:55:37Z</time>
      </trkpt>
      <trkpt lat="44.81265" lon="-0.45763">
        <ele>42</ele>
        <time>2012-10-14T12:55:44Z</time>
      </trkpt>
      <trkpt lat="44.81277" lon="-0.45784">
        <ele>44</ele>
        <time>2012-10-14T12:55:52Z</time>
      </trkpt>
      <trkpt lat="44.81281" lon="-0.4579">
        <ele>45</ele>
        <time>2012-10-14T12:55:54Z</time>
      </trkpt>
      <trkpt lat="44.81295" lon="-0.45811">
        <ele>47</ele>
        <time>2012-10-14T12:56:02Z</time>
      </trkpt>
      <trkpt lat="44.81298" lon="-0.45816">
        <ele>47</ele>
        <time>2012-10-14T12:56:05Z</time>
      </trkpt>
      <trkpt lat="44.8131" lon="-0.45839">
        <ele>50</ele>
        <time>2012-10-14T12:56:13Z</time>
      </trkpt>
      <trkpt lat="44.81315" lon="-0.45841">
        <ele>50</ele>
        <time>2012-10-14T12:56:16Z</time>
      </trkpt>
      <trkpt lat="44.81324" lon="-0.45863">
        <ele>52</ele>
        <time>2012-10-14T12:56:23Z</time>
      </trkpt>
      <trkpt lat="44.81328" lon="-0.45886">
        <ele>54</ele>
        <time>2012-10-14T12:56:33Z</time>
      </trkpt>
      <trkpt lat="44.81326" lon="-0.45897">
        <ele>56</ele>
        <time>2012-10-14T12:56:41Z</time>
      </trkpt>
      <trkpt lat="44.81323" lon="-0.45905">
        <ele>58</ele>
        <time>2012-10-14T12:56:49Z</time>
      </trkpt>
      <trkpt lat="44.8132" lon="-0.45911">
        <ele>59</ele>
        <time>2012-10-14T12:56:59Z</time>
      </trkpt>
      <trkpt lat="44.81314" lon="-0.45916">
        <ele>59</ele>
        <time>2012-10-14T12:57:08Z</time>
      </trkpt>
      <trkpt lat="44.8131" lon="-0.45919">
        <ele>60</ele>
        <time>2012-10-14T12:57:18Z</time>
      </trkpt>
      <trkpt lat="44.81304" lon="-0.45932">
        <ele>62</ele>
        <time>2012-10-14T12:57:28Z</time>
      </trkpt>
      <trkpt lat="44.81303" lon="-0.45947">
        <ele>63</ele>
        <time>2012-10-14T12:57:39Z</time>
      </trkpt>
      <trkpt lat="44.81302" lon="-0.45956">
        <ele>64</ele>
        <time>2012-10-14T12:57:49Z</time>
      </trkpt>
      <trkpt lat="44.81303" lon="-0.45966">
        <ele>64</ele>
        <time>2012-10-14T12:57:57Z</time>
      </trkpt>
      <trkpt lat="44.81303" lon="-0.45971">
        <ele>65</ele>
        <time>2012-10-14T12:58:08Z</time>
      </trkpt>
      <trkpt lat="44.81304" lon="-0.45973">
        <ele>65</ele>
        <time>2012-10-14T12:58:24Z</time>
      </trkpt>
      <trkpt lat="44.81304" lon="-0.45973">
        <ele>65</ele>
        <time>2012-10-14T12:58:44Z</time>
      </trkpt>
      <trkpt lat="44.81305" lon="-0.45975">
        <ele>65</ele>
        <time>2012-10-14T12:58:58Z</time>
      </trkpt>
      <trkpt lat="44.81304" lon="-0.45976">
        <ele>65</ele>
        <time>2012-10-14T12:59:14Z</time>
      </trkpt>
      <trkpt lat="44.81305" lon="-0.45976">
        <ele>65</ele>
        <time>2012-10-14T12:59:22Z</time>
      </trkpt>
      <trkpt lat="44.81307" lon="-0.45986">
        <ele>66</ele>
        <time>2012-10-14T12:59:30Z</time>
      </trkpt>
      <trkpt lat="44.81312" lon="-0.46007">
        <ele>67</ele>
        <time>2012-10-14T12:59:38Z</time>
      </trkpt>
      <trkpt lat="44.81316" lon="-0.46037">
        <ele>68</ele>
        <time>2012-10-14T12:59:47Z</time>
      </trkpt>
      <trkpt lat="44.81321" lon="-0.46065">
        <ele>69</ele>
        <time>2012-10-14T12:59:55Z</time>
      </trkpt>
      <trkpt lat="44.81334" lon="-0.46105">
        <ele>69</ele>
        <time>2012-10-14T13:00:05Z</time>
      </trkpt>
      <trkpt lat="44.81343" lon="-0.46141">
        <ele>70</ele>
        <time>2012-10-14T13:00:14Z</time>
      </trkpt>
      <trkpt lat="44.81351" lon="-0.46191">
        <ele>71</ele>
        <time>2012-10-14T13:00:26Z</time>
      </trkpt>
      <trkpt lat="44.81351" lon="-0.46232">
        <ele>73</ele>
        <time>2012-10-14T13:00:35Z</time>
      </trkpt>
      <trkpt lat="44.81351" lon="-0.46253">
        <ele>73</ele>
        <time>2012-10-14T13:00:40Z</time>
      </trkpt>
      <trkpt lat="44.81349" lon="-0.46282">
        <ele>74</ele>
        <time>2012-10-14T13:00:47Z</time>
      </trkpt>
      <trkpt lat="44.81348" lon="-0.46324">
        <ele>76</ele>
        <time>2012-10-14T13:00:58Z</time>
      </trkpt>
      <trkpt lat="44.81346" lon="-0.46358">
        <ele>77</ele>
        <time>2012-10-14T13:01:09Z</time>
      </trkpt>
      <trkpt lat="44.81344" lon="-0.46385">
        <ele>77</ele>
        <time>2012-10-14T13:01:18Z</time>
      </trkpt>
      <trkpt lat="44.81343" lon="-0.46408">
        <ele>78</ele>
        <time>2012-10-14T13:01:27Z</time>
      </trkpt>
      <trkpt lat="44.81342" lon="-0.46425">
        <ele>77</ele>
        <time>2012-10-14T13:01:35Z</time>
      </trkpt>
      <trkpt lat="44.81342" lon="-0.46427">
        <ele>77</ele>
        <time>2012-10-14T13:01:44Z</time>
      </trkpt>
      <trkpt lat="44.81342" lon="-0.46427">
        <ele>77</ele>
        <time>2012-10-14T13:02:04Z</time>
      </trkpt>
      <trkpt lat="44.81343" lon="-0.46428">
        <ele>77</ele>
        <time>2012-10-14T13:02:20Z</time>
      </trkpt>
      <trkpt lat="44.81342" lon="-0.46428">
        <ele>77</ele>
        <time>2012-10-14T13:02:31Z</time>
      </trkpt>
      <trkpt lat="44.81343" lon="-0.46429">
        <ele>77</ele>
        <time>2012-10-14T13:02:49Z</time>
      </trkpt>
      <trkpt lat="44.81358" lon="-0.46433">
        <ele>77</ele>
        <time>2012-10-14T13:02:59Z</time>
      </trkpt>
      <trkpt lat="44.81384" lon="-0.46436">
        <ele>76</ele>
        <time>2012-10-14T13:03:09Z</time>
      </trkpt>
      <trkpt lat="44.81424" lon="-0.46441">
        <ele>76</ele>
        <time>2012-10-14T13:03:20Z</time>
      </trkpt>
      <trkpt lat="44.81471" lon="-0.46438">
        <ele>76</ele>
        <time>2012-10-14T13:03:33Z</time>
      </trkpt>
      <trkpt lat="44.81511" lon="-0.46433">
        <ele>76</ele>
        <time>2012-10-14T13:03:45Z</time>
      </trkpt>
      <trkpt lat="44.81566" lon="-0.46426">
        <ele>76</ele>
        <time>2012-10-14T13:03:58Z</time>
      </trkpt>
      <trkpt lat="44.81633" lon="-0.46429">
        <ele>74</ele>
        <time>2012-10-14T13:04:10Z</time>
      </trkpt>
      <trkpt lat="44.81655" lon="-0.46435">
        <ele>74</ele>
        <time>2012-10-14T13:04:14Z</time>
      </trkpt>
      <trkpt lat="44.81664" lon="-0.46439">
        <ele>74</ele>
        <time>2012-10-14T13:04:16Z</time>
      </trkpt>
      <trkpt lat="44.81668" lon="-0.46443">
        <ele>74</ele>
        <time>2012-10-14T13:04:17Z</time>
      </trkpt>
      <trkpt lat="44.81718" lon="-0.46487">
        <ele>75</ele>
        <time>2012-10-14T13:04:29Z</time>
      </trkpt>
      <trkpt lat="44.81726" lon="-0.46496">
        <ele>75</ele>
        <time>2012-10-14T13:04:31Z</time>
      </trkpt>
      <trkpt lat="44.81732" lon="-0.46505">
        <ele>76</ele>
        <time>2012-10-14T13:04:33Z</time>
      </trkpt>
      <trkpt lat="44.81735" lon="-0.46509">
        <ele>76</ele>
        <time>2012-10-14T13:04:34Z</time>
      </trkpt>
      <trkpt lat="44.81764" lon="-0.46553">
        <ele>77</ele>
        <time>2012-10-14T13:04:45Z</time>
      </trkpt>
      <trkpt lat="44.8179" lon="-0.46596">
        <ele>78</ele>
        <time>2012-10-14T13:04:57Z</time>
      </trkpt>
      <trkpt lat="44.81801" lon="-0.46613">
        <ele>78</ele>
        <time>2012-10-14T13:05:02Z</time>
      </trkpt>
      <trkpt lat="44.81826" lon="-0.46646">
        <ele>78</ele>
        <time>2012-10-14T13:05:12Z</time>
      </trkpt>
      <trkpt lat="44.8186" lon="-0.46677">
        <ele>78</ele>
        <time>2012-10-14T13:05:24Z</time>
      </trkpt>
      <trkpt lat="44.81903" lon="-0.46703">
        <ele>78</ele>
        <time>2012-10-14T13:05:36Z</time>
      </trkpt>
      <trkpt lat="44.81949" lon="-0.46741">
        <ele>77</ele>
        <time>2012-10-14T13:05:49Z</time>
      </trkpt>
      <trkpt lat="44.81992" lon="-0.46784">
        <ele>78</ele>
        <time>2012-10-14T13:06:03Z</time>
      </trkpt>
      <trkpt lat="44.82029" lon="-0.4682">
        <ele>79</ele>
        <time>2012-10-14T13:06:16Z</time>
      </trkpt>
      <trkpt lat="44.82031" lon="-0.46823">
        <ele>79</ele>
        <time>2012-10-14T13:06:17Z</time>
      </trkpt>
      <trkpt lat="44.82032" lon="-0.46827">
        <ele>79</ele>
        <time>2012-10-14T13:06:18Z</time>
      </trkpt>
      <trkpt lat="44.82033" lon="-0.46831">
        <ele>79</ele>
        <time>2012-10-14T13:06:19Z</time>
      </trkpt>
      <trkpt lat="44.82035" lon="-0.46835">
        <ele>79</ele>
        <time>2012-10-14T13:06:20Z</time>
      </trkpt>
      <trkpt lat="44.82038" lon="-0.4684">
        <ele>79</ele>
        <time>2012-10-14T13:06:21Z</time>
      </trkpt>
      <trkpt lat="44.8204" lon="-0.46844">
        <ele>79</ele>
        <time>2012-10-14T13:06:22Z</time>
      </trkpt>
      <trkpt lat="44.82043" lon="-0.46847">
        <ele>79</ele>
        <time>2012-10-14T13:06:23Z</time>
      </trkpt>
      <trkpt lat="44.82068" lon="-0.46871">
        <ele>80</ele>
        <time>2012-10-14T13:06:32Z</time>
      </trkpt>
      <trkpt lat="44.82085" lon="-0.46889">
        <ele>81</ele>
        <time>2012-10-14T13:06:39Z</time>
      </trkpt>
      <trkpt lat="44.82099" lon="-0.46909">
        <ele>82</ele>
        <time>2012-10-14T13:06:47Z</time>
      </trkpt>
      <trkpt lat="44.82121" lon="-0.46935">
        <ele>83</ele>
        <time>2012-10-14T13:06:57Z</time>
      </trkpt>
      <trkpt lat="44.82146" lon="-0.46959">
        <ele>85</ele>
        <time>2012-10-14T13:07:07Z</time>
      </trkpt>
      <trkpt lat="44.82172" lon="-0.46985">
        <ele>85</ele>
        <time>2012-10-14T13:07:17Z</time>
      </trkpt>
      <trkpt lat="44.82177" lon="-0.46991">
        <ele>85</ele>
        <time>2012-10-14T13:07:19Z</time>
      </trkpt>
      <trkpt lat="44.82201" lon="-0.47015">
        <ele>85</ele>
        <time>2012-10-14T13:07:27Z</time>
      </trkpt>
      <trkpt lat="44.8225" lon="-0.47064">
        <ele>83</ele>
        <time>2012-10-14T13:07:38Z</time>
      </trkpt>
      <trkpt lat="44.82282" lon="-0.47101">
        <ele>81</ele>
        <time>2012-10-14T13:07:45Z</time>
      </trkpt>
      <trkpt lat="44.82319" lon="-0.47153">
        <ele>80</ele>
        <time>2012-10-14T13:07:55Z</time>
      </trkpt>
      <trkpt lat="44.82337" lon="-0.4718">
        <ele>80</ele>
        <time>2012-10-14T13:08:03Z</time>
      </trkpt>
      <trkpt lat="44.82337" lon="-0.47187">
        <ele>80</ele>
        <time>2012-10-14T13:08:11Z</time>
      </trkpt>
      <trkpt lat="44.82337" lon="-0.4719">
        <ele>80</ele>
        <time>2012-10-14T13:08:18Z</time>
      </trkpt>
      <trkpt lat="44.82336" lon="-0.47192">
        <ele>79</ele>
        <time>2012-10-14T13:08:19Z</time>
      </trkpt>
      <trkpt lat="44.82334" lon="-0.47194">
        <ele>79</ele>
        <time>2012-10-14T13:08:20Z</time>
      </trkpt>
      <trkpt lat="44.82332" lon="-0.47197">
        <ele>79</ele>
        <time>2012-10-14T13:08:21Z</time>
      </trkpt>
      <trkpt lat="44.82328" lon="-0.47199">
        <ele>79</ele>
        <time>2012-10-14T13:08:22Z</time>
      </trkpt>
      <trkpt lat="44.82325" lon="-0.472">
        <ele>79</ele>
        <time>2012-10-14T13:08:23Z</time>
      </trkpt>
      <trkpt lat="44.82322" lon="-0.47202">
        <ele>79</ele>
        <time>2012-10-14T13:08:24Z</time>
      </trkpt>
      <trkpt lat="44.82306" lon="-0.47208">
        <ele>78</ele>
        <time>2012-10-14T13:08:28Z</time>
      </trkpt>
      <trkpt lat="44.82285" lon="-0.47214">
        <ele>77</ele>
        <time>2012-10-14T13:08:33Z</time>
      </trkpt>
      <trkpt lat="44.82245" lon="-0.47232">
        <ele>77</ele>
        <time>2012-10-14T13:08:44Z</time>
      </trkpt>
      <trkpt lat="44.82224" lon="-0.47245">
        <ele>78</ele>
        <time>2012-10-14T13:08:53Z</time>
      </trkpt>
      <trkpt lat="44.82222" lon="-0.47247">
        <ele>78</ele>
        <time>2012-10-14T13:08:54Z</time>
      </trkpt>
      <trkpt lat="44.8222" lon="-0.47248">
        <ele>78</ele>
        <time>2012-10-14T13:08:55Z</time>
      </trkpt>
      <trkpt lat="44.82219" lon="-0.47249">
        <ele>78</ele>
        <time>2012-10-14T13:08:56Z</time>
      </trkpt>
      <trkpt lat="44.82218" lon="-0.4725">
        <ele>78</ele>
        <time>2012-10-14T13:08:57Z</time>
      </trkpt>
      <trkpt lat="44.82217" lon="-0.47251">
        <ele>78</ele>
        <time>2012-10-14T13:08:58Z</time>
      </trkpt>
      <trkpt lat="44.82217" lon="-0.47253">
        <ele>78</ele>
        <time>2012-10-14T13:08:59Z</time>
      </trkpt>
      <trkpt lat="44.82216" lon="-0.47257">
        <ele>78</ele>
        <time>2012-10-14T13:09:00Z</time>
      </trkpt>
      <trkpt lat="44.82216" lon="-0.47264">
        <ele>77</ele>
        <time>2012-10-14T13:09:02Z</time>
      </trkpt>
      <trkpt lat="44.82219" lon="-0.47312">
        <ele>76</ele>
        <time>2012-10-14T13:09:13Z</time>
      </trkpt>
      <trkpt lat="44.82214" lon="-0.47336">
        <ele>75</ele>
        <time>2012-10-14T13:09:18Z</time>
      </trkpt>
      <trkpt lat="44.82219" lon="-0.4735">
        <ele>75</ele>
        <time>2012-10-14T13:09:21Z</time>
      </trkpt>
      <trkpt lat="44.82221" lon="-0.47355">
        <ele>74</ele>
        <time>2012-10-14T13:09:22Z</time>
      </trkpt>
      <trkpt lat="44.82225" lon="-0.4736">
        <ele>74</ele>
        <time>2012-10-14T13:09:23Z</time>
      </trkpt>
      <trkpt lat="44.82228" lon="-0.47364">
        <ele>74</ele>
        <time>2012-10-14T13:09:24Z</time>
      </trkpt>
      <trkpt lat="44.82232" lon="-0.47367">
        <ele>73</ele>
        <time>2012-10-14T13:09:25Z</time>
      </trkpt>
      <trkpt lat="44.82236" lon="-0.47369">
        <ele>73</ele>
        <time>2012-10-14T13:09:26Z</time>
      </trkpt>
      <trkpt lat="44.82247" lon="-0.47378">
        <ele>71</ele>
        <time>2012-10-14T13:09:31Z</time>
      </trkpt>
      <trkpt lat="44.82247" lon="-0.47386">
        <ele>71</ele>
        <time>2012-10-14T13:09:35Z</time>
      </trkpt>
      <trkpt lat="44.82245" lon="-0.47404">
        <ele>70</ele>
        <time>2012-10-14T13:09:45Z</time>
      </trkpt>
      <trkpt lat="44.8224" lon="-0.47416">
        <ele>69</ele>
        <time>2012-10-14T13:09:54Z</time>
      </trkpt>
      <trkpt lat="44.82233" lon="-0.47435">
        <ele>68</ele>
        <time>2012-10-14T13:10:01Z</time>
      </trkpt>
      <trkpt lat="44.82231" lon="-0.4744">
        <ele>68</ele>
        <time>2012-10-14T13:10:02Z</time>
      </trkpt>
      <trkpt lat="44.82229" lon="-0.47447">
        <ele>67</ele>
        <time>2012-10-14T13:10:03Z</time>
      </trkpt>
      <trkpt lat="44.82229" lon="-0.47453">
        <ele>67</ele>
        <time>2012-10-14T13:10:04Z</time>
      </trkpt>
      <trkpt lat="44.82229" lon="-0.47457">
        <ele>66</ele>
        <time>2012-10-14T13:10:05Z</time>
      </trkpt>
      <trkpt lat="44.82228" lon="-0.47476">
        <ele>65</ele>
        <time>2012-10-14T13:10:09Z</time>
      </trkpt>
      <trkpt lat="44.82226" lon="-0.47486">
        <ele>64</ele>
        <time>2012-10-14T13:10:11Z</time>
      </trkpt>
      <trkpt lat="44.8222" lon="-0.4752">
        <ele>62</ele>
        <time>2012-10-14T13:10:17Z</time>
      </trkpt>
      <trkpt lat="44.82212" lon="-0.47531">
        <ele>62</ele>
        <time>2012-10-14T13:10:21Z</time>
      </trkpt>
      <trkpt lat="44.82205" lon="-0.47543">
        <ele>62</ele>
        <time>2012-10-14T13:10:29Z</time>
      </trkpt>
      <trkpt lat="44.8219" lon="-0.47547">
        <ele>63</ele>
        <time>2012-10-14T13:10:39Z</time>
      </trkpt>
      <trkpt lat="44.82187" lon="-0.47567">
        <ele>62</ele>
        <time>2012-10-14T13:10:47Z</time>
      </trkpt>
      <trkpt lat="44.82186" lon="-0.47578">
        <ele>62</ele>
        <time>2012-10-14T13:10:51Z</time>
      </trkpt>
      <trkpt lat="44.82187" lon="-0.47584">
        <ele>61</ele>
        <time>2012-10-14T13:10:53Z</time>
      </trkpt>
      <trkpt lat="44.82185" lon="-0.47595">
        <ele>61</ele>
        <time>2012-10-14T13:10:57Z</time>
      </trkpt>
      <trkpt lat="44.82186" lon="-0.47609">
        <ele>60</ele>
        <time>2012-10-14T13:11:06Z</time>
      </trkpt>
      <trkpt lat="44.82186" lon="-0.47615">
        <ele>60</ele>
        <time>2012-10-14T13:11:13Z</time>
      </trkpt>
      <trkpt lat="44.82185" lon="-0.47619">
        <ele>60</ele>
        <time>2012-10-14T13:11:17Z</time>
      </trkpt>
      <trkpt lat="44.82178" lon="-0.47626">
        <ele>60</ele>
        <time>2012-10-14T13:11:27Z</time>
      </trkpt>
      <trkpt lat="44.82175" lon="-0.4763">
        <ele>61</ele>
        <time>2012-10-14T13:11:35Z</time>
      </trkpt>
      <trkpt lat="44.82172" lon="-0.47632">
        <ele>61</ele>
        <time>2012-10-14T13:11:46Z</time>
      </trkpt>
      <trkpt lat="44.82172" lon="-0.47632">
        <ele>61</ele>
        <time>2012-10-14T13:11:48Z</time>
      </trkpt>
      <trkpt lat="44.82173" lon="-0.47634">
        <ele>61</ele>
        <time>2012-10-14T13:11:50Z</time>
      </trkpt>
      <trkpt lat="44.82172" lon="-0.47641">
        <ele>61</ele>
        <time>2012-10-14T13:11:55Z</time>
      </trkpt>
      <trkpt lat="44.82164" lon="-0.47652">
        <ele>62</ele>
        <time>2012-10-14T13:12:03Z</time>
      </trkpt>
      <trkpt lat="44.8216" lon="-0.47657">
        <ele>62</ele>
        <time>2012-10-14T13:12:07Z</time>
      </trkpt>
      <trkpt lat="44.82156" lon="-0.47668">
        <ele>63</ele>
        <time>2012-10-14T13:12:17Z</time>
      </trkpt>
      <trkpt lat="44.82154" lon="-0.47671">
        <ele>63</ele>
        <time>2012-10-14T13:12:32Z</time>
      </trkpt>
      <trkpt lat="44.82154" lon="-0.47675">
        <ele>63</ele>
        <time>2012-10-14T13:12:36Z</time>
      </trkpt>
      <trkpt lat="44.82168" lon="-0.4768">
        <ele>60</ele>
        <time>2012-10-14T13:12:44Z</time>
      </trkpt>
      <trkpt lat="44.82171" lon="-0.47681">
        <ele>59</ele>
        <time>2012-10-14T13:12:46Z</time>
      </trkpt>
      <trkpt lat="44.82172" lon="-0.47703">
        <ele>58</ele>
        <time>2012-10-14T13:12:54Z</time>
      </trkpt>
      <trkpt lat="44.82169" lon="-0.47708">
        <ele>58</ele>
        <time>2012-10-14T13:12:56Z</time>
      </trkpt>
      <trkpt lat="44.82174" lon="-0.47721">
        <ele>57</ele>
        <time>2012-10-14T13:13:01Z</time>
      </trkpt>
      <trkpt lat="44.82171" lon="-0.47747">
        <ele>55</ele>
        <time>2012-10-14T13:13:09Z</time>
      </trkpt>
      <trkpt lat="44.82169" lon="-0.47755">
        <ele>55</ele>
        <time>2012-10-14T13:13:12Z</time>
      </trkpt>
      <trkpt lat="44.82168" lon="-0.47759">
        <ele>55</ele>
        <time>2012-10-14T13:13:14Z</time>
      </trkpt>
      <trkpt lat="44.8216" lon="-0.47784">
        <ele>55</ele>
        <time>2012-10-14T13:13:22Z</time>
      </trkpt>
      <trkpt lat="44.8215" lon="-0.47805">
        <ele>55</ele>
        <time>2012-10-14T13:13:31Z</time>
      </trkpt>
      <trkpt lat="44.82145" lon="-0.47816">
        <ele>55</ele>
        <time>2012-10-14T13:13:38Z</time>
      </trkpt>
      <trkpt lat="44.8214" lon="-0.47824">
        <ele>54</ele>
        <time>2012-10-14T13:13:43Z</time>
      </trkpt>
      <trkpt lat="44.82138" lon="-0.47827">
        <ele>54</ele>
        <time>2012-10-14T13:13:45Z</time>
      </trkpt>
      <trkpt lat="44.82126" lon="-0.4784">
        <ele>54</ele>
        <time>2012-10-14T13:13:55Z</time>
      </trkpt>
      <trkpt lat="44.82125" lon="-0.47842">
        <ele>54</ele>
        <time>2012-10-14T13:13:56Z</time>
      </trkpt>
      <trkpt lat="44.82113" lon="-0.47858">
        <ele>54</ele>
        <time>2012-10-14T13:14:05Z</time>
      </trkpt>
      <trkpt lat="44.82102" lon="-0.47872">
        <ele>54</ele>
        <time>2012-10-14T13:14:13Z</time>
      </trkpt>
      <trkpt lat="44.82095" lon="-0.47879">
        <ele>53</ele>
        <time>2012-10-14T13:14:23Z</time>
      </trkpt>
      <trkpt lat="44.82089" lon="-0.47887">
        <ele>52</ele>
        <time>2012-10-14T13:14:28Z</time>
      </trkpt>
      <trkpt lat="44.82074" lon="-0.47905">
        <ele>50</ele>
        <time>2012-10-14T13:14:35Z</time>
      </trkpt>
      <trkpt lat="44.82056" lon="-0.47923">
        <ele>50</ele>
        <time>2012-10-14T13:14:43Z</time>
      </trkpt>
      <trkpt lat="44.82039" lon="-0.47935">
        <ele>49</ele>
        <time>2012-10-14T13:14:51Z</time>
      </trkpt>
      <trkpt lat="44.82035" lon="-0.47952">
        <ele>47</ele>
        <time>2012-10-14T13:14:56Z</time>
      </trkpt>
      <trkpt lat="44.82034" lon="-0.47957">
        <ele>46</ele>
        <time>2012-10-14T13:14:58Z</time>
      </trkpt>
      <trkpt lat="44.82026" lon="-0.47966">
        <ele>45</ele>
        <time>2012-10-14T13:15:07Z</time>
      </trkpt>
      <trkpt lat="44.82024" lon="-0.47967">
        <ele>46</ele>
        <time>2012-10-14T13:15:27Z</time>
      </trkpt>
      <trkpt lat="44.82023" lon="-0.47968">
        <ele>46</ele>
        <time>2012-10-14T13:15:47Z</time>
      </trkpt>
      <trkpt lat="44.82018" lon="-0.47971">
        <ele>46</ele>
        <time>2012-10-14T13:15:58Z</time>
      </trkpt>
      <trkpt lat="44.82001" lon="-0.47979">
        <ele>46</ele>
        <time>2012-10-14T13:16:06Z</time>
      </trkpt>
      <trkpt lat="44.81997" lon="-0.4798">
        <ele>46</ele>
        <time>2012-10-14T13:16:08Z</time>
      </trkpt>
      <trkpt lat="44.81993" lon="-0.47983">
        <ele>46</ele>
        <time>2012-10-14T13:16:10Z</time>
      </trkpt>
      <trkpt lat="44.81983" lon="-0.47988">
        <ele>46</ele>
        <time>2012-10-14T13:16:18Z</time>
      </trkpt>
      <trkpt lat="44.81982" lon="-0.4799">
        <ele>46</ele>
        <time>2012-10-14T13:16:22Z</time>
      </trkpt>
      <trkpt lat="44.81979" lon="-0.47994">
        <ele>45</ele>
        <time>2012-10-14T13:16:30Z</time>
      </trkpt>
      <trkpt lat="44.81971" lon="-0.48006">
        <ele>44</ele>
        <time>2012-10-14T13:16:39Z</time>
      </trkpt>
      <trkpt lat="44.81967" lon="-0.48013">
        <ele>44</ele>
        <time>2012-10-14T13:16:43Z</time>
      </trkpt>
      <trkpt lat="44.8196" lon="-0.48019">
        <ele>43</ele>
        <time>2012-10-14T13:16:52Z</time>
      </trkpt>
      <trkpt lat="44.81943" lon="-0.48033">
        <ele>43</ele>
        <time>2012-10-14T13:17:01Z</time>
      </trkpt>
      <trkpt lat="44.81936" lon="-0.48037">
        <ele>43</ele>
        <time>2012-10-14T13:17:05Z</time>
      </trkpt>
      <trkpt lat="44.81929" lon="-0.48039">
        <ele>43</ele>
        <time>2012-10-14T13:17:13Z</time>
      </trkpt>
      <trkpt lat="44.81927" lon="-0.48038">
        <ele>42</ele>
        <time>2012-10-14T13:17:31Z</time>
      </trkpt>
      <trkpt lat="44.81925" lon="-0.48039">
        <ele>42</ele>
        <time>2012-10-14T13:17:46Z</time>
      </trkpt>
      <trkpt lat="44.81906" lon="-0.48049">
        <ele>42</ele>
        <time>2012-10-14T13:17:54Z</time>
      </trkpt>
      <trkpt lat="44.81903" lon="-0.48052">
        <ele>42</ele>
        <time>2012-10-14T13:17:55Z</time>
      </trkpt>
      <trkpt lat="44.81895" lon="-0.48058">
        <ele>42</ele>
        <time>2012-10-14T13:17:57Z</time>
      </trkpt>
      <trkpt lat="44.81853" lon="-0.48088">
        <ele>39</ele>
        <time>2012-10-14T13:18:07Z</time>
      </trkpt>
      <trkpt lat="44.81844" lon="-0.48096">
        <ele>39</ele>
        <time>2012-10-14T13:18:09Z</time>
      </trkpt>
      <trkpt lat="44.81832" lon="-0.4811">
        <ele>39</ele>
        <time>2012-10-14T13:18:12Z</time>
      </trkpt>
      <trkpt lat="44.81812" lon="-0.48129">
        <ele>38</ele>
        <time>2012-10-14T13:18:17Z</time>
      </trkpt>
      <trkpt lat="44.81808" lon="-0.48133">
        <ele>37</ele>
        <time>2012-10-14T13:18:18Z</time>
      </trkpt>
      <trkpt lat="44.81805" lon="-0.48139">
        <ele>37</ele>
        <time>2012-10-14T13:18:19Z</time>
      </trkpt>
      <trkpt lat="44.81796" lon="-0.48155">
        <ele>37</ele>
        <time>2012-10-14T13:18:22Z</time>
      </trkpt>
      <trkpt lat="44.81793" lon="-0.4816">
        <ele>37</ele>
        <time>2012-10-14T13:18:23Z</time>
      </trkpt>
      <trkpt lat="44.81789" lon="-0.48163">
        <ele>37</ele>
        <time>2012-10-14T13:18:24Z</time>
      </trkpt>
      <trkpt lat="44.81785" lon="-0.48165">
        <ele>37</ele>
        <time>2012-10-14T13:18:25Z</time>
      </trkpt>
      <trkpt lat="44.81781" lon="-0.48167">
        <ele>36</ele>
        <time>2012-10-14T13:18:26Z</time>
      </trkpt>
      <trkpt lat="44.81776" lon="-0.48167">
        <ele>36</ele>
        <time>2012-10-14T13:18:27Z</time>
      </trkpt>
      <trkpt lat="44.81772" lon="-0.48166">
        <ele>36</ele>
        <time>2012-10-14T13:18:28Z</time>
      </trkpt>
      <trkpt lat="44.81768" lon="-0.48165">
        <ele>36</ele>
        <time>2012-10-14T13:18:29Z</time>
      </trkpt>
      <trkpt lat="44.81764" lon="-0.48164">
        <ele>36</ele>
        <time>2012-10-14T13:18:30Z</time>
      </trkpt>
      <trkpt lat="44.8176" lon="-0.48162">
        <ele>36</ele>
        <time>2012-10-14T13:18:31Z</time>
      </trkpt>
      <trkpt lat="44.81756" lon="-0.48159">
        <ele>36</ele>
        <time>2012-10-14T13:18:32Z</time>
      </trkpt>
      <trkpt lat="44.8171" lon="-0.48136">
        <ele>39</ele>
        <time>2012-10-14T13:18:43Z</time>
      </trkpt>
      <trkpt lat="44.817" lon="-0.48131">
        <ele>41</ele>
        <time>2012-10-14T13:18:46Z</time>
      </trkpt>
      <trkpt lat="44.81679" lon="-0.48117">
        <ele>43</ele>
        <time>2012-10-14T13:18:55Z</time>
      </trkpt>
      <trkpt lat="44.81671" lon="-0.48113">
        <ele>44</ele>
        <time>2012-10-14T13:19:00Z</time>
      </trkpt>
      <trkpt lat="44.8167" lon="-0.48112">
        <ele>44</ele>
        <time>2012-10-14T13:19:01Z</time>
      </trkpt>
      <trkpt lat="44.81668" lon="-0.48111">
        <ele>44</ele>
        <time>2012-10-14T13:19:02Z</time>
      </trkpt>
      <trkpt lat="44.81667" lon="-0.4811">
        <ele>45</ele>
        <time>2012-10-14T13:19:03Z</time>
      </trkpt>
      <trkpt lat="44.81662" lon="-0.48108">
        <ele>46</ele>
        <time>2012-10-14T13:19:07Z</time>
      </trkpt>
      <trkpt lat="44.8166" lon="-0.48107">
        <ele>46</ele>
        <time>2012-10-14T13:19:08Z</time>
      </trkpt>
      <trkpt lat="44.81659" lon="-0.48107">
        <ele>46</ele>
        <time>2012-10-14T13:19:09Z</time>
      </trkpt>
      <trkpt lat="44.81641" lon="-0.48094">
        <ele>49</ele>
        <time>2012-10-14T13:19:19Z</time>
      </trkpt>
      <trkpt lat="44.81635" lon="-0.48091">
        <ele>50</ele>
        <time>2012-10-14T13:19:23Z</time>
      </trkpt>
      <trkpt lat="44.81633" lon="-0.4809">
        <ele>50</ele>
        <time>2012-10-14T13:19:24Z</time>
      </trkpt>
      <trkpt lat="44.81631" lon="-0.48089">
        <ele>51</ele>
        <time>2012-10-14T13:19:25Z</time>
      </trkpt>
      <trkpt lat="44.81629" lon="-0.48089">
        <ele>51</ele>
        <time>2012-10-14T13:19:26Z</time>
      </trkpt>
      <trkpt lat="44.81617" lon="-0.48087">
        <ele>53</ele>
        <time>2012-10-14T13:19:35Z</time>
      </trkpt>
      <trkpt lat="44.81612" lon="-0.48087">
        <ele>55</ele>
        <time>2012-10-14T13:19:40Z</time>
      </trkpt>
      <trkpt lat="44.8161" lon="-0.48087">
        <ele>55</ele>
        <time>2012-10-14T13:19:41Z</time>
      </trkpt>
      <trkpt lat="44.81599" lon="-0.48086">
        <ele>57</ele>
        <time>2012-10-14T13:19:51Z</time>
      </trkpt>
      <trkpt lat="44.81587" lon="-0.48088">
        <ele>60</ele>
        <time>2012-10-14T13:20:00Z</time>
      </trkpt>
      <trkpt lat="44.81577" lon="-0.48094">
        <ele>62</ele>
        <time>2012-10-14T13:20:09Z</time>
      </trkpt>
      <trkpt lat="44.81571" lon="-0.48099">
        <ele>62</ele>
        <time>2012-10-14T13:20:18Z</time>
      </trkpt>
      <trkpt lat="44.81558" lon="-0.48102">
        <ele>64</ele>
        <time>2012-10-14T13:20:29Z</time>
      </trkpt>
      <trkpt lat="44.81551" lon="-0.48106">
        <ele>65</ele>
        <time>2012-10-14T13:20:42Z</time>
      </trkpt>
      <trkpt lat="44.81544" lon="-0.4811">
        <ele>66</ele>
        <time>2012-10-14T13:20:51Z</time>
      </trkpt>
      <trkpt lat="44.81537" lon="-0.48112">
        <ele>67</ele>
        <time>2012-10-14T13:21:02Z</time>
      </trkpt>
      <trkpt lat="44.81531" lon="-0.48115">
        <ele>67</ele>
        <time>2012-10-14T13:21:12Z</time>
      </trkpt>
      <trkpt lat="44.81526" lon="-0.48117">
        <ele>68</ele>
        <time>2012-10-14T13:21:22Z</time>
      </trkpt>
      <trkpt lat="44.81516" lon="-0.48122">
        <ele>68</ele>
        <time>2012-10-14T13:21:31Z</time>
      </trkpt>
      <trkpt lat="44.81506" lon="-0.48129">
        <ele>69</ele>
        <time>2012-10-14T13:21:43Z</time>
      </trkpt>
      <trkpt lat="44.81504" lon="-0.48129">
        <ele>69</ele>
        <time>2012-10-14T13:21:58Z</time>
      </trkpt>
      <trkpt lat="44.81505" lon="-0.4813">
        <ele>69</ele>
        <time>2012-10-14T13:22:20Z</time>
      </trkpt>
      <trkpt lat="44.81505" lon="-0.48132">
        <ele>69</ele>
        <time>2012-10-14T13:22:44Z</time>
      </trkpt>
      <trkpt lat="44.81504" lon="-0.48132">
        <ele>69</ele>
        <time>2012-10-14T13:23:08Z</time>
      </trkpt>
      <trkpt lat="44.81504" lon="-0.48132">
        <ele>69</ele>
        <time>2012-10-14T13:23:29Z</time>
      </trkpt>
      <trkpt lat="44.81504" lon="-0.48132">
        <ele>69</ele>
        <time>2012-10-14T13:23:30Z</time>
      </trkpt>
      <trkpt lat="44.81501" lon="-0.4813">
        <ele>69</ele>
        <time>2012-10-14T13:23:34Z</time>
      </trkpt>
      <trkpt lat="44.81495" lon="-0.4813">
        <ele>70</ele>
        <time>2012-10-14T13:23:38Z</time>
      </trkpt>
      <trkpt lat="44.81472" lon="-0.48131">
        <ele>71</ele>
        <time>2012-10-14T13:23:49Z</time>
      </trkpt>
      <trkpt lat="44.8145" lon="-0.48133">
        <ele>72</ele>
        <time>2012-10-14T13:23:59Z</time>
      </trkpt>
      <trkpt lat="44.81426" lon="-0.48133">
        <ele>72</ele>
        <time>2012-10-14T13:24:09Z</time>
      </trkpt>
      <trkpt lat="44.81384" lon="-0.48137">
        <ele>71</ele>
        <time>2012-10-14T13:24:18Z</time>
      </trkpt>
      <trkpt lat="44.81379" lon="-0.48139">
        <ele>71</ele>
        <time>2012-10-14T13:24:19Z</time>
      </trkpt>
      <trkpt lat="44.81374" lon="-0.48143">
        <ele>71</ele>
        <time>2012-10-14T13:24:20Z</time>
      </trkpt>
      <trkpt lat="44.81334" lon="-0.48174">
        <ele>69</ele>
        <time>2012-10-14T13:24:28Z</time>
      </trkpt>
      <trkpt lat="44.81315" lon="-0.48182">
        <ele>69</ele>
        <time>2012-10-14T13:24:32Z</time>
      </trkpt>
      <trkpt lat="44.81272" lon="-0.48189">
        <ele>71</ele>
        <time>2012-10-14T13:24:42Z</time>
      </trkpt>
      <trkpt lat="44.81265" lon="-0.48186">
        <ele>71</ele>
        <time>2012-10-14T13:24:44Z</time>
      </trkpt>
      <trkpt lat="44.81262" lon="-0.48182">
        <ele>71</ele>
        <time>2012-10-14T13:24:45Z</time>
      </trkpt>
      <trkpt lat="44.8126" lon="-0.48178">
        <ele>71</ele>
        <time>2012-10-14T13:24:46Z</time>
      </trkpt>
      <trkpt lat="44.81259" lon="-0.48175">
        <ele>71</ele>
        <time>2012-10-14T13:24:47Z</time>
      </trkpt>
      <trkpt lat="44.81258" lon="-0.48171">
        <ele>71</ele>
        <time>2012-10-14T13:24:48Z</time>
      </trkpt>
      <trkpt lat="44.81257" lon="-0.48168">
        <ele>71</ele>
        <time>2012-10-14T13:24:49Z</time>
      </trkpt>
      <trkpt lat="44.81256" lon="-0.48164">
        <ele>71</ele>
        <time>2012-10-14T13:24:50Z</time>
      </trkpt>
      <trkpt lat="44.81249" lon="-0.48141">
        <ele>72</ele>
        <time>2012-10-14T13:24:57Z</time>
      </trkpt>
      <trkpt lat="44.81241" lon="-0.48119">
        <ele>72</ele>
        <time>2012-10-14T13:25:04Z</time>
      </trkpt>
      <trkpt lat="44.81239" lon="-0.48116">
        <ele>72</ele>
        <time>2012-10-14T13:25:05Z</time>
      </trkpt>
      <trkpt lat="44.81237" lon="-0.48112">
        <ele>72</ele>
        <time>2012-10-14T13:25:06Z</time>
      </trkpt>
      <trkpt lat="44.81221" lon="-0.48061">
        <ele>73</ele>
        <time>2012-10-14T13:25:18Z</time>
      </trkpt>
      <trkpt lat="44.81203" lon="-0.4805">
        <ele>73</ele>
        <time>2012-10-14T13:25:24Z</time>
      </trkpt>
      <trkpt lat="44.81168" lon="-0.48048">
        <ele>73</ele>
        <time>2012-10-14T13:25:33Z</time>
      </trkpt>
      <trkpt lat="44.81129" lon="-0.48048">
        <ele>73</ele>
        <time>2012-10-14T13:25:44Z</time>
      </trkpt>
      <trkpt lat="44.81114" lon="-0.48051">
        <ele>72</ele>
        <time>2012-10-14T13:25:49Z</time>
      </trkpt>
      <trkpt lat="44.81112" lon="-0.48053">
        <ele>72</ele>
        <time>2012-10-14T13:25:50Z</time>
      </trkpt>
      <trkpt lat="44.81111" lon="-0.48056">
        <ele>72</ele>
        <time>2012-10-14T13:25:51Z</time>
      </trkpt>
      <trkpt lat="44.8111" lon="-0.48059">
        <ele>72</ele>
        <time>2012-10-14T13:25:52Z</time>
      </trkpt>
      <trkpt lat="44.8111" lon="-0.48063">
        <ele>72</ele>
        <time>2012-10-14T13:25:53Z</time>
      </trkpt>
      <trkpt lat="44.81107" lon="-0.4811">
        <ele>71</ele>
        <time>2012-10-14T13:26:03Z</time>
      </trkpt>
      <trkpt lat="44.81106" lon="-0.48135">
        <ele>72</ele>
        <time>2012-10-14T13:26:08Z</time>
      </trkpt>
      <trkpt lat="44.81107" lon="-0.4817">
        <ele>73</ele>
        <time>2012-10-14T13:26:15Z</time>
      </trkpt>
      <trkpt lat="44.81107" lon="-0.48175">
        <ele>74</ele>
        <time>2012-10-14T13:26:16Z</time>
      </trkpt>
      <trkpt lat="44.81109" lon="-0.48237">
        <ele>76</ele>
        <time>2012-10-14T13:26:30Z</time>
      </trkpt>
      <trkpt lat="44.81114" lon="-0.48295">
        <ele>77</ele>
        <time>2012-10-14T13:26:42Z</time>
      </trkpt>
      <trkpt lat="44.81119" lon="-0.48347">
        <ele>77</ele>
        <time>2012-10-14T13:26:54Z</time>
      </trkpt>
      <trkpt lat="44.81119" lon="-0.48371">
        <ele>77</ele>
        <time>2012-10-14T13:27:00Z</time>
      </trkpt>
      <trkpt lat="44.81117" lon="-0.48375">
        <ele>77</ele>
        <time>2012-10-14T13:27:01Z</time>
      </trkpt>
      <trkpt lat="44.81114" lon="-0.48377">
        <ele>77</ele>
        <time>2012-10-14T13:27:02Z</time>
      </trkpt>
      <trkpt lat="44.81111" lon="-0.48379">
        <ele>77</ele>
        <time>2012-10-14T13:27:03Z</time>
      </trkpt>
      <trkpt lat="44.81108" lon="-0.4838">
        <ele>76</ele>
        <time>2012-10-14T13:27:04Z</time>
      </trkpt>
      <trkpt lat="44.81103" lon="-0.4838">
        <ele>76</ele>
        <time>2012-10-14T13:27:05Z</time>
      </trkpt>
      <trkpt lat="44.81069" lon="-0.48386">
        <ele>75</ele>
        <time>2012-10-14T13:27:16Z</time>
      </trkpt>
      <trkpt lat="44.81067" lon="-0.48389">
        <ele>75</ele>
        <time>2012-10-14T13:27:17Z</time>
      </trkpt>
      <trkpt lat="44.81066" lon="-0.48393">
        <ele>75</ele>
        <time>2012-10-14T13:27:18Z</time>
      </trkpt>
      <trkpt lat="44.81066" lon="-0.48397">
        <ele>75</ele>
        <time>2012-10-14T13:27:19Z</time>
      </trkpt>
      <trkpt lat="44.81066" lon="-0.48402">
        <ele>74</ele>
        <time>2012-10-14T13:27:20Z</time>
      </trkpt>
      <trkpt lat="44.81067" lon="-0.48406">
        <ele>74</ele>
        <time>2012-10-14T13:27:21Z</time>
      </trkpt>
      <trkpt lat="44.81067" lon="-0.48412">
        <ele>74</ele>
        <time>2012-10-14T13:27:22Z</time>
      </trkpt>
      <trkpt lat="44.81067" lon="-0.48419">
        <ele>74</ele>
        <time>2012-10-14T13:27:23Z</time>
      </trkpt>
      <trkpt lat="44.81066" lon="-0.48426">
        <ele>74</ele>
        <time>2012-10-14T13:27:24Z</time>
      </trkpt>
      <trkpt lat="44.81065" lon="-0.48433">
        <ele>73</ele>
        <time>2012-10-14T13:27:25Z</time>
      </trkpt>
      <trkpt lat="44.81064" lon="-0.48439">
        <ele>73</ele>
        <time>2012-10-14T13:27:26Z</time>
      </trkpt>
      <trkpt lat="44.81063" lon="-0.48445">
        <ele>73</ele>
        <time>2012-10-14T13:27:27Z</time>
      </trkpt>
      <trkpt lat="44.81061" lon="-0.48458">
        <ele>72</ele>
        <time>2012-10-14T13:27:29Z</time>
      </trkpt>
      <trkpt lat="44.81059" lon="-0.48463">
        <ele>71</ele>
        <time>2012-10-14T13:27:30Z</time>
      </trkpt>
      <trkpt lat="44.81055" lon="-0.48468">
        <ele>71</ele>
        <time>2012-10-14T13:27:31Z</time>
      </trkpt>
      <trkpt lat="44.81051" lon="-0.48472">
        <ele>70</ele>
        <time>2012-10-14T13:27:32Z</time>
      </trkpt>
      <trkpt lat="44.81045" lon="-0.48475">
        <ele>69</ele>
        <time>2012-10-14T13:27:33Z</time>
      </trkpt>
      <trkpt lat="44.81039" lon="-0.48478">
        <ele>68</ele>
        <time>2012-10-14T13:27:34Z</time>
      </trkpt>
      <trkpt lat="44.81033" lon="-0.48481">
        <ele>67</ele>
        <time>2012-10-14T13:27:35Z</time>
      </trkpt>
      <trkpt lat="44.81016" lon="-0.48489">
        <ele>66</ele>
        <time>2012-10-14T13:27:38Z</time>
      </trkpt>
      <trkpt lat="44.8101" lon="-0.48493">
        <ele>65</ele>
        <time>2012-10-14T13:27:39Z</time>
      </trkpt>
      <trkpt lat="44.81004" lon="-0.48496">
        <ele>65</ele>
        <time>2012-10-14T13:27:40Z</time>
      </trkpt>
      <trkpt lat="44.80999" lon="-0.48498">
        <ele>64</ele>
        <time>2012-10-14T13:27:41Z</time>
      </trkpt>
      <trkpt lat="44.80993" lon="-0.485">
        <ele>64</ele>
        <time>2012-10-14T13:27:42Z</time>
      </trkpt>
      <trkpt lat="44.80966" lon="-0.48504">
        <ele>61</ele>
        <time>2012-10-14T13:27:49Z</time>
      </trkpt>
      <trkpt lat="44.80943" lon="-0.48497">
        <ele>60</ele>
        <time>2012-10-14T13:27:58Z</time>
      </trkpt>
      <trkpt lat="44.80923" lon="-0.48491">
        <ele>57</ele>
        <time>2012-10-14T13:28:04Z</time>
      </trkpt>
      <trkpt lat="44.80912" lon="-0.48491">
        <ele>55</ele>
        <time>2012-10-14T13:28:06Z</time>
      </trkpt>
      <trkpt lat="44.80907" lon="-0.48492">
        <ele>54</ele>
        <time>2012-10-14T13:28:07Z</time>
      </trkpt>
      <trkpt lat="44.80901" lon="-0.48494">
        <ele>53</ele>
        <time>2012-10-14T13:28:08Z</time>
      </trkpt>
      <trkpt lat="44.80884" lon="-0.485">
        <ele>51</ele>
        <time>2012-10-14T13:28:11Z</time>
      </trkpt>
      <trkpt lat="44.80863" lon="-0.48503">
        <ele>49</ele>
        <time>2012-10-14T13:28:14Z</time>
      </trkpt>
      <trkpt lat="44.80847" lon="-0.48503">
        <ele>48</ele>
        <time>2012-10-14T13:28:16Z</time>
      </trkpt>
      <trkpt lat="44.8084" lon="-0.48504">
        <ele>47</ele>
        <time>2012-10-14T13:28:17Z</time>
      </trkpt>
      <trkpt lat="44.80834" lon="-0.48504">
        <ele>47</ele>
        <time>2012-10-14T13:28:18Z</time>
      </trkpt>
      <trkpt lat="44.80828" lon="-0.48505">
        <ele>47</ele>
        <time>2012-10-14T13:28:19Z</time>
      </trkpt>
      <trkpt lat="44.80824" lon="-0.48507">
        <ele>47</ele>
        <time>2012-10-14T13:28:20Z</time>
      </trkpt>
      <trkpt lat="44.80818" lon="-0.4851">
        <ele>47</ele>
        <time>2012-10-14T13:28:21Z</time>
      </trkpt>
      <trkpt lat="44.80813" lon="-0.48514">
        <ele>47</ele>
        <time>2012-10-14T13:28:22Z</time>
      </trkpt>
      <trkpt lat="44.80809" lon="-0.48519">
        <ele>46</ele>
        <time>2012-10-14T13:28:23Z</time>
      </trkpt>
      <trkpt lat="44.80798" lon="-0.48532">
        <ele>46</ele>
        <time>2012-10-14T13:28:26Z</time>
      </trkpt>
      <trkpt lat="44.80783" lon="-0.48559">
        <ele>46</ele>
        <time>2012-10-14T13:28:33Z</time>
      </trkpt>
      <trkpt lat="44.8078" lon="-0.48562">
        <ele>46</ele>
        <time>2012-10-14T13:28:41Z</time>
      </trkpt>
      <trkpt lat="44.8078" lon="-0.48563">
        <ele>46</ele>
        <time>2012-10-14T13:28:55Z</time>
      </trkpt>
      <trkpt lat="44.80778" lon="-0.48567">
        <ele>46</ele>
        <time>2012-10-14T13:29:00Z</time>
      </trkpt>
      <trkpt lat="44.80777" lon="-0.48569">
        <ele>46</ele>
        <time>2012-10-14T13:29:01Z</time>
      </trkpt>
      <trkpt lat="44.80776" lon="-0.48571">
        <ele>46</ele>
        <time>2012-10-14T13:29:02Z</time>
      </trkpt>
      <trkpt lat="44.80762" lon="-0.48594">
        <ele>45</ele>
        <time>2012-10-14T13:29:09Z</time>
      </trkpt>
      <trkpt lat="44.80745" lon="-0.48605">
        <ele>44</ele>
        <time>2012-10-14T13:29:15Z</time>
      </trkpt>
      <trkpt lat="44.80744" lon="-0.48606">
        <ele>44</ele>
        <time>2012-10-14T13:29:16Z</time>
      </trkpt>
      <trkpt lat="44.80729" lon="-0.48611">
        <ele>44</ele>
        <time>2012-10-14T13:29:23Z</time>
      </trkpt>
      <trkpt lat="44.80719" lon="-0.48616">
        <ele>43</ele>
        <time>2012-10-14T13:29:25Z</time>
      </trkpt>
      <trkpt lat="44.80715" lon="-0.48617">
        <ele>43</ele>
        <time>2012-10-14T13:29:26Z</time>
      </trkpt>
      <trkpt lat="44.80711" lon="-0.48619">
        <ele>43</ele>
        <time>2012-10-14T13:29:27Z</time>
      </trkpt>
      <trkpt lat="44.80708" lon="-0.48621">
        <ele>43</ele>
        <time>2012-10-14T13:29:28Z</time>
      </trkpt>
      <trkpt lat="44.80705" lon="-0.48623">
        <ele>43</ele>
        <time>2012-10-14T13:29:29Z</time>
      </trkpt>
      <trkpt lat="44.80703" lon="-0.48626">
        <ele>43</ele>
        <time>2012-10-14T13:29:30Z</time>
      </trkpt>
      <trkpt lat="44.80701" lon="-0.48629">
        <ele>43</ele>
        <time>2012-10-14T13:29:31Z</time>
      </trkpt>
      <trkpt lat="44.807" lon="-0.48633">
        <ele>43</ele>
        <time>2012-10-14T13:29:33Z</time>
      </trkpt>
      <trkpt lat="44.80698" lon="-0.48634">
        <ele>43</ele>
        <time>2012-10-14T13:29:34Z</time>
      </trkpt>
      <trkpt lat="44.80696" lon="-0.48635">
        <ele>43</ele>
        <time>2012-10-14T13:29:35Z</time>
      </trkpt>
      <trkpt lat="44.80695" lon="-0.48636">
        <ele>43</ele>
        <time>2012-10-14T13:29:36Z</time>
      </trkpt>
      <trkpt lat="44.80694" lon="-0.48637">
        <ele>44</ele>
        <time>2012-10-14T13:29:37Z</time>
      </trkpt>
      <trkpt lat="44.80692" lon="-0.48638">
        <ele>44</ele>
        <time>2012-10-14T13:29:38Z</time>
      </trkpt>
      <trkpt lat="44.80688" lon="-0.48641">
        <ele>44</ele>
        <time>2012-10-14T13:29:41Z</time>
      </trkpt>
      <trkpt lat="44.8068" lon="-0.48647">
        <ele>46</ele>
        <time>2012-10-14T13:29:49Z</time>
      </trkpt>
      <trkpt lat="44.80674" lon="-0.48652">
        <ele>47</ele>
        <time>2012-10-14T13:29:54Z</time>
      </trkpt>
      <trkpt lat="44.80665" lon="-0.48659">
        <ele>48</ele>
        <time>2012-10-14T13:30:01Z</time>
      </trkpt>
      <trkpt lat="44.80659" lon="-0.48662">
        <ele>49</ele>
        <time>2012-10-14T13:30:10Z</time>
      </trkpt>
      <trkpt lat="44.80646" lon="-0.48672">
        <ele>51</ele>
        <time>2012-10-14T13:30:19Z</time>
      </trkpt>
      <trkpt lat="44.80636" lon="-0.48677">
        <ele>52</ele>
        <time>2012-10-14T13:30:24Z</time>
      </trkpt>
      <trkpt lat="44.80628" lon="-0.48681">
        <ele>53</ele>
        <time>2012-10-14T13:30:28Z</time>
      </trkpt>
      <trkpt lat="44.80626" lon="-0.48683">
        <ele>53</ele>
        <time>2012-10-14T13:30:29Z</time>
      </trkpt>
      <trkpt lat="44.80624" lon="-0.48684">
        <ele>53</ele>
        <time>2012-10-14T13:30:30Z</time>
      </trkpt>
      <trkpt lat="44.80622" lon="-0.48685">
        <ele>54</ele>
        <time>2012-10-14T13:30:31Z</time>
      </trkpt>
      <trkpt lat="44.80621" lon="-0.48686">
        <ele>54</ele>
        <time>2012-10-14T13:30:32Z</time>
      </trkpt>
      <trkpt lat="44.80619" lon="-0.48686">
        <ele>54</ele>
        <time>2012-10-14T13:30:33Z</time>
      </trkpt>
      <trkpt lat="44.80618" lon="-0.48687">
        <ele>54</ele>
        <time>2012-10-14T13:30:34Z</time>
      </trkpt>
      <trkpt lat="44.80601" lon="-0.48694">
        <ele>56</ele>
        <time>2012-10-14T13:30:44Z</time>
      </trkpt>
      <trkpt lat="44.806" lon="-0.48695">
        <ele>56</ele>
        <time>2012-10-14T13:30:45Z</time>
      </trkpt>
      <trkpt lat="44.8059" lon="-0.48701">
        <ele>57</ele>
        <time>2012-10-14T13:30:53Z</time>
      </trkpt>
      <trkpt lat="44.80567" lon="-0.4871">
        <ele>59</ele>
        <time>2012-10-14T13:31:06Z</time>
      </trkpt>
      <trkpt lat="44.8055" lon="-0.48717">
        <ele>61</ele>
        <time>2012-10-14T13:31:16Z</time>
      </trkpt>
      <trkpt lat="44.80534" lon="-0.48726">
        <ele>63</ele>
        <time>2012-10-14T13:31:27Z</time>
      </trkpt>
      <trkpt lat="44.80524" lon="-0.48735">
        <ele>63</ele>
        <time>2012-10-14T13:31:39Z</time>
      </trkpt>
      <trkpt lat="44.80523" lon="-0.48738">
        <ele>63</ele>
        <time>2012-10-14T13:31:56Z</time>
      </trkpt>
      <trkpt lat="44.80523" lon="-0.48738">
        <ele>63</ele>
        <time>2012-10-14T13:32:12Z</time>
      </trkpt>
      <trkpt lat="44.80524" lon="-0.48738">
        <ele>63</ele>
        <time>2012-10-14T13:32:31Z</time>
      </trkpt>
      <trkpt lat="44.80524" lon="-0.48738">
        <ele>63</ele>
        <time>2012-10-14T13:32:42Z</time>
      </trkpt>
      <trkpt lat="44.80524" lon="-0.48737">
        <ele>63</ele>
        <time>2012-10-14T13:33:06Z</time>
      </trkpt>
      <trkpt lat="44.80524" lon="-0.48737">
        <ele>63</ele>
        <time>2012-10-14T13:33:09Z</time>
      </trkpt>
      <trkpt lat="44.80527" lon="-0.48763">
        <ele>62</ele>
        <time>2012-10-14T13:33:18Z</time>
      </trkpt>
      <trkpt lat="44.80528" lon="-0.48802">
        <ele>62</ele>
        <time>2012-10-14T13:33:27Z</time>
      </trkpt>
      <trkpt lat="44.80524" lon="-0.48827">
        <ele>61</ele>
        <time>2012-10-14T13:33:32Z</time>
      </trkpt>
      <trkpt lat="44.80523" lon="-0.48833">
        <ele>61</ele>
        <time>2012-10-14T13:33:33Z</time>
      </trkpt>
      <trkpt lat="44.80521" lon="-0.48839">
        <ele>61</ele>
        <time>2012-10-14T13:33:34Z</time>
      </trkpt>
      <trkpt lat="44.80493" lon="-0.48902">
        <ele>62</ele>
        <time>2012-10-14T13:33:46Z</time>
      </trkpt>
      <trkpt lat="44.80492" lon="-0.4894">
        <ele>62</ele>
        <time>2012-10-14T13:33:53Z</time>
      </trkpt>
      <trkpt lat="44.8049" lon="-0.48945">
        <ele>62</ele>
        <time>2012-10-14T13:33:54Z</time>
      </trkpt>
      <trkpt lat="44.80488" lon="-0.48949">
        <ele>62</ele>
        <time>2012-10-14T13:33:55Z</time>
      </trkpt>
      <trkpt lat="44.80484" lon="-0.48952">
        <ele>62</ele>
        <time>2012-10-14T13:33:56Z</time>
      </trkpt>
      <trkpt lat="44.80481" lon="-0.48954">
        <ele>62</ele>
        <time>2012-10-14T13:33:57Z</time>
      </trkpt>
      <trkpt lat="44.80449" lon="-0.48969">
        <ele>61</ele>
        <time>2012-10-14T13:34:07Z</time>
      </trkpt>
      <trkpt lat="44.80447" lon="-0.48969">
        <ele>61</ele>
        <time>2012-10-14T13:34:08Z</time>
      </trkpt>
      <trkpt lat="44.80444" lon="-0.48967">
        <ele>61</ele>
        <time>2012-10-14T13:34:09Z</time>
      </trkpt>
      <trkpt lat="44.80442" lon="-0.48965">
        <ele>61</ele>
        <time>2012-10-14T13:34:10Z</time>
      </trkpt>
      <trkpt lat="44.80441" lon="-0.48962">
        <ele>61</ele>
        <time>2012-10-14T13:34:11Z</time>
      </trkpt>
      <trkpt lat="44.8044" lon="-0.48959">
        <ele>61</ele>
        <time>2012-10-14T13:34:12Z</time>
      </trkpt>
      <trkpt lat="44.80433" lon="-0.4893">
        <ele>61</ele>
        <time>2012-10-14T13:34:21Z</time>
      </trkpt>
      <trkpt lat="44.80418" lon="-0.48891">
        <ele>61</ele>
        <time>2012-10-14T13:34:29Z</time>
      </trkpt>
      <trkpt lat="44.80403" lon="-0.48875">
        <ele>60</ele>
        <time>2012-10-14T13:34:34Z</time>
      </trkpt>
      <trkpt lat="44.80384" lon="-0.48881">
        <ele>58</ele>
        <time>2012-10-14T13:34:38Z</time>
      </trkpt>
      <trkpt lat="44.80355" lon="-0.48895">
        <ele>55</ele>
        <time>2012-10-14T13:34:44Z</time>
      </trkpt>
      <trkpt lat="44.80335" lon="-0.48904">
        <ele>52</ele>
        <time>2012-10-14T13:34:48Z</time>
      </trkpt>
      <trkpt lat="44.8032" lon="-0.48911">
        <ele>51</ele>
        <time>2012-10-14T13:34:51Z</time>
      </trkpt>
      <trkpt lat="44.80295" lon="-0.48913">
        <ele>48</ele>
        <time>2012-10-14T13:34:57Z</time>
      </trkpt>
      <trkpt lat="44.80265" lon="-0.48927">
        <ele>45</ele>
        <time>2012-10-14T13:35:03Z</time>
      </trkpt>
      <trkpt lat="44.80261" lon="-0.48929">
        <ele>44</ele>
        <time>2012-10-14T13:35:04Z</time>
      </trkpt>
      <trkpt lat="44.80245" lon="-0.48938">
        <ele>41</ele>
        <time>2012-10-14T13:35:08Z</time>
      </trkpt>
      <trkpt lat="44.80227" lon="-0.4895">
        <ele>38</ele>
        <time>2012-10-14T13:35:13Z</time>
      </trkpt>
      <trkpt lat="44.8022" lon="-0.48956">
        <ele>36</ele>
        <time>2012-10-14T13:35:16Z</time>
      </trkpt>
      <trkpt lat="44.80212" lon="-0.48943">
        <ele>35</ele>
        <time>2012-10-14T13:35:21Z</time>
      </trkpt>
      <trkpt lat="44.80207" lon="-0.48926">
        <ele>36</ele>
        <time>2012-10-14T13:35:24Z</time>
      </trkpt>
      <trkpt lat="44.80186" lon="-0.48915">
        <ele>34</ele>
        <time>2012-10-14T13:35:30Z</time>
      </trkpt>
      <trkpt lat="44.80178" lon="-0.4892">
        <ele>33</ele>
        <time>2012-10-14T13:35:32Z</time>
      </trkpt>
      <trkpt lat="44.80163" lon="-0.48936">
        <ele>32</ele>
        <time>2012-10-14T13:35:40Z</time>
      </trkpt>
      <trkpt lat="44.80145" lon="-0.48956">
        <ele>34</ele>
        <time>2012-10-14T13:35:48Z</time>
      </trkpt>
      <trkpt lat="44.80126" lon="-0.48971">
        <ele>36</ele>
        <time>2012-10-14T13:35:56Z</time>
      </trkpt>
      <trkpt lat="44.80117" lon="-0.4898">
        <ele>37</ele>
        <time>2012-10-14T13:36:01Z</time>
      </trkpt>
      <trkpt lat="44.80091" lon="-0.48996">
        <ele>39</ele>
        <time>2012-10-14T13:36:12Z</time>
      </trkpt>
      <trkpt lat="44.80072" lon="-0.49003">
        <ele>40</ele>
        <time>2012-10-14T13:36:22Z</time>
      </trkpt>
      <trkpt lat="44.80063" lon="-0.49008">
        <ele>41</ele>
        <time>2012-10-14T13:36:27Z</time>
      </trkpt>
      <trkpt lat="44.80035" lon="-0.49009">
        <ele>43</ele>
        <time>2012-10-14T13:36:40Z</time>
      </trkpt>
      <trkpt lat="44.80014" lon="-0.49011">
        <ele>45</ele>
        <time>2012-10-14T13:36:50Z</time>
      </trkpt>
      <trkpt lat="44.79985" lon="-0.4902">
        <ele>46</ele>
        <time>2012-10-14T13:37:04Z</time>
      </trkpt>
      <trkpt lat="44.79964" lon="-0.49029">
        <ele>47</ele>
        <time>2012-10-14T13:37:16Z</time>
      </trkpt>
      <trkpt lat="44.79961" lon="-0.49029">
        <ele>47</ele>
        <time>2012-10-14T13:37:25Z</time>
      </trkpt>
      <trkpt lat="44.79961" lon="-0.49029">
        <ele>47</ele>
        <time>2012-10-14T13:37:35Z</time>
      </trkpt>
      <trkpt lat="44.7996" lon="-0.49029">
        <ele>47</ele>
        <time>2012-10-14T13:37:51Z</time>
      </trkpt>
      <trkpt lat="44.7996" lon="-0.49028">
        <ele>47</ele>
        <time>2012-10-14T13:38:11Z</time>
      </trkpt>
      <trkpt lat="44.7996" lon="-0.49028">
        <ele>47</ele>
        <time>2012-10-14T13:38:25Z</time>
      </trkpt>
      <trkpt lat="44.79959" lon="-0.49027">
        <ele>47</ele>
        <time>2012-10-14T13:38:44Z</time>
      </trkpt>
      <trkpt lat="44.79959" lon="-0.49026">
        <ele>48</ele>
        <time>2012-10-14T13:39:01Z</time>
      </trkpt>
      <trkpt lat="44.7996" lon="-0.49027">
        <ele>47</ele>
        <time>2012-10-14T13:39:15Z</time>
      </trkpt>
      <trkpt lat="44.79959" lon="-0.49026">
        <ele>47</ele>
        <time>2012-10-14T13:39:31Z</time>
      </trkpt>
      <trkpt lat="44.79959" lon="-0.49026">
        <ele>48</ele>
        <time>2012-10-14T13:39:53Z</time>
      </trkpt>
      <trkpt lat="44.79958" lon="-0.49024">
        <ele>48</ele>
        <time>2012-10-14T13:40:04Z</time>
      </trkpt>
      <trkpt lat="44.79955" lon="-0.49017">
        <ele>48</ele>
        <time>2012-10-14T13:40:09Z</time>
      </trkpt>
      <trkpt lat="44.79946" lon="-0.48976">
        <ele>49</ele>
        <time>2012-10-14T13:40:21Z</time>
      </trkpt>
      <trkpt lat="44.79936" lon="-0.48935">
        <ele>50</ele>
        <time>2012-10-14T13:40:33Z</time>
      </trkpt>
      <trkpt lat="44.7993" lon="-0.48901">
        <ele>51</ele>
        <time>2012-10-14T13:40:42Z</time>
      </trkpt>
      <trkpt lat="44.79926" lon="-0.48882">
        <ele>51</ele>
        <time>2012-10-14T13:40:48Z</time>
      </trkpt>
      <trkpt lat="44.79918" lon="-0.48864">
        <ele>51</ele>
        <time>2012-10-14T13:40:55Z</time>
      </trkpt>
      <trkpt lat="44.799" lon="-0.48834">
        <ele>52</ele>
        <time>2012-10-14T13:41:05Z</time>
      </trkpt>
      <trkpt lat="44.79873" lon="-0.48779">
        <ele>52</ele>
        <time>2012-10-14T13:41:19Z</time>
      </trkpt>
      <trkpt lat="44.79865" lon="-0.48766">
        <ele>52</ele>
        <time>2012-10-14T13:41:22Z</time>
      </trkpt>
      <trkpt lat="44.79859" lon="-0.48757">
        <ele>52</ele>
        <time>2012-10-14T13:41:24Z</time>
      </trkpt>
      <trkpt lat="44.79855" lon="-0.48752">
        <ele>52</ele>
        <time>2012-10-14T13:41:25Z</time>
      </trkpt>
      <trkpt lat="44.79852" lon="-0.48748">
        <ele>52</ele>
        <time>2012-10-14T13:41:26Z</time>
      </trkpt>
      <trkpt lat="44.79848" lon="-0.48743">
        <ele>52</ele>
        <time>2012-10-14T13:41:27Z</time>
      </trkpt>
      <trkpt lat="44.79844" lon="-0.4874">
        <ele>52</ele>
        <time>2012-10-14T13:41:28Z</time>
      </trkpt>
      <trkpt lat="44.79841" lon="-0.48736">
        <ele>52</ele>
        <time>2012-10-14T13:41:29Z</time>
      </trkpt>
      <trkpt lat="44.79819" lon="-0.48711">
        <ele>53</ele>
        <time>2012-10-14T13:41:37Z</time>
      </trkpt>
      <trkpt lat="44.79809" lon="-0.48694">
        <ele>53</ele>
        <time>2012-10-14T13:41:41Z</time>
      </trkpt>
      <trkpt lat="44.79791" lon="-0.4867">
        <ele>55</ele>
        <time>2012-10-14T13:41:48Z</time>
      </trkpt>
      <trkpt lat="44.79763" lon="-0.48627">
        <ele>56</ele>
        <time>2012-10-14T13:41:59Z</time>
      </trkpt>
      <trkpt lat="44.79741" lon="-0.48592">
        <ele>57</ele>
        <time>2012-10-14T13:42:08Z</time>
      </trkpt>
      <trkpt lat="44.7972" lon="-0.48551">
        <ele>58</ele>
        <time>2012-10-14T13:42:18Z</time>
      </trkpt>
      <trkpt lat="44.79712" lon="-0.48531">
        <ele>58</ele>
        <time>2012-10-14T13:42:23Z</time>
      </trkpt>
      <trkpt lat="44.7971" lon="-0.48527">
        <ele>58</ele>
        <time>2012-10-14T13:42:24Z</time>
      </trkpt>
      <trkpt lat="44.79708" lon="-0.48523">
        <ele>59</ele>
        <time>2012-10-14T13:42:25Z</time>
      </trkpt>
      <trkpt lat="44.79685" lon="-0.48502">
        <ele>60</ele>
        <time>2012-10-14T13:42:34Z</time>
      </trkpt>
      <trkpt lat="44.79665" lon="-0.48482">
        <ele>61</ele>
        <time>2012-10-14T13:42:41Z</time>
      </trkpt>
      <trkpt lat="44.79642" lon="-0.48446">
        <ele>62</ele>
        <time>2012-10-14T13:42:51Z</time>
      </trkpt>
      <trkpt lat="44.79617" lon="-0.48409">
        <ele>63</ele>
        <time>2012-10-14T13:43:03Z</time>
      </trkpt>
      <trkpt lat="44.79605" lon="-0.4839">
        <ele>63</ele>
        <time>2012-10-14T13:43:14Z</time>
      </trkpt>
      <trkpt lat="44.79598" lon="-0.4838">
        <ele>63</ele>
        <time>2012-10-14T13:43:21Z</time>
      </trkpt>
      <trkpt lat="44.79598" lon="-0.48379">
        <ele>63</ele>
        <time>2012-10-14T13:43:22Z</time>
      </trkpt>
      <trkpt lat="44.79596" lon="-0.48378">
        <ele>63</ele>
        <time>2012-10-14T13:43:32Z</time>
      </trkpt>
      <trkpt lat="44.79596" lon="-0.48377">
        <ele>63</ele>
        <time>2012-10-14T13:43:47Z</time>
      </trkpt>
      <trkpt lat="44.79596" lon="-0.48377">
        <ele>63</ele>
        <time>2012-10-14T13:44:03Z</time>
      </trkpt>
      <trkpt lat="44.79594" lon="-0.48376">
        <ele>63</ele>
        <time>2012-10-14T13:44:13Z</time>
      </trkpt>
      <trkpt lat="44.79592" lon="-0.48375">
        <ele>63</ele>
        <time>2012-10-14T13:44:26Z</time>
      </trkpt>
      <trkpt lat="44.79592" lon="-0.48375">
        <ele>63</ele>
        <time>2012-10-14T13:44:38Z</time>
      </trkpt>
      <trkpt lat="44.79591" lon="-0.48376">
        <ele>63</ele>
        <time>2012-10-14T13:44:50Z</time>
      </trkpt>
      <trkpt lat="44.79592" lon="-0.48374">
        <ele>63</ele>
        <time>2012-10-14T13:44:52Z</time>
      </trkpt>
      <trkpt lat="44.79591" lon="-0.48371">
        <ele>63</ele>
        <time>2012-10-14T13:44:59Z</time>
      </trkpt>
      <trkpt lat="44.79583" lon="-0.48352">
        <ele>63</ele>
        <time>2012-10-14T13:45:08Z</time>
      </trkpt>
      <trkpt lat="44.7958" lon="-0.4831">
        <ele>62</ele>
        <time>2012-10-14T13:45:18Z</time>
      </trkpt>
      <trkpt lat="44.7958" lon="-0.48267">
        <ele>61</ele>
        <time>2012-10-14T13:45:27Z</time>
      </trkpt>
      <trkpt lat="44.79585" lon="-0.4821">
        <ele>61</ele>
        <time>2012-10-14T13:45:38Z</time>
      </trkpt>
      <trkpt lat="44.79592" lon="-0.48159">
        <ele>60</ele>
        <time>2012-10-14T13:45:47Z</time>
      </trkpt>
      <trkpt lat="44.79594" lon="-0.48114">
        <ele>61</ele>
        <time>2012-10-14T13:45:56Z</time>
      </trkpt>
      <trkpt lat="44.79596" lon="-0.48059">
        <ele>62</ele>
        <time>2012-10-14T13:46:07Z</time>
      </trkpt>
      <trkpt lat="44.79595" lon="-0.48001">
        <ele>65</ele>
        <time>2012-10-14T13:46:20Z</time>
      </trkpt>
      <trkpt lat="44.79597" lon="-0.47971">
        <ele>66</ele>
        <time>2012-10-14T13:46:27Z</time>
      </trkpt>
      <trkpt lat="44.79598" lon="-0.47938">
        <ele>69</ele>
        <time>2012-10-14T13:46:35Z</time>
      </trkpt>
      <trkpt lat="44.79604" lon="-0.47907">
        <ele>71</ele>
        <time>2012-10-14T13:46:45Z</time>
      </trkpt>
      <trkpt lat="44.79616" lon="-0.47868">
        <ele>73</ele>
        <time>2012-10-14T13:46:56Z</time>
      </trkpt>
      <trkpt lat="44.79634" lon="-0.47822">
        <ele>75</ele>
        <time>2012-10-14T13:47:08Z</time>
      </trkpt>
      <trkpt lat="44.79655" lon="-0.47805">
        <ele>75</ele>
        <time>2012-10-14T13:47:16Z</time>
      </trkpt>
      <trkpt lat="44.79674" lon="-0.47808">
        <ele>75</ele>
        <time>2012-10-14T13:47:24Z</time>
      </trkpt>
      <trkpt lat="44.79697" lon="-0.4783">
        <ele>76</ele>
        <time>2012-10-14T13:47:35Z</time>
      </trkpt>
      <trkpt lat="44.7972" lon="-0.47846">
        <ele>75</ele>
        <time>2012-10-14T13:47:45Z</time>
      </trkpt>
      <trkpt lat="44.7972" lon="-0.47849">
        <ele>76</ele>
        <time>2012-10-14T13:47:46Z</time>
      </trkpt>
      <trkpt lat="44.79719" lon="-0.47851">
        <ele>76</ele>
        <time>2012-10-14T13:47:47Z</time>
      </trkpt>
      <trkpt lat="44.79718" lon="-0.4785">
        <ele>76</ele>
        <time>2012-10-14T13:47:48Z</time>
      </trkpt>
      <trkpt lat="44.79717" lon="-0.4785">
        <ele>76</ele>
        <time>2012-10-14T13:47:49Z</time>
      </trkpt>
      <trkpt lat="44.79716" lon="-0.4785">
        <ele>76</ele>
        <time>2012-10-14T13:47:50Z</time>
      </trkpt>
      <trkpt lat="44.79715" lon="-0.47849">
        <ele>76</ele>
        <time>2012-10-14T13:47:51Z</time>
      </trkpt>
      <trkpt lat="44.79709" lon="-0.47848">
        <ele>76</ele>
        <time>2012-10-14T13:47:56Z</time>
      </trkpt>
      <trkpt lat="44.79708" lon="-0.47846">
        <ele>76</ele>
        <time>2012-10-14T13:47:57Z</time>
      </trkpt>
      <trkpt lat="44.79709" lon="-0.47844">
        <ele>76</ele>
        <time>2012-10-14T13:47:58Z</time>
      </trkpt>
      <trkpt lat="44.7971" lon="-0.47842">
        <ele>76</ele>
        <time>2012-10-14T13:47:59Z</time>
      </trkpt>
      <trkpt lat="44.79713" lon="-0.4784">
        <ele>76</ele>
        <time>2012-10-14T13:48:00Z</time>
      </trkpt>
      <trkpt lat="44.79716" lon="-0.4784">
        <ele>76</ele>
        <time>2012-10-14T13:48:01Z</time>
      </trkpt>
      <trkpt lat="44.79719" lon="-0.47841">
        <ele>75</ele>
        <time>2012-10-14T13:48:02Z</time>
      </trkpt>
      <trkpt lat="44.79721" lon="-0.47842">
        <ele>75</ele>
        <time>2012-10-14T13:48:03Z</time>
      </trkpt>
      <trkpt lat="44.79756" lon="-0.47858">
        <ele>75</ele>
        <time>2012-10-14T13:48:15Z</time>
      </trkpt>
      <trkpt lat="44.79771" lon="-0.47868">
        <ele>74</ele>
        <time>2012-10-14T13:48:19Z</time>
      </trkpt>
      <trkpt lat="44.79775" lon="-0.47869">
        <ele>74</ele>
        <time>2012-10-14T13:48:20Z</time>
      </trkpt>
      <trkpt lat="44.79779" lon="-0.4787">
        <ele>74</ele>
        <time>2012-10-14T13:48:21Z</time>
      </trkpt>
      <trkpt lat="44.79783" lon="-0.47871">
        <ele>74</ele>
        <time>2012-10-14T13:48:22Z</time>
      </trkpt>
      <trkpt lat="44.79788" lon="-0.47871">
        <ele>73</ele>
        <time>2012-10-14T13:48:23Z</time>
      </trkpt>
      <trkpt lat="44.79851" lon="-0.47877">
        <ele>72</ele>
        <time>2012-10-14T13:48:36Z</time>
      </trkpt>
      <trkpt lat="44.79909" lon="-0.47879">
        <ele>71</ele>
        <time>2012-10-14T13:48:49Z</time>
      </trkpt>
      <trkpt lat="44.79958" lon="-0.47877">
        <ele>71</ele>
        <time>2012-10-14T13:49:00Z</time>
      </trkpt>
      <trkpt lat="44.79986" lon="-0.47876">
        <ele>72</ele>
        <time>2012-10-14T13:49:06Z</time>
      </trkpt>
      <trkpt lat="44.7999" lon="-0.47877">
        <ele>72</ele>
        <time>2012-10-14T13:49:07Z</time>
      </trkpt>
      <trkpt lat="44.80052" lon="-0.47874">
        <ele>72</ele>
        <time>2012-10-14T13:49:21Z</time>
      </trkpt>
      <trkpt lat="44.80056" lon="-0.47873">
        <ele>72</ele>
        <time>2012-10-14T13:49:22Z</time>
      </trkpt>
      <trkpt lat="44.80086" lon="-0.4787">
        <ele>72</ele>
        <time>2012-10-14T13:49:29Z</time>
      </trkpt>
      <trkpt lat="44.80101" lon="-0.47868">
        <ele>72</ele>
        <time>2012-10-14T13:49:33Z</time>
      </trkpt>
      <trkpt lat="44.80156" lon="-0.47855">
        <ele>73</ele>
        <time>2012-10-14T13:49:47Z</time>
      </trkpt>
      <trkpt lat="44.802" lon="-0.47829">
        <ele>73</ele>
        <time>2012-10-14T13:49:59Z</time>
      </trkpt>
      <trkpt lat="44.80247" lon="-0.478">
        <ele>73</ele>
        <time>2012-10-14T13:50:13Z</time>
      </trkpt>
      <trkpt lat="44.80251" lon="-0.47794">
        <ele>73</ele>
        <time>2012-10-14T13:50:15Z</time>
      </trkpt>
      <trkpt lat="44.80251" lon="-0.4779">
        <ele>73</ele>
        <time>2012-10-14T13:50:16Z</time>
      </trkpt>
      <trkpt lat="44.8025" lon="-0.47786">
        <ele>73</ele>
        <time>2012-10-14T13:50:17Z</time>
      </trkpt>
      <trkpt lat="44.80249" lon="-0.47783">
        <ele>73</ele>
        <time>2012-10-14T13:50:18Z</time>
      </trkpt>
      <trkpt lat="44.80247" lon="-0.47779">
        <ele>72</ele>
        <time>2012-10-14T13:50:19Z</time>
      </trkpt>
      <trkpt lat="44.80245" lon="-0.47774">
        <ele>72</ele>
        <time>2012-10-14T13:50:20Z</time>
      </trkpt>
      <trkpt lat="44.80244" lon="-0.47769">
        <ele>72</ele>
        <time>2012-10-14T13:50:21Z</time>
      </trkpt>
      <trkpt lat="44.80231" lon="-0.47727">
        <ele>72</ele>
        <time>2012-10-14T13:50:30Z</time>
      </trkpt>
      <trkpt lat="44.80219" lon="-0.47671">
        <ele>71</ele>
        <time>2012-10-14T13:50:41Z</time>
      </trkpt>
      <trkpt lat="44.80216" lon="-0.4759">
        <ele>70</ele>
        <time>2012-10-14T13:50:54Z</time>
      </trkpt>
      <trkpt lat="44.80212" lon="-0.47518">
        <ele>70</ele>
        <time>2012-10-14T13:51:06Z</time>
      </trkpt>
      <trkpt lat="44.80209" lon="-0.47461">
        <ele>69</ele>
        <time>2012-10-14T13:51:16Z</time>
      </trkpt>
      <trkpt lat="44.80208" lon="-0.47453">
        <ele>68</ele>
        <time>2012-10-14T13:51:19Z</time>
      </trkpt>
      <trkpt lat="44.802" lon="-0.47448">
        <ele>68</ele>
        <time>2012-10-14T13:51:24Z</time>
      </trkpt>
      <trkpt lat="44.80183" lon="-0.47452">
        <ele>67</ele>
        <time>2012-10-14T13:51:31Z</time>
      </trkpt>
      <trkpt lat="44.80169" lon="-0.47454">
        <ele>66</ele>
        <time>2012-10-14T13:51:34Z</time>
      </trkpt>
      <trkpt lat="44.80165" lon="-0.47456">
        <ele>65</ele>
        <time>2012-10-14T13:51:35Z</time>
      </trkpt>
      <trkpt lat="44.80133" lon="-0.47458">
        <ele>62</ele>
        <time>2012-10-14T13:51:41Z</time>
      </trkpt>
      <trkpt lat="44.80098" lon="-0.47463">
        <ele>60</ele>
        <time>2012-10-14T13:51:50Z</time>
      </trkpt>
      <trkpt lat="44.80078" lon="-0.47454">
        <ele>58</ele>
        <time>2012-10-14T13:51:56Z</time>
      </trkpt>
      <trkpt lat="44.80073" lon="-0.47441">
        <ele>57</ele>
        <time>2012-10-14T13:51:59Z</time>
      </trkpt>
      <trkpt lat="44.80058" lon="-0.47388">
        <ele>54</ele>
        <time>2012-10-14T13:52:08Z</time>
      </trkpt>
      <trkpt lat="44.80051" lon="-0.47368">
        <ele>53</ele>
        <time>2012-10-14T13:52:11Z</time>
      </trkpt>
      <trkpt lat="44.80027" lon="-0.47347">
        <ele>51</ele>
        <time>2012-10-14T13:52:17Z</time>
      </trkpt>
      <trkpt lat="44.80017" lon="-0.47344">
        <ele>50</ele>
        <time>2012-10-14T13:52:20Z</time>
      </trkpt>
      <trkpt lat="44.80009" lon="-0.47327">
        <ele>50</ele>
        <time>2012-10-14T13:52:24Z</time>
      </trkpt>
      <trkpt lat="44.80008" lon="-0.4732">
        <ele>49</ele>
        <time>2012-10-14T13:52:25Z</time>
      </trkpt>
      <trkpt lat="44.79996" lon="-0.47294">
        <ele>48</ele>
        <time>2012-10-14T13:52:32Z</time>
      </trkpt>
      <trkpt lat="44.79992" lon="-0.47288">
        <ele>48</ele>
        <time>2012-10-14T13:52:34Z</time>
      </trkpt>
      <trkpt lat="44.79989" lon="-0.47285">
        <ele>48</ele>
        <time>2012-10-14T13:52:36Z</time>
      </trkpt>
      <trkpt lat="44.79988" lon="-0.47284">
        <ele>48</ele>
        <time>2012-10-14T13:52:37Z</time>
      </trkpt>
      <trkpt lat="44.79984" lon="-0.47281">
        <ele>48</ele>
        <time>2012-10-14T13:52:40Z</time>
      </trkpt>
      <trkpt lat="44.79982" lon="-0.47281">
        <ele>48</ele>
        <time>2012-10-14T13:52:41Z</time>
      </trkpt>
      <trkpt lat="44.7998" lon="-0.47281">
        <ele>48</ele>
        <time>2012-10-14T13:52:42Z</time>
      </trkpt>
      <trkpt lat="44.79978" lon="-0.4728">
        <ele>48</ele>
        <time>2012-10-14T13:52:43Z</time>
      </trkpt>
      <trkpt lat="44.79975" lon="-0.47278">
        <ele>48</ele>
        <time>2012-10-14T13:52:45Z</time>
      </trkpt>
      <trkpt lat="44.79974" lon="-0.47277">
        <ele>49</ele>
        <time>2012-10-14T13:52:46Z</time>
      </trkpt>
      <trkpt lat="44.79972" lon="-0.47275">
        <ele>49</ele>
        <time>2012-10-14T13:52:47Z</time>
      </trkpt>
      <trkpt lat="44.79971" lon="-0.47272">
        <ele>49</ele>
        <time>2012-10-14T13:52:48Z</time>
      </trkpt>
      <trkpt lat="44.7997" lon="-0.4727">
        <ele>49</ele>
        <time>2012-10-14T13:52:49Z</time>
      </trkpt>
      <trkpt lat="44.79969" lon="-0.47267">
        <ele>49</ele>
        <time>2012-10-14T13:52:50Z</time>
      </trkpt>
      <trkpt lat="44.79968" lon="-0.47265">
        <ele>49</ele>
        <time>2012-10-14T13:52:51Z</time>
      </trkpt>
      <trkpt lat="44.79966" lon="-0.47263">
        <ele>49</ele>
        <time>2012-10-14T13:52:52Z</time>
      </trkpt>
      <trkpt lat="44.79965" lon="-0.47261">
        <ele>49</ele>
        <time>2012-10-14T13:52:53Z</time>
      </trkpt>
      <trkpt lat="44.79964" lon="-0.47259">
        <ele>49</ele>
        <time>2012-10-14T13:52:54Z</time>
      </trkpt>
      <trkpt lat="44.79962" lon="-0.47257">
        <ele>49</ele>
        <time>2012-10-14T13:52:55Z</time>
      </trkpt>
      <trkpt lat="44.79955" lon="-0.47248">
        <ele>49</ele>
        <time>2012-10-14T13:53:02Z</time>
      </trkpt>
      <trkpt lat="44.79955" lon="-0.47246">
        <ele>49</ele>
        <time>2012-10-14T13:53:03Z</time>
      </trkpt>
      <trkpt lat="44.7995" lon="-0.47228">
        <ele>49</ele>
        <time>2012-10-14T13:53:12Z</time>
      </trkpt>
      <trkpt lat="44.79944" lon="-0.472">
        <ele>49</ele>
        <time>2012-10-14T13:53:22Z</time>
      </trkpt>
      <trkpt lat="44.79936" lon="-0.47164">
        <ele>49</ele>
        <time>2012-10-14T13:53:31Z</time>
      </trkpt>
      <trkpt lat="44.79928" lon="-0.47125">
        <ele>49</ele>
        <time>2012-10-14T13:53:40Z</time>
      </trkpt>
      <trkpt lat="44.79914" lon="-0.47064">
        <ele>47</ele>
        <time>2012-10-14T13:53:51Z</time>
      </trkpt>
      <trkpt lat="44.799" lon="-0.47018">
        <ele>47</ele>
        <time>2012-10-14T13:54:00Z</time>
      </trkpt>
      <trkpt lat="44.79898" lon="-0.47013">
        <ele>47</ele>
        <time>2012-10-14T13:54:01Z</time>
      </trkpt>
      <trkpt lat="44.79887" lon="-0.46986">
        <ele>46</ele>
        <time>2012-10-14T13:54:06Z</time>
      </trkpt>
      <trkpt lat="44.79872" lon="-0.46946">
        <ele>43</ele>
        <time>2012-10-14T13:54:12Z</time>
      </trkpt>
      <trkpt lat="44.79864" lon="-0.46927">
        <ele>42</ele>
        <time>2012-10-14T13:54:15Z</time>
      </trkpt>
      <trkpt lat="44.79862" lon="-0.4692">
        <ele>42</ele>
        <time>2012-10-14T13:54:16Z</time>
      </trkpt>
      <trkpt lat="44.79859" lon="-0.46906">
        <ele>41</ele>
        <time>2012-10-14T13:54:18Z</time>
      </trkpt>
      <trkpt lat="44.79858" lon="-0.469">
        <ele>41</ele>
        <time>2012-10-14T13:54:19Z</time>
      </trkpt>
      <trkpt lat="44.79848" lon="-0.46873">
        <ele>40</ele>
        <time>2012-10-14T13:54:25Z</time>
      </trkpt>
      <trkpt lat="44.79848" lon="-0.46872">
        <ele>39</ele>
        <time>2012-10-14T13:54:33Z</time>
      </trkpt>
      <trkpt lat="44.79848" lon="-0.46871">
        <ele>39</ele>
        <time>2012-10-14T13:54:43Z</time>
      </trkpt>
      <trkpt lat="44.79848" lon="-0.46871">
        <ele>39</ele>
        <time>2012-10-14T13:55:05Z</time>
      </trkpt>
      <trkpt lat="44.79848" lon="-0.4687">
        <ele>39</ele>
        <time>2012-10-14T13:55:22Z</time>
      </trkpt>
      <trkpt lat="44.79847" lon="-0.46859">
        <ele>39</ele>
        <time>2012-10-14T13:55:38Z</time>
      </trkpt>
      <trkpt lat="44.79838" lon="-0.46816">
        <ele>37</ele>
        <time>2012-10-14T13:55:46Z</time>
      </trkpt>
      <trkpt lat="44.7983" lon="-0.46783">
        <ele>35</ele>
        <time>2012-10-14T13:55:50Z</time>
      </trkpt>
      <trkpt lat="44.79827" lon="-0.46774">
        <ele>34</ele>
        <time>2012-10-14T13:55:51Z</time>
      </trkpt>
      <trkpt lat="44.79822" lon="-0.46767">
        <ele>33</ele>
        <time>2012-10-14T13:55:52Z</time>
      </trkpt>
      <trkpt lat="44.79806" lon="-0.46744">
        <ele>31</ele>
        <time>2012-10-14T13:55:55Z</time>
      </trkpt>
      <trkpt lat="44.79796" lon="-0.46729">
        <ele>29</ele>
        <time>2012-10-14T13:55:57Z</time>
      </trkpt>
      <trkpt lat="44.79774" lon="-0.467">
        <ele>25</ele>
        <time>2012-10-14T13:56:01Z</time>
      </trkpt>
      <trkpt lat="44.79754" lon="-0.46674">
        <ele>22</ele>
        <time>2012-10-14T13:56:05Z</time>
      </trkpt>
      <trkpt lat="44.79742" lon="-0.46655">
        <ele>20</ele>
        <time>2012-10-14T13:56:08Z</time>
      </trkpt>
      <trkpt lat="44.79741" lon="-0.46648">
        <ele>20</ele>
        <time>2012-10-14T13:56:09Z</time>
      </trkpt>
      <trkpt lat="44.79742" lon="-0.46642">
        <ele>19</ele>
        <time>2012-10-14T13:56:10Z</time>
      </trkpt>
      <trkpt lat="44.79744" lon="-0.46636">
        <ele>19</ele>
        <time>2012-10-14T13:56:11Z</time>
      </trkpt>
      <trkpt lat="44.79746" lon="-0.46632">
        <ele>19</ele>
        <time>2012-10-14T13:56:12Z</time>
      </trkpt>
      <trkpt lat="44.79749" lon="-0.46628">
        <ele>19</ele>
        <time>2012-10-14T13:56:13Z</time>
      </trkpt>
      <trkpt lat="44.7975" lon="-0.46624">
        <ele>18</ele>
        <time>2012-10-14T13:56:14Z</time>
      </trkpt>
      <trkpt lat="44.7975" lon="-0.46621">
        <ele>18</ele>
        <time>2012-10-14T13:56:15Z</time>
      </trkpt>
      <trkpt lat="44.79748" lon="-0.46618">
        <ele>18</ele>
        <time>2012-10-14T13:56:16Z</time>
      </trkpt>
      <trkpt lat="44.79745" lon="-0.46616">
        <ele>17</ele>
        <time>2012-10-14T13:56:17Z</time>
      </trkpt>
      <trkpt lat="44.79742" lon="-0.46616">
        <ele>17</ele>
        <time>2012-10-14T13:56:18Z</time>
      </trkpt>
      <trkpt lat="44.79738" lon="-0.46617">
        <ele>17</ele>
        <time>2012-10-14T13:56:19Z</time>
      </trkpt>
      <trkpt lat="44.79735" lon="-0.46618">
        <ele>17</ele>
        <time>2012-10-14T13:56:20Z</time>
      </trkpt>
      <trkpt lat="44.79731" lon="-0.46618">
        <ele>17</ele>
        <time>2012-10-14T13:56:21Z</time>
      </trkpt>
      <trkpt lat="44.79684" lon="-0.46621">
        <ele>14</ele>
        <time>2012-10-14T13:56:31Z</time>
      </trkpt>
      <trkpt lat="44.79639" lon="-0.46633">
        <ele>13</ele>
        <time>2012-10-14T13:56:40Z</time>
      </trkpt>
      <trkpt lat="44.79634" lon="-0.46637">
        <ele>13</ele>
        <time>2012-10-14T13:56:41Z</time>
      </trkpt>
      <trkpt lat="44.79581" lon="-0.4668">
        <ele>13</ele>
        <time>2012-10-14T13:56:53Z</time>
      </trkpt>
      <trkpt lat="44.79536" lon="-0.46707">
        <ele>14</ele>
        <time>2012-10-14T13:57:04Z</time>
      </trkpt>
      <trkpt lat="44.7949" lon="-0.46733">
        <ele>15</ele>
        <time>2012-10-14T13:57:15Z</time>
      </trkpt>
      <trkpt lat="44.79456" lon="-0.46748">
        <ele>15</ele>
        <time>2012-10-14T13:57:25Z</time>
      </trkpt>
      <trkpt lat="44.79453" lon="-0.46746">
        <ele>15</ele>
        <time>2012-10-14T13:57:26Z</time>
      </trkpt>
      <trkpt lat="44.79451" lon="-0.46728">
        <ele>16</ele>
        <time>2012-10-14T13:57:32Z</time>
      </trkpt>
      <trkpt lat="44.79481" lon="-0.46706">
        <ele>17</ele>
        <time>2012-10-14T13:57:44Z</time>
      </trkpt>
      <trkpt lat="44.79496" lon="-0.46696">
        <ele>17</ele>
        <time>2012-10-14T13:57:49Z</time>
      </trkpt>
      <trkpt lat="44.79515" lon="-0.46664">
        <ele>19</ele>
        <time>2012-10-14T13:57:58Z</time>
      </trkpt>
      <trkpt lat="44.79529" lon="-0.4663">
        <ele>20</ele>
        <time>2012-10-14T13:58:05Z</time>
      </trkpt>
      <trkpt lat="44.79532" lon="-0.46625">
        <ele>21</ele>
        <time>2012-10-14T13:58:06Z</time>
      </trkpt>
      <trkpt lat="44.79548" lon="-0.46589">
        <ele>21</ele>
        <time>2012-10-14T13:58:13Z</time>
      </trkpt>
      <trkpt lat="44.79556" lon="-0.46571">
        <ele>21</ele>
        <time>2012-10-14T13:58:16Z</time>
      </trkpt>
      <trkpt lat="44.79574" lon="-0.4652">
        <ele>22</ele>
        <time>2012-10-14T13:58:27Z</time>
      </trkpt>
      <trkpt lat="44.79586" lon="-0.46488">
        <ele>24</ele>
        <time>2012-10-14T13:58:35Z</time>
      </trkpt>
      <trkpt lat="44.79619" lon="-0.46469">
        <ele>22</ele>
        <time>2012-10-14T13:58:44Z</time>
      </trkpt>
      <trkpt lat="44.79631" lon="-0.46463">
        <ele>22</ele>
        <time>2012-10-14T13:58:47Z</time>
      </trkpt>
      <trkpt lat="44.79634" lon="-0.46461">
        <ele>22</ele>
        <time>2012-10-14T13:58:48Z</time>
      </trkpt>
      <trkpt lat="44.79638" lon="-0.46458">
        <ele>21</ele>
        <time>2012-10-14T13:58:49Z</time>
      </trkpt>
      <trkpt lat="44.79642" lon="-0.46456">
        <ele>21</ele>
        <time>2012-10-14T13:58:50Z</time>
      </trkpt>
      <trkpt lat="44.79645" lon="-0.46453">
        <ele>21</ele>
        <time>2012-10-14T13:58:51Z</time>
      </trkpt>
      <trkpt lat="44.7967" lon="-0.46443">
        <ele>22</ele>
        <time>2012-10-14T13:58:58Z</time>
      </trkpt>
      <trkpt lat="44.7969" lon="-0.46436">
        <ele>21</ele>
        <time>2012-10-14T13:59:06Z</time>
      </trkpt>
      <trkpt lat="44.79701" lon="-0.46434">
        <ele>21</ele>
        <time>2012-10-14T13:59:15Z</time>
      </trkpt>
      <trkpt lat="44.79702" lon="-0.46435">
        <ele>21</ele>
        <time>2012-10-14T13:59:25Z</time>
      </trkpt>
      <trkpt lat="44.79701" lon="-0.46436">
        <ele>21</ele>
        <time>2012-10-14T13:59:26Z</time>
      </trkpt>
      <trkpt lat="44.79701" lon="-0.46437">
        <ele>20</ele>
        <time>2012-10-14T13:59:27Z</time>
      </trkpt>
      <trkpt lat="44.79699" lon="-0.46437">
        <ele>20</ele>
        <time>2012-10-14T13:59:34Z</time>
      </trkpt>
      <trkpt lat="44.79695" lon="-0.4644">
        <ele>20</ele>
        <time>2012-10-14T13:59:46Z</time>
      </trkpt>
      <trkpt lat="44.7969" lon="-0.4644">
        <ele>20</ele>
        <time>2012-10-14T13:59:56Z</time>
      </trkpt>
      <trkpt lat="44.79691" lon="-0.46439">
        <ele>20</ele>
        <time>2012-10-14T14:00:10Z</time>
      </trkpt>
      <trkpt lat="44.79692" lon="-0.46439">
        <ele>20</ele>
        <time>2012-10-14T14:00:23Z</time>
      </trkpt>
      <trkpt lat="44.79692" lon="-0.46441">
        <ele>20</ele>
        <time>2012-10-14T14:00:40Z</time>
      </trkpt>
      <trkpt lat="44.79694" lon="-0.46441">
        <ele>20</ele>
        <time>2012-10-14T14:00:52Z</time>
      </trkpt>
      <trkpt lat="44.79695" lon="-0.46441">
        <ele>20</ele>
        <time>2012-10-14T14:00:53Z</time>
      </trkpt>
      <trkpt lat="44.79704" lon="-0.46438">
        <ele>20</ele>
        <time>2012-10-14T14:00:59Z</time>
      </trkpt>
      <trkpt lat="44.79707" lon="-0.46437">
        <ele>20</ele>
        <time>2012-10-14T14:01:01Z</time>
      </trkpt>
      <trkpt lat="44.79716" lon="-0.4643">
        <ele>21</ele>
        <time>2012-10-14T14:01:06Z</time>
      </trkpt>
      <trkpt lat="44.79719" lon="-0.46429">
        <ele>21</ele>
        <time>2012-10-14T14:01:07Z</time>
      </trkpt>
      <trkpt lat="44.79721" lon="-0.46428">
        <ele>21</ele>
        <time>2012-10-14T14:01:08Z</time>
      </trkpt>
      <trkpt lat="44.79724" lon="-0.46426">
        <ele>21</ele>
        <time>2012-10-14T14:01:09Z</time>
      </trkpt>
      <trkpt lat="44.79728" lon="-0.46425">
        <ele>21</ele>
        <time>2012-10-14T14:01:10Z</time>
      </trkpt>
      <trkpt lat="44.79731" lon="-0.46422">
        <ele>21</ele>
        <time>2012-10-14T14:01:11Z</time>
      </trkpt>
      <trkpt lat="44.79754" lon="-0.464">
        <ele>21</ele>
        <time>2012-10-14T14:01:19Z</time>
      </trkpt>
      <trkpt lat="44.79759" lon="-0.46391">
        <ele>22</ele>
        <time>2012-10-14T14:01:21Z</time>
      </trkpt>
      <trkpt lat="44.79786" lon="-0.46355">
        <ele>24</ele>
        <time>2012-10-14T14:01:28Z</time>
      </trkpt>
      <trkpt lat="44.79794" lon="-0.46339">
        <ele>24</ele>
        <time>2012-10-14T14:01:33Z</time>
      </trkpt>
      <trkpt lat="44.79794" lon="-0.46336">
        <ele>25</ele>
        <time>2012-10-14T14:01:34Z</time>
      </trkpt>
      <trkpt lat="44.79796" lon="-0.46333">
        <ele>25</ele>
        <time>2012-10-14T14:01:35Z</time>
      </trkpt>
      <trkpt lat="44.79797" lon="-0.46331">
        <ele>25</ele>
        <time>2012-10-14T14:01:36Z</time>
      </trkpt>
      <trkpt lat="44.79799" lon="-0.46328">
        <ele>25</ele>
        <time>2012-10-14T14:01:37Z</time>
      </trkpt>
      <trkpt lat="44.798" lon="-0.46326">
        <ele>25</ele>
        <time>2012-10-14T14:01:38Z</time>
      </trkpt>
      <trkpt lat="44.798" lon="-0.46323">
        <ele>25</ele>
        <time>2012-10-14T14:01:39Z</time>
      </trkpt>
      <trkpt lat="44.79801" lon="-0.46321">
        <ele>25</ele>
        <time>2012-10-14T14:01:40Z</time>
      </trkpt>
      <trkpt lat="44.79802" lon="-0.46317">
        <ele>25</ele>
        <time>2012-10-14T14:01:41Z</time>
      </trkpt>
      <trkpt lat="44.7981" lon="-0.46295">
        <ele>26</ele>
        <time>2012-10-14T14:01:50Z</time>
      </trkpt>
      <trkpt lat="44.7982" lon="-0.46266">
        <ele>25</ele>
        <time>2012-10-14T14:01:59Z</time>
      </trkpt>
      <trkpt lat="44.79823" lon="-0.4626">
        <ele>25</ele>
        <time>2012-10-14T14:02:02Z</time>
      </trkpt>
      <trkpt lat="44.79826" lon="-0.46248">
        <ele>25</ele>
        <time>2012-10-14T14:02:10Z</time>
      </trkpt>
      <trkpt lat="44.7983" lon="-0.46237">
        <ele>25</ele>
        <time>2012-10-14T14:02:27Z</time>
      </trkpt>
      <trkpt lat="44.79832" lon="-0.46229">
        <ele>25</ele>
        <time>2012-10-14T14:02:35Z</time>
      </trkpt>
      <trkpt lat="44.79833" lon="-0.46227">
        <ele>26</ele>
        <time>2012-10-14T14:02:36Z</time>
      </trkpt>
      <trkpt lat="44.79833" lon="-0.46225">
        <ele>26</ele>
        <time>2012-10-14T14:02:37Z</time>
      </trkpt>
      <trkpt lat="44.79834" lon="-0.46222">
        <ele>26</ele>
        <time>2012-10-14T14:02:38Z</time>
      </trkpt>
      <trkpt lat="44.79835" lon="-0.46219">
        <ele>26</ele>
        <time>2012-10-14T14:02:39Z</time>
      </trkpt>
      <trkpt lat="44.79836" lon="-0.46216">
        <ele>26</ele>
        <time>2012-10-14T14:02:40Z</time>
      </trkpt>
      <trkpt lat="44.79837" lon="-0.46214">
        <ele>26</ele>
        <time>2012-10-14T14:02:41Z</time>
      </trkpt>
      <trkpt lat="44.79837" lon="-0.46211">
        <ele>27</ele>
        <time>2012-10-14T14:02:42Z</time>
      </trkpt>
      <trkpt lat="44.79837" lon="-0.46207">
        <ele>27</ele>
        <time>2012-10-14T14:02:43Z</time>
      </trkpt>
      <trkpt lat="44.79838" lon="-0.46203">
        <ele>27</ele>
        <time>2012-10-14T14:02:44Z</time>
      </trkpt>
      <trkpt lat="44.79839" lon="-0.46199">
        <ele>27</ele>
        <time>2012-10-14T14:02:45Z</time>
      </trkpt>
      <trkpt lat="44.79839" lon="-0.46194">
        <ele>27</ele>
        <time>2012-10-14T14:02:46Z</time>
      </trkpt>
      <trkpt lat="44.7984" lon="-0.46184">
        <ele>27</ele>
        <time>2012-10-14T14:02:48Z</time>
      </trkpt>
      <trkpt lat="44.79853" lon="-0.46143">
        <ele>26</ele>
        <time>2012-10-14T14:02:55Z</time>
      </trkpt>
      <trkpt lat="44.79856" lon="-0.46137">
        <ele>25</ele>
        <time>2012-10-14T14:02:56Z</time>
      </trkpt>
      <trkpt lat="44.79875" lon="-0.46101">
        <ele>20</ele>
        <time>2012-10-14T14:03:02Z</time>
      </trkpt>
      <trkpt lat="44.79877" lon="-0.46094">
        <ele>19</ele>
        <time>2012-10-14T14:03:03Z</time>
      </trkpt>
      <trkpt lat="44.79878" lon="-0.46087">
        <ele>19</ele>
        <time>2012-10-14T14:03:04Z</time>
      </trkpt>
      <trkpt lat="44.7988" lon="-0.46052">
        <ele>19</ele>
        <time>2012-10-14T14:03:10Z</time>
      </trkpt>
      <trkpt lat="44.79873" lon="-0.46016">
        <ele>21</ele>
        <time>2012-10-14T14:03:15Z</time>
      </trkpt>
      <trkpt lat="44.79871" lon="-0.4601">
        <ele>21</ele>
        <time>2012-10-14T14:03:16Z</time>
      </trkpt>
      <trkpt lat="44.79868" lon="-0.45996">
        <ele>21</ele>
        <time>2012-10-14T14:03:18Z</time>
      </trkpt>
      <trkpt lat="44.7986" lon="-0.45975">
        <ele>21</ele>
        <time>2012-10-14T14:03:21Z</time>
      </trkpt>
      <trkpt lat="44.79858" lon="-0.45967">
        <ele>21</ele>
        <time>2012-10-14T14:03:22Z</time>
      </trkpt>
      <trkpt lat="44.79856" lon="-0.45961">
        <ele>21</ele>
        <time>2012-10-14T14:03:23Z</time>
      </trkpt>
      <trkpt lat="44.79849" lon="-0.45928">
        <ele>21</ele>
        <time>2012-10-14T14:03:28Z</time>
      </trkpt>
      <trkpt lat="44.79841" lon="-0.459">
        <ele>21</ele>
        <time>2012-10-14T14:03:32Z</time>
      </trkpt>
      <trkpt lat="44.79838" lon="-0.45872">
        <ele>21</ele>
        <time>2012-10-14T14:03:36Z</time>
      </trkpt>
      <trkpt lat="44.79834" lon="-0.45844">
        <ele>23</ele>
        <time>2012-10-14T14:03:42Z</time>
      </trkpt>
      <trkpt lat="44.79832" lon="-0.45837">
        <ele>24</ele>
        <time>2012-10-14T14:03:44Z</time>
      </trkpt>
      <trkpt lat="44.79831" lon="-0.45799">
        <ele>23</ele>
        <time>2012-10-14T14:03:51Z</time>
      </trkpt>
      <trkpt lat="44.79827" lon="-0.45765">
        <ele>23</ele>
        <time>2012-10-14T14:03:58Z</time>
      </trkpt>
      <trkpt lat="44.79826" lon="-0.45759">
        <ele>23</ele>
        <time>2012-10-14T14:03:59Z</time>
      </trkpt>
      <trkpt lat="44.79823" lon="-0.45747">
        <ele>24</ele>
        <time>2012-10-14T14:04:01Z</time>
      </trkpt>
      <trkpt lat="44.79816" lon="-0.45697">
        <ele>24</ele>
        <time>2012-10-14T14:04:09Z</time>
      </trkpt>
      <trkpt lat="44.79819" lon="-0.45667">
        <ele>23</ele>
        <time>2012-10-14T14:04:14Z</time>
      </trkpt>
      <trkpt lat="44.79818" lon="-0.45654">
        <ele>23</ele>
        <time>2012-10-14T14:04:17Z</time>
      </trkpt>
      <trkpt lat="44.79824" lon="-0.4562">
        <ele>23</ele>
        <time>2012-10-14T14:04:26Z</time>
      </trkpt>
      <trkpt lat="44.79831" lon="-0.45604">
        <ele>23</ele>
        <time>2012-10-14T14:04:36Z</time>
      </trkpt>
      <trkpt lat="44.79832" lon="-0.45598">
        <ele>24</ele>
        <time>2012-10-14T14:04:48Z</time>
      </trkpt>
      <trkpt lat="44.79831" lon="-0.45597">
        <ele>24</ele>
        <time>2012-10-14T14:05:03Z</time>
      </trkpt>
      <trkpt lat="44.79832" lon="-0.45597">
        <ele>24</ele>
        <time>2012-10-14T14:05:14Z</time>
      </trkpt>
      <trkpt lat="44.79821" lon="-0.45596">
        <ele>25</ele>
        <time>2012-10-14T14:05:25Z</time>
      </trkpt>
      <trkpt lat="44.79818" lon="-0.45596">
        <ele>26</ele>
        <time>2012-10-14T14:05:34Z</time>
      </trkpt>
      <trkpt lat="44.79815" lon="-0.45597">
        <ele>26</ele>
        <time>2012-10-14T14:05:42Z</time>
      </trkpt>
      <trkpt lat="44.79813" lon="-0.45596">
        <ele>27</ele>
        <time>2012-10-14T14:05:44Z</time>
      </trkpt>
      <trkpt lat="44.79806" lon="-0.45593">
        <ele>28</ele>
        <time>2012-10-14T14:05:50Z</time>
      </trkpt>
      <trkpt lat="44.79797" lon="-0.4559">
        <ele>30</ele>
        <time>2012-10-14T14:06:00Z</time>
      </trkpt>
      <trkpt lat="44.79789" lon="-0.45588">
        <ele>32</ele>
        <time>2012-10-14T14:06:09Z</time>
      </trkpt>
      <trkpt lat="44.79784" lon="-0.45587">
        <ele>33</ele>
        <time>2012-10-14T14:06:18Z</time>
      </trkpt>
      <trkpt lat="44.7978" lon="-0.45586">
        <ele>34</ele>
        <time>2012-10-14T14:06:27Z</time>
      </trkpt>
      <trkpt lat="44.79774" lon="-0.4559">
        <ele>35</ele>
        <time>2012-10-14T14:06:37Z</time>
      </trkpt>
      <trkpt lat="44.79767" lon="-0.45589">
        <ele>37</ele>
        <time>2012-10-14T14:06:45Z</time>
      </trkpt>
      <trkpt lat="44.79759" lon="-0.45585">
        <ele>38</ele>
        <time>2012-10-14T14:06:56Z</time>
      </trkpt>
      <trkpt lat="44.79752" lon="-0.45585">
        <ele>40</ele>
        <time>2012-10-14T14:07:06Z</time>
      </trkpt>
      <trkpt lat="44.7974" lon="-0.45585">
        <ele>42</ele>
        <time>2012-10-14T14:07:18Z</time>
      </trkpt>
      <trkpt lat="44.79733" lon="-0.45585">
        <ele>43</ele>
        <time>2012-10-14T14:07:27Z</time>
      </trkpt>
      <trkpt lat="44.79726" lon="-0.45585">
        <ele>44</ele>
        <time>2012-10-14T14:07:37Z</time>
      </trkpt>
      <trkpt lat="44.7972" lon="-0.45586">
        <ele>45</ele>
        <time>2012-10-14T14:07:47Z</time>
      </trkpt>
      <trkpt lat="44.79714" lon="-0.45584">
        <ele>46</ele>
        <time>2012-10-14T14:07:55Z</time>
      </trkpt>
      <trkpt lat="44.79711" lon="-0.45579">
        <ele>46</ele>
        <time>2012-10-14T14:08:04Z</time>
      </trkpt>
      <trkpt lat="44.79709" lon="-0.45575">
        <ele>47</ele>
        <time>2012-10-14T14:08:15Z</time>
      </trkpt>
      <trkpt lat="44.79706" lon="-0.45571">
        <ele>47</ele>
        <time>2012-10-14T14:08:19Z</time>
      </trkpt>
      <trkpt lat="44.79706" lon="-0.45569">
        <ele>47</ele>
        <time>2012-10-14T14:08:21Z</time>
      </trkpt>
      <trkpt lat="44.79704" lon="-0.45559">
        <ele>48</ele>
        <time>2012-10-14T14:08:31Z</time>
      </trkpt>
      <trkpt lat="44.79703" lon="-0.45552">
        <ele>48</ele>
        <time>2012-10-14T14:08:40Z</time>
      </trkpt>
      <trkpt lat="44.79702" lon="-0.45544">
        <ele>49</ele>
        <time>2012-10-14T14:08:44Z</time>
      </trkpt>
      <trkpt lat="44.79703" lon="-0.45537">
        <ele>49</ele>
        <time>2012-10-14T14:08:47Z</time>
      </trkpt>
      <trkpt lat="44.797" lon="-0.45531">
        <ele>49</ele>
        <time>2012-10-14T14:08:53Z</time>
      </trkpt>
      <trkpt lat="44.79699" lon="-0.45516">
        <ele>50</ele>
        <time>2012-10-14T14:09:01Z</time>
      </trkpt>
      <trkpt lat="44.79699" lon="-0.45509">
        <ele>50</ele>
        <time>2012-10-14T14:09:04Z</time>
      </trkpt>
      <trkpt lat="44.79699" lon="-0.45502">
        <ele>51</ele>
        <time>2012-10-14T14:09:07Z</time>
      </trkpt>
      <trkpt lat="44.79702" lon="-0.4549">
        <ele>51</ele>
        <time>2012-10-14T14:09:12Z</time>
      </trkpt>
      <trkpt lat="44.79702" lon="-0.45483">
        <ele>51</ele>
        <time>2012-10-14T14:09:15Z</time>
      </trkpt>
      <trkpt lat="44.79702" lon="-0.45474">
        <ele>51</ele>
        <time>2012-10-14T14:09:18Z</time>
      </trkpt>
      <trkpt lat="44.79698" lon="-0.45471">
        <ele>52</ele>
        <time>2012-10-14T14:09:28Z</time>
      </trkpt>
      <trkpt lat="44.79697" lon="-0.45468">
        <ele>52</ele>
        <time>2012-10-14T14:09:41Z</time>
      </trkpt>
      <trkpt lat="44.79695" lon="-0.45467">
        <ele>52</ele>
        <time>2012-10-14T14:10:05Z</time>
      </trkpt>
      <trkpt lat="44.79695" lon="-0.45466">
        <ele>52</ele>
        <time>2012-10-14T14:10:28Z</time>
      </trkpt>
      <trkpt lat="44.79695" lon="-0.45466">
        <ele>52</ele>
        <time>2012-10-14T14:10:46Z</time>
      </trkpt>
      <trkpt lat="44.79695" lon="-0.45466">
        <ele>52</ele>
        <time>2012-10-14T14:11:07Z</time>
      </trkpt>
      <trkpt lat="44.79696" lon="-0.45466">
        <ele>52</ele>
        <time>2012-10-14T14:11:26Z</time>
      </trkpt>
      <trkpt lat="44.79696" lon="-0.45465">
        <ele>52</ele>
        <time>2012-10-14T14:11:48Z</time>
      </trkpt>
      <trkpt lat="44.79696" lon="-0.45465">
        <ele>52</ele>
        <time>2012-10-14T14:12:00Z</time>
      </trkpt>
      <trkpt lat="44.79695" lon="-0.45466">
        <ele>52</ele>
        <time>2012-10-14T14:12:22Z</time>
      </trkpt>
      <trkpt lat="44.79695" lon="-0.45466">
        <ele>52</ele>
        <time>2012-10-14T14:12:44Z</time>
      </trkpt>
      <trkpt lat="44.79695" lon="-0.45466">
        <ele>52</ele>
        <time>2012-10-14T14:12:56Z</time>
      </trkpt>
      <trkpt lat="44.79695" lon="-0.45467">
        <ele>52</ele>
        <time>2012-10-14T14:13:11Z</time>
      </trkpt>
      <trkpt lat="44.79694" lon="-0.45466">
        <ele>52</ele>
        <time>2012-10-14T14:13:26Z</time>
      </trkpt>
      <trkpt lat="44.79694" lon="-0.45467">
        <ele>52</ele>
        <time>2012-10-14T14:13:49Z</time>
      </trkpt>
      <trkpt lat="44.79694" lon="-0.45467">
        <ele>52</ele>
        <time>2012-10-14T14:14:03Z</time>
      </trkpt>
      <trkpt lat="44.79693" lon="-0.45467">
        <ele>52</ele>
        <time>2012-10-14T14:14:15Z</time>
      </trkpt>
      <trkpt lat="44.79691" lon="-0.45468">
        <ele>52</ele>
        <time>2012-10-14T14:14:17Z</time>
      </trkpt>
      <trkpt lat="44.79689" lon="-0.45468">
        <ele>53</ele>
        <time>2012-10-14T14:14:19Z</time>
      </trkpt>
      <trkpt lat="44.79685" lon="-0.45468">
        <ele>53</ele>
        <time>2012-10-14T14:14:23Z</time>
      </trkpt>
      <trkpt lat="44.7968" lon="-0.4547">
        <ele>53</ele>
        <time>2012-10-14T14:14:27Z</time>
      </trkpt>
      <trkpt lat="44.79657" lon="-0.45474">
        <ele>55</ele>
        <time>2012-10-14T14:14:38Z</time>
      </trkpt>
      <trkpt lat="44.79642" lon="-0.45477">
        <ele>56</ele>
        <time>2012-10-14T14:14:47Z</time>
      </trkpt>
      <trkpt lat="44.79619" lon="-0.45481">
        <ele>58</ele>
        <time>2012-10-14T14:14:57Z</time>
      </trkpt>
      <trkpt lat="44.79597" lon="-0.45474">
        <ele>59</ele>
        <time>2012-10-14T14:15:07Z</time>
      </trkpt>
      <trkpt lat="44.79582" lon="-0.45454">
        <ele>59</ele>
        <time>2012-10-14T14:15:16Z</time>
      </trkpt>
      <trkpt lat="44.79556" lon="-0.45443">
        <ele>60</ele>
        <time>2012-10-14T14:15:25Z</time>
      </trkpt>
      <trkpt lat="44.79527" lon="-0.45457">
        <ele>61</ele>
        <time>2012-10-14T14:15:36Z</time>
      </trkpt>
      <trkpt lat="44.795" lon="-0.45484">
        <ele>63</ele>
        <time>2012-10-14T14:15:47Z</time>
      </trkpt>
      <trkpt lat="44.79478" lon="-0.45522">
        <ele>65</ele>
        <time>2012-10-14T14:15:59Z</time>
      </trkpt>
      <trkpt lat="44.79452" lon="-0.45545">
        <ele>66</ele>
        <time>2012-10-14T14:16:10Z</time>
      </trkpt>
      <trkpt lat="44.7943" lon="-0.4555">
        <ele>68</ele>
        <time>2012-10-14T14:16:18Z</time>
      </trkpt>
      <trkpt lat="44.79414" lon="-0.45538">
        <ele>68</ele>
        <time>2012-10-14T14:16:25Z</time>
      </trkpt>
      <trkpt lat="44.79384" lon="-0.45512">
        <ele>70</ele>
        <time>2012-10-14T14:16:38Z</time>
      </trkpt>
      <trkpt lat="44.79359" lon="-0.45489">
        <ele>72</ele>
        <time>2012-10-14T14:16:49Z</time>
      </trkpt>
      <trkpt lat="44.79335" lon="-0.45478">
        <ele>72</ele>
        <time>2012-10-14T14:16:58Z</time>
      </trkpt>
      <trkpt lat="44.79308" lon="-0.45464">
        <ele>72</ele>
        <time>2012-10-14T14:17:08Z</time>
      </trkpt>
      <trkpt lat="44.79272" lon="-0.4544">
        <ele>71</ele>
        <time>2012-10-14T14:17:19Z</time>
      </trkpt>
      <trkpt lat="44.79269" lon="-0.45436">
        <ele>71</ele>
        <time>2012-10-14T14:17:20Z</time>
      </trkpt>
      <trkpt lat="44.79265" lon="-0.45433">
        <ele>71</ele>
        <time>2012-10-14T14:17:21Z</time>
      </trkpt>
      <trkpt lat="44.79261" lon="-0.4543">
        <ele>71</ele>
        <time>2012-10-14T14:17:22Z</time>
      </trkpt>
      <trkpt lat="44.79243" lon="-0.4542">
        <ele>70</ele>
        <time>2012-10-14T14:17:27Z</time>
      </trkpt>
      <trkpt lat="44.7924" lon="-0.45421">
        <ele>70</ele>
        <time>2012-10-14T14:17:28Z</time>
      </trkpt>
      <trkpt lat="44.79238" lon="-0.45423">
        <ele>70</ele>
        <time>2012-10-14T14:17:29Z</time>
      </trkpt>
      <trkpt lat="44.79236" lon="-0.45426">
        <ele>70</ele>
        <time>2012-10-14T14:17:30Z</time>
      </trkpt>
      <trkpt lat="44.79235" lon="-0.45429">
        <ele>70</ele>
        <time>2012-10-14T14:17:31Z</time>
      </trkpt>
      <trkpt lat="44.79218" lon="-0.45454">
        <ele>70</ele>
        <time>2012-10-14T14:17:42Z</time>
      </trkpt>
      <trkpt lat="44.792" lon="-0.45479">
        <ele>70</ele>
        <time>2012-10-14T14:17:51Z</time>
      </trkpt>
      <trkpt lat="44.79181" lon="-0.45501">
        <ele>69</ele>
        <time>2012-10-14T14:18:02Z</time>
      </trkpt>
      <trkpt lat="44.79181" lon="-0.45504">
        <ele>69</ele>
        <time>2012-10-14T14:18:03Z</time>
      </trkpt>
      <trkpt lat="44.79182" lon="-0.45506">
        <ele>69</ele>
        <time>2012-10-14T14:18:04Z</time>
      </trkpt>
      <trkpt lat="44.79182" lon="-0.45509">
        <ele>69</ele>
        <time>2012-10-14T14:18:05Z</time>
      </trkpt>
      <trkpt lat="44.79183" lon="-0.45511">
        <ele>69</ele>
        <time>2012-10-14T14:18:06Z</time>
      </trkpt>
      <trkpt lat="44.79186" lon="-0.45522">
        <ele>69</ele>
        <time>2012-10-14T14:18:11Z</time>
      </trkpt>
      <trkpt lat="44.79186" lon="-0.45523">
        <ele>69</ele>
        <time>2012-10-14T14:18:12Z</time>
      </trkpt>
      <trkpt lat="44.79187" lon="-0.45528">
        <ele>69</ele>
        <time>2012-10-14T14:18:14Z</time>
      </trkpt>
      <trkpt lat="44.79186" lon="-0.4553">
        <ele>69</ele>
        <time>2012-10-14T14:18:15Z</time>
      </trkpt>
      <trkpt lat="44.79184" lon="-0.45533">
        <ele>69</ele>
        <time>2012-10-14T14:18:16Z</time>
      </trkpt>
      <trkpt lat="44.79183" lon="-0.45535">
        <ele>69</ele>
        <time>2012-10-14T14:18:17Z</time>
      </trkpt>
      <trkpt lat="44.79181" lon="-0.45535">
        <ele>69</ele>
        <time>2012-10-14T14:18:26Z</time>
      </trkpt>
      <trkpt lat="44.7918" lon="-0.45533">
        <ele>69</ele>
        <time>2012-10-14T14:18:39Z</time>
      </trkpt>
      <trkpt lat="44.79179" lon="-0.45533">
        <ele>69</ele>
        <time>2012-10-14T14:18:53Z</time>
      </trkpt>
      <trkpt lat="44.79174" lon="-0.45538">
        <ele>69</ele>
        <time>2012-10-14T14:19:08Z</time>
      </trkpt>
      <trkpt lat="44.79172" lon="-0.45539">
        <ele>69</ele>
        <time>2012-10-14T14:19:09Z</time>
      </trkpt>
      <trkpt lat="44.7914" lon="-0.45564">
        <ele>69</ele>
        <time>2012-10-14T14:19:21Z</time>
      </trkpt>
      <trkpt lat="44.79107" lon="-0.45588">
        <ele>69</ele>
        <time>2012-10-14T14:19:33Z</time>
      </trkpt>
      <trkpt lat="44.79082" lon="-0.45608">
        <ele>69</ele>
        <time>2012-10-14T14:19:43Z</time>
      </trkpt>
      <trkpt lat="44.79051" lon="-0.45631">
        <ele>69</ele>
        <time>2012-10-14T14:19:56Z</time>
      </trkpt>
      <trkpt lat="44.79024" lon="-0.45652">
        <ele>69</ele>
        <time>2012-10-14T14:20:08Z</time>
      </trkpt>
      <trkpt lat="44.78999" lon="-0.45673">
        <ele>70</ele>
        <time>2012-10-14T14:20:21Z</time>
      </trkpt>
      <trkpt lat="44.78985" lon="-0.45687">
        <ele>69</ele>
        <time>2012-10-14T14:20:29Z</time>
      </trkpt>
      <trkpt lat="44.78983" lon="-0.45689">
        <ele>69</ele>
        <time>2012-10-14T14:20:30Z</time>
      </trkpt>
      <trkpt lat="44.78961" lon="-0.45711">
        <ele>67</ele>
        <time>2012-10-14T14:20:41Z</time>
      </trkpt>
      <trkpt lat="44.78934" lon="-0.45738">
        <ele>65</ele>
        <time>2012-10-14T14:20:53Z</time>
      </trkpt>
      <trkpt lat="44.78911" lon="-0.45759">
        <ele>62</ele>
        <time>2012-10-14T14:21:03Z</time>
      </trkpt>
      <trkpt lat="44.7889" lon="-0.45789">
        <ele>60</ele>
        <time>2012-10-14T14:21:13Z</time>
      </trkpt>
      <trkpt lat="44.78881" lon="-0.45827">
        <ele>58</ele>
        <time>2012-10-14T14:21:23Z</time>
      </trkpt>
      <trkpt lat="44.78881" lon="-0.45867">
        <ele>58</ele>
        <time>2012-10-14T14:21:31Z</time>
      </trkpt>
      <trkpt lat="44.7888" lon="-0.45925">
        <ele>56</ele>
        <time>2012-10-14T14:21:42Z</time>
      </trkpt>
      <trkpt lat="44.7888" lon="-0.45976">
        <ele>55</ele>
        <time>2012-10-14T14:21:54Z</time>
      </trkpt>
      <trkpt lat="44.78881" lon="-0.45996">
        <ele>55</ele>
        <time>2012-10-14T14:22:01Z</time>
      </trkpt>
      <trkpt lat="44.78881" lon="-0.45998">
        <ele>55</ele>
        <time>2012-10-14T14:22:02Z</time>
      </trkpt>
      <trkpt lat="44.78881" lon="-0.46">
        <ele>54</ele>
        <time>2012-10-14T14:22:03Z</time>
      </trkpt>
      <trkpt lat="44.78881" lon="-0.46002">
        <ele>54</ele>
        <time>2012-10-14T14:22:04Z</time>
      </trkpt>
      <trkpt lat="44.78882" lon="-0.46003">
        <ele>54</ele>
        <time>2012-10-14T14:22:05Z</time>
      </trkpt>
      <trkpt lat="44.78883" lon="-0.46005">
        <ele>54</ele>
        <time>2012-10-14T14:22:06Z</time>
      </trkpt>
      <trkpt lat="44.78883" lon="-0.46009">
        <ele>54</ele>
        <time>2012-10-14T14:22:14Z</time>
      </trkpt>
      <trkpt lat="44.78883" lon="-0.4601">
        <ele>54</ele>
        <time>2012-10-14T14:22:29Z</time>
      </trkpt>
      <trkpt lat="44.78881" lon="-0.46011">
        <ele>54</ele>
        <time>2012-10-14T14:22:35Z</time>
      </trkpt>
      <trkpt lat="44.7888" lon="-0.46012">
        <ele>54</ele>
        <time>2012-10-14T14:22:36Z</time>
      </trkpt>
      <trkpt lat="44.78878" lon="-0.46013">
        <ele>54</ele>
        <time>2012-10-14T14:22:37Z</time>
      </trkpt>
      <trkpt lat="44.78871" lon="-0.46013">
        <ele>53</ele>
        <time>2012-10-14T14:22:43Z</time>
      </trkpt>
      <trkpt lat="44.78855" lon="-0.46016">
        <ele>52</ele>
        <time>2012-10-14T14:22:50Z</time>
      </trkpt>
      <trkpt lat="44.78836" lon="-0.46023">
        <ele>50</ele>
        <time>2012-10-14T14:22:58Z</time>
      </trkpt>
      <trkpt lat="44.78817" lon="-0.4603">
        <ele>48</ele>
        <time>2012-10-14T14:23:06Z</time>
      </trkpt>
      <trkpt lat="44.78808" lon="-0.46032">
        <ele>47</ele>
        <time>2012-10-14T14:23:15Z</time>
      </trkpt>
      <trkpt lat="44.78795" lon="-0.46036">
        <ele>45</ele>
        <time>2012-10-14T14:23:25Z</time>
      </trkpt>
      <trkpt lat="44.78782" lon="-0.4604">
        <ele>43</ele>
        <time>2012-10-14T14:23:32Z</time>
      </trkpt>
      <trkpt lat="44.78762" lon="-0.46044">
        <ele>39</ele>
        <time>2012-10-14T14:23:39Z</time>
      </trkpt>
      <trkpt lat="44.78745" lon="-0.46038">
        <ele>37</ele>
        <time>2012-10-14T14:23:45Z</time>
      </trkpt>
      <trkpt lat="44.78735" lon="-0.46031">
        <ele>35</ele>
        <time>2012-10-14T14:23:48Z</time>
      </trkpt>
      <trkpt lat="44.78724" lon="-0.46024">
        <ele>33</ele>
        <time>2012-10-14T14:23:51Z</time>
      </trkpt>
      <trkpt lat="44.78717" lon="-0.46019">
        <ele>31</ele>
        <time>2012-10-14T14:23:53Z</time>
      </trkpt>
      <trkpt lat="44.78713" lon="-0.46017">
        <ele>30</ele>
        <time>2012-10-14T14:23:54Z</time>
      </trkpt>
      <trkpt lat="44.7871" lon="-0.46014">
        <ele>30</ele>
        <time>2012-10-14T14:23:55Z</time>
      </trkpt>
      <trkpt lat="44.78706" lon="-0.46011">
        <ele>29</ele>
        <time>2012-10-14T14:23:56Z</time>
      </trkpt>
      <trkpt lat="44.78702" lon="-0.46007">
        <ele>29</ele>
        <time>2012-10-14T14:23:57Z</time>
      </trkpt>
      <trkpt lat="44.78699" lon="-0.46004">
        <ele>28</ele>
        <time>2012-10-14T14:23:58Z</time>
      </trkpt>
      <trkpt lat="44.78693" lon="-0.45996">
        <ele>28</ele>
        <time>2012-10-14T14:24:00Z</time>
      </trkpt>
      <trkpt lat="44.7869" lon="-0.45993">
        <ele>27</ele>
        <time>2012-10-14T14:24:01Z</time>
      </trkpt>
      <trkpt lat="44.78686" lon="-0.45989">
        <ele>27</ele>
        <time>2012-10-14T14:24:02Z</time>
      </trkpt>
      <trkpt lat="44.78671" lon="-0.45976">
        <ele>24</ele>
        <time>2012-10-14T14:24:07Z</time>
      </trkpt>
      <trkpt lat="44.78664" lon="-0.45969">
        <ele>24</ele>
        <time>2012-10-14T14:24:10Z</time>
      </trkpt>
      <trkpt lat="44.78663" lon="-0.45966">
        <ele>24</ele>
        <time>2012-10-14T14:24:11Z</time>
      </trkpt>
      <trkpt lat="44.78663" lon="-0.45963">
        <ele>24</ele>
        <time>2012-10-14T14:24:20Z</time>
      </trkpt>
      <trkpt lat="44.7866" lon="-0.45962">
        <ele>23</ele>
        <time>2012-10-14T14:24:42Z</time>
      </trkpt>
      <trkpt lat="44.78658" lon="-0.45958">
        <ele>23</ele>
        <time>2012-10-14T14:25:08Z</time>
      </trkpt>
      <trkpt lat="44.78658" lon="-0.45959">
        <ele>23</ele>
        <time>2012-10-14T14:25:31Z</time>
      </trkpt>
      <trkpt lat="44.78657" lon="-0.45956">
        <ele>23</ele>
        <time>2012-10-14T14:25:44Z</time>
      </trkpt>
      <trkpt lat="44.78657" lon="-0.4595">
        <ele>24</ele>
        <time>2012-10-14T14:25:47Z</time>
      </trkpt>
      <trkpt lat="44.78658" lon="-0.45948">
        <ele>24</ele>
        <time>2012-10-14T14:25:48Z</time>
      </trkpt>
      <trkpt lat="44.78662" lon="-0.45944">
        <ele>25</ele>
        <time>2012-10-14T14:25:51Z</time>
      </trkpt>
      <trkpt lat="44.78663" lon="-0.45942">
        <ele>25</ele>
        <time>2012-10-14T14:25:52Z</time>
      </trkpt>
      <trkpt lat="44.78663" lon="-0.4594">
        <ele>25</ele>
        <time>2012-10-14T14:25:53Z</time>
      </trkpt>
      <trkpt lat="44.78661" lon="-0.45938">
        <ele>25</ele>
        <time>2012-10-14T14:25:54Z</time>
      </trkpt>
      <trkpt lat="44.78659" lon="-0.45936">
        <ele>25</ele>
        <time>2012-10-14T14:25:55Z</time>
      </trkpt>
      <trkpt lat="44.78657" lon="-0.45934">
        <ele>24</ele>
        <time>2012-10-14T14:25:56Z</time>
      </trkpt>
      <trkpt lat="44.78655" lon="-0.45932">
        <ele>24</ele>
        <time>2012-10-14T14:25:57Z</time>
      </trkpt>
      <trkpt lat="44.78654" lon="-0.45929">
        <ele>24</ele>
        <time>2012-10-14T14:25:58Z</time>
      </trkpt>
      <trkpt lat="44.78653" lon="-0.45927">
        <ele>24</ele>
        <time>2012-10-14T14:25:59Z</time>
      </trkpt>
      <trkpt lat="44.78652" lon="-0.45926">
        <ele>24</ele>
        <time>2012-10-14T14:26:00Z</time>
      </trkpt>
      <trkpt lat="44.78651" lon="-0.45924">
        <ele>24</ele>
        <time>2012-10-14T14:26:01Z</time>
      </trkpt>
      <trkpt lat="44.78639" lon="-0.45892">
        <ele>23</ele>
        <time>2012-10-14T14:26:09Z</time>
      </trkpt>
      <trkpt lat="44.78628" lon="-0.45855">
        <ele>22</ele>
        <time>2012-10-14T14:26:15Z</time>
      </trkpt>
      <trkpt lat="44.78625" lon="-0.45848">
        <ele>22</ele>
        <time>2012-10-14T14:26:16Z</time>
      </trkpt>
      <trkpt lat="44.78622" lon="-0.45841">
        <ele>22</ele>
        <time>2012-10-14T14:26:17Z</time>
      </trkpt>
      <trkpt lat="44.78598" lon="-0.45797">
        <ele>23</ele>
        <time>2012-10-14T14:26:24Z</time>
      </trkpt>
      <trkpt lat="44.78595" lon="-0.45791">
        <ele>23</ele>
        <time>2012-10-14T14:26:25Z</time>
      </trkpt>
      <trkpt lat="44.78562" lon="-0.45723">
        <ele>24</ele>
        <time>2012-10-14T14:26:36Z</time>
      </trkpt>
      <trkpt lat="44.78544" lon="-0.45672">
        <ele>23</ele>
        <time>2012-10-14T14:26:45Z</time>
      </trkpt>
      <trkpt lat="44.78534" lon="-0.45639">
        <ele>24</ele>
        <time>2012-10-14T14:26:54Z</time>
      </trkpt>
      <trkpt lat="44.78525" lon="-0.45609">
        <ele>26</ele>
        <time>2012-10-14T14:27:03Z</time>
      </trkpt>
      <trkpt lat="44.78516" lon="-0.4558">
        <ele>26</ele>
        <time>2012-10-14T14:27:12Z</time>
      </trkpt>
      <trkpt lat="44.78504" lon="-0.45541">
        <ele>27</ele>
        <time>2012-10-14T14:27:22Z</time>
      </trkpt>
      <trkpt lat="44.78493" lon="-0.45517">
        <ele>27</ele>
        <time>2012-10-14T14:27:28Z</time>
      </trkpt>
      <trkpt lat="44.7849" lon="-0.45512">
        <ele>27</ele>
        <time>2012-10-14T14:27:29Z</time>
      </trkpt>
      <trkpt lat="44.78487" lon="-0.45509">
        <ele>27</ele>
        <time>2012-10-14T14:27:30Z</time>
      </trkpt>
      <trkpt lat="44.78481" lon="-0.45501">
        <ele>27</ele>
        <time>2012-10-14T14:27:32Z</time>
      </trkpt>
      <trkpt lat="44.78478" lon="-0.45497">
        <ele>27</ele>
        <time>2012-10-14T14:27:33Z</time>
      </trkpt>
      <trkpt lat="44.78476" lon="-0.45493">
        <ele>28</ele>
        <time>2012-10-14T14:27:34Z</time>
      </trkpt>
      <trkpt lat="44.78472" lon="-0.45483">
        <ele>28</ele>
        <time>2012-10-14T14:27:36Z</time>
      </trkpt>
      <trkpt lat="44.78458" lon="-0.45441">
        <ele>28</ele>
        <time>2012-10-14T14:27:46Z</time>
      </trkpt>
      <trkpt lat="44.78453" lon="-0.45409">
        <ele>29</ele>
        <time>2012-10-14T14:27:52Z</time>
      </trkpt>
      <trkpt lat="44.7844" lon="-0.45349">
        <ele>30</ele>
        <time>2012-10-14T14:28:03Z</time>
      </trkpt>
      <trkpt lat="44.78438" lon="-0.45344">
        <ele>30</ele>
        <time>2012-10-14T14:28:04Z</time>
      </trkpt>
      <trkpt lat="44.78435" lon="-0.45339">
        <ele>30</ele>
        <time>2012-10-14T14:28:05Z</time>
      </trkpt>
      <trkpt lat="44.78432" lon="-0.45335">
        <ele>30</ele>
        <time>2012-10-14T14:28:06Z</time>
      </trkpt>
      <trkpt lat="44.78429" lon="-0.45333">
        <ele>30</ele>
        <time>2012-10-14T14:28:07Z</time>
      </trkpt>
      <trkpt lat="44.78426" lon="-0.45331">
        <ele>30</ele>
        <time>2012-10-14T14:28:08Z</time>
      </trkpt>
      <trkpt lat="44.78423" lon="-0.45328">
        <ele>30</ele>
        <time>2012-10-14T14:28:09Z</time>
      </trkpt>
      <trkpt lat="44.78421" lon="-0.45326">
        <ele>31</ele>
        <time>2012-10-14T14:28:10Z</time>
      </trkpt>
      <trkpt lat="44.78419" lon="-0.45323">
        <ele>31</ele>
        <time>2012-10-14T14:28:11Z</time>
      </trkpt>
      <trkpt lat="44.78418" lon="-0.45321">
        <ele>31</ele>
        <time>2012-10-14T14:28:12Z</time>
      </trkpt>
      <trkpt lat="44.78417" lon="-0.45319">
        <ele>31</ele>
        <time>2012-10-14T14:28:13Z</time>
      </trkpt>
      <trkpt lat="44.78417" lon="-0.45319">
        <ele>31</ele>
        <time>2012-10-14T14:28:20Z</time>
      </trkpt>
      <trkpt lat="44.78421" lon="-0.45321">
        <ele>31</ele>
        <time>2012-10-14T14:28:30Z</time>
      </trkpt>
      <trkpt lat="44.78422" lon="-0.45319">
        <ele>31</ele>
        <time>2012-10-14T14:28:35Z</time>
      </trkpt>
      <trkpt lat="44.78423" lon="-0.45317">
        <ele>31</ele>
        <time>2012-10-14T14:28:36Z</time>
      </trkpt>
      <trkpt lat="44.78424" lon="-0.45315">
        <ele>31</ele>
        <time>2012-10-14T14:28:37Z</time>
      </trkpt>
      <trkpt lat="44.78425" lon="-0.45311">
        <ele>31</ele>
        <time>2012-10-14T14:28:38Z</time>
      </trkpt>
      <trkpt lat="44.78426" lon="-0.45308">
        <ele>32</ele>
        <time>2012-10-14T14:28:39Z</time>
      </trkpt>
      <trkpt lat="44.78427" lon="-0.45305">
        <ele>32</ele>
        <time>2012-10-14T14:28:40Z</time>
      </trkpt>
      <trkpt lat="44.78441" lon="-0.45285">
        <ele>32</ele>
        <time>2012-10-14T14:28:50Z</time>
      </trkpt>
      <trkpt lat="44.7845" lon="-0.45278">
        <ele>32</ele>
        <time>2012-10-14T14:28:54Z</time>
      </trkpt>
      <trkpt lat="44.78462" lon="-0.45249">
        <ele>33</ele>
        <time>2012-10-14T14:29:03Z</time>
      </trkpt>
      <trkpt lat="44.78476" lon="-0.45222">
        <ele>34</ele>
        <time>2012-10-14T14:29:12Z</time>
      </trkpt>
      <trkpt lat="44.78478" lon="-0.45215">
        <ele>34</ele>
        <time>2012-10-14T14:29:14Z</time>
      </trkpt>
      <trkpt lat="44.78479" lon="-0.45213">
        <ele>34</ele>
        <time>2012-10-14T14:29:15Z</time>
      </trkpt>
      <trkpt lat="44.7848" lon="-0.4521">
        <ele>34</ele>
        <time>2012-10-14T14:29:16Z</time>
      </trkpt>
      <trkpt lat="44.78481" lon="-0.45208">
        <ele>35</ele>
        <time>2012-10-14T14:29:17Z</time>
      </trkpt>
      <trkpt lat="44.78483" lon="-0.45205">
        <ele>35</ele>
        <time>2012-10-14T14:29:18Z</time>
      </trkpt>
      <trkpt lat="44.78498" lon="-0.45185">
        <ele>35</ele>
        <time>2012-10-14T14:29:25Z</time>
      </trkpt>
      <trkpt lat="44.785" lon="-0.45184">
        <ele>35</ele>
        <time>2012-10-14T14:29:26Z</time>
      </trkpt>
      <trkpt lat="44.78509" lon="-0.45175">
        <ele>36</ele>
        <time>2012-10-14T14:29:32Z</time>
      </trkpt>
      <trkpt lat="44.7851" lon="-0.45173">
        <ele>36</ele>
        <time>2012-10-14T14:29:33Z</time>
      </trkpt>
      <trkpt lat="44.78514" lon="-0.45168">
        <ele>37</ele>
        <time>2012-10-14T14:29:35Z</time>
      </trkpt>
      <trkpt lat="44.7853" lon="-0.45159">
        <ele>40</ele>
        <time>2012-10-14T14:29:44Z</time>
      </trkpt>
      <trkpt lat="44.78535" lon="-0.45156">
        <ele>41</ele>
        <time>2012-10-14T14:29:55Z</time>
      </trkpt>
      <trkpt lat="44.78539" lon="-0.4515">
        <ele>41</ele>
        <time>2012-10-14T14:30:04Z</time>
      </trkpt>
      <trkpt lat="44.78541" lon="-0.45145">
        <ele>40</ele>
        <time>2012-10-14T14:30:12Z</time>
      </trkpt>
      <trkpt lat="44.78542" lon="-0.45145">
        <ele>40</ele>
        <time>2012-10-14T14:30:13Z</time>
      </trkpt>
      <trkpt lat="44.78545" lon="-0.45142">
        <ele>40</ele>
        <time>2012-10-14T14:30:16Z</time>
      </trkpt>
      <trkpt lat="44.78546" lon="-0.45142">
        <ele>40</ele>
        <time>2012-10-14T14:30:17Z</time>
      </trkpt>
      <trkpt lat="44.78548" lon="-0.45141">
        <ele>40</ele>
        <time>2012-10-14T14:30:18Z</time>
      </trkpt>
      <trkpt lat="44.78549" lon="-0.4514">
        <ele>40</ele>
        <time>2012-10-14T14:30:19Z</time>
      </trkpt>
      <trkpt lat="44.7855" lon="-0.45139">
        <ele>40</ele>
        <time>2012-10-14T14:30:20Z</time>
      </trkpt>
      <trkpt lat="44.78551" lon="-0.45138">
        <ele>40</ele>
        <time>2012-10-14T14:30:21Z</time>
      </trkpt>
      <trkpt lat="44.78553" lon="-0.45137">
        <ele>40</ele>
        <time>2012-10-14T14:30:22Z</time>
      </trkpt>
      <trkpt lat="44.78554" lon="-0.45136">
        <ele>40</ele>
        <time>2012-10-14T14:30:23Z</time>
      </trkpt>
      <trkpt lat="44.78556" lon="-0.45135">
        <ele>40</ele>
        <time>2012-10-14T14:30:24Z</time>
      </trkpt>
      <trkpt lat="44.78557" lon="-0.45135">
        <ele>41</ele>
        <time>2012-10-14T14:30:25Z</time>
      </trkpt>
      <trkpt lat="44.78559" lon="-0.45134">
        <ele>41</ele>
        <time>2012-10-14T14:30:26Z</time>
      </trkpt>
      <trkpt lat="44.7856" lon="-0.45133">
        <ele>41</ele>
        <time>2012-10-14T14:30:27Z</time>
      </trkpt>
      <trkpt lat="44.78563" lon="-0.45131">
        <ele>41</ele>
        <time>2012-10-14T14:30:28Z</time>
      </trkpt>
      <trkpt lat="44.78565" lon="-0.4513">
        <ele>42</ele>
        <time>2012-10-14T14:30:29Z</time>
      </trkpt>
      <trkpt lat="44.78567" lon="-0.45129">
        <ele>42</ele>
        <time>2012-10-14T14:30:30Z</time>
      </trkpt>
      <trkpt lat="44.78569" lon="-0.45128">
        <ele>42</ele>
        <time>2012-10-14T14:30:31Z</time>
      </trkpt>
      <trkpt lat="44.78571" lon="-0.45127">
        <ele>42</ele>
        <time>2012-10-14T14:30:32Z</time>
      </trkpt>
      <trkpt lat="44.78572" lon="-0.45126">
        <ele>43</ele>
        <time>2012-10-14T14:30:33Z</time>
      </trkpt>
      <trkpt lat="44.78574" lon="-0.45126">
        <ele>43</ele>
        <time>2012-10-14T14:30:34Z</time>
      </trkpt>
      <trkpt lat="44.78585" lon="-0.45122">
        <ele>44</ele>
        <time>2012-10-14T14:30:42Z</time>
      </trkpt>
      <trkpt lat="44.78587" lon="-0.45121">
        <ele>44</ele>
        <time>2012-10-14T14:30:43Z</time>
      </trkpt>
      <trkpt lat="44.78589" lon="-0.45122">
        <ele>44</ele>
        <time>2012-10-14T14:30:44Z</time>
      </trkpt>
      <trkpt lat="44.786" lon="-0.45123">
        <ele>46</ele>
        <time>2012-10-14T14:30:53Z</time>
      </trkpt>
      <trkpt lat="44.78603" lon="-0.45124">
        <ele>46</ele>
        <time>2012-10-14T14:30:55Z</time>
      </trkpt>
      <trkpt lat="44.78605" lon="-0.45125">
        <ele>46</ele>
        <time>2012-10-14T14:30:56Z</time>
      </trkpt>
      <trkpt lat="44.78607" lon="-0.45127">
        <ele>46</ele>
        <time>2012-10-14T14:30:57Z</time>
      </trkpt>
      <trkpt lat="44.78621" lon="-0.45132">
        <ele>48</ele>
        <time>2012-10-14T14:31:06Z</time>
      </trkpt>
      <trkpt lat="44.78638" lon="-0.45137">
        <ele>50</ele>
        <time>2012-10-14T14:31:15Z</time>
      </trkpt>
      <trkpt lat="44.78642" lon="-0.45138">
        <ele>51</ele>
        <time>2012-10-14T14:31:17Z</time>
      </trkpt>
      <trkpt lat="44.78657" lon="-0.45136">
        <ele>51</ele>
        <time>2012-10-14T14:31:26Z</time>
      </trkpt>
      <trkpt lat="44.78666" lon="-0.45139">
        <ele>52</ele>
        <time>2012-10-14T14:31:30Z</time>
      </trkpt>
      <trkpt lat="44.78673" lon="-0.45143">
        <ele>52</ele>
        <time>2012-10-14T14:31:36Z</time>
      </trkpt>
      <trkpt lat="44.78686" lon="-0.45153">
        <ele>53</ele>
        <time>2012-10-14T14:31:43Z</time>
      </trkpt>
      <trkpt lat="44.78698" lon="-0.45162">
        <ele>55</ele>
        <time>2012-10-14T14:31:51Z</time>
      </trkpt>
      <trkpt lat="44.78707" lon="-0.45168">
        <ele>57</ele>
        <time>2012-10-14T14:31:57Z</time>
      </trkpt>
      <trkpt lat="44.78714" lon="-0.45171">
        <ele>58</ele>
        <time>2012-10-14T14:32:01Z</time>
      </trkpt>
      <trkpt lat="44.78729" lon="-0.45181">
        <ele>60</ele>
        <time>2012-10-14T14:32:12Z</time>
      </trkpt>
      <trkpt lat="44.78735" lon="-0.4518">
        <ele>61</ele>
        <time>2012-10-14T14:32:18Z</time>
      </trkpt>
      <trkpt lat="44.78744" lon="-0.45175">
        <ele>62</ele>
        <time>2012-10-14T14:32:27Z</time>
      </trkpt>
      <trkpt lat="44.78756" lon="-0.45168">
        <ele>64</ele>
        <time>2012-10-14T14:32:37Z</time>
      </trkpt>
      <trkpt lat="44.78757" lon="-0.45167">
        <ele>64</ele>
        <time>2012-10-14T14:32:38Z</time>
      </trkpt>
      <trkpt lat="44.78769" lon="-0.45158">
        <ele>66</ele>
        <time>2012-10-14T14:32:48Z</time>
      </trkpt>
      <trkpt lat="44.78781" lon="-0.45141">
        <ele>68</ele>
        <time>2012-10-14T14:33:00Z</time>
      </trkpt>
      <trkpt lat="44.78784" lon="-0.45137">
        <ele>68</ele>
        <time>2012-10-14T14:33:03Z</time>
      </trkpt>
      <trkpt lat="44.78787" lon="-0.45131">
        <ele>69</ele>
        <time>2012-10-14T14:33:12Z</time>
      </trkpt>
      <trkpt lat="44.78788" lon="-0.45131">
        <ele>69</ele>
        <time>2012-10-14T14:33:21Z</time>
      </trkpt>
      <trkpt lat="44.78789" lon="-0.45131">
        <ele>69</ele>
        <time>2012-10-14T14:33:41Z</time>
      </trkpt>
      <trkpt lat="44.7879" lon="-0.45132">
        <ele>69</ele>
        <time>2012-10-14T14:34:05Z</time>
      </trkpt>
      <trkpt lat="44.7879" lon="-0.45131">
        <ele>69</ele>
        <time>2012-10-14T14:34:26Z</time>
      </trkpt>
      <trkpt lat="44.7879" lon="-0.4513">
        <ele>69</ele>
        <time>2012-10-14T14:34:38Z</time>
      </trkpt>
      <trkpt lat="44.78796" lon="-0.45119">
        <ele>70</ele>
        <time>2012-10-14T14:34:49Z</time>
      </trkpt>
      <trkpt lat="44.78805" lon="-0.45097">
        <ele>71</ele>
        <time>2012-10-14T14:34:58Z</time>
      </trkpt>
      <trkpt lat="44.78819" lon="-0.45068">
        <ele>72</ele>
        <time>2012-10-14T14:35:09Z</time>
      </trkpt>
      <trkpt lat="44.78847" lon="-0.45036">
        <ele>73</ele>
        <time>2012-10-14T14:35:22Z</time>
      </trkpt>
      <trkpt lat="44.78878" lon="-0.45001">
        <ele>73</ele>
        <time>2012-10-14T14:35:34Z</time>
      </trkpt>
      <trkpt lat="44.78912" lon="-0.44962">
        <ele>73</ele>
        <time>2012-10-14T14:35:47Z</time>
      </trkpt>
      <trkpt lat="44.78911" lon="-0.44946">
        <ele>73</ele>
        <time>2012-10-14T14:35:51Z</time>
      </trkpt>
      <trkpt lat="44.78906" lon="-0.44935">
        <ele>73</ele>
        <time>2012-10-14T14:35:54Z</time>
      </trkpt>
      <trkpt lat="44.78912" lon="-0.44916">
        <ele>73</ele>
        <time>2012-10-14T14:35:59Z</time>
      </trkpt>
      <trkpt lat="44.78941" lon="-0.44897">
        <ele>73</ele>
        <time>2012-10-14T14:36:13Z</time>
      </trkpt>
      <trkpt lat="44.78977" lon="-0.44875">
        <ele>72</ele>
        <time>2012-10-14T14:36:24Z</time>
      </trkpt>
      <trkpt lat="44.79008" lon="-0.44857">
        <ele>71</ele>
        <time>2012-10-14T14:36:33Z</time>
      </trkpt>
      <trkpt lat="44.7901" lon="-0.44853">
        <ele>71</ele>
        <time>2012-10-14T14:36:34Z</time>
      </trkpt>
      <trkpt lat="44.79026" lon="-0.44805">
        <ele>70</ele>
        <time>2012-10-14T14:36:44Z</time>
      </trkpt>
      <trkpt lat="44.79057" lon="-0.44774">
        <ele>69</ele>
        <time>2012-10-14T14:36:55Z</time>
      </trkpt>
      <trkpt lat="44.79092" lon="-0.44725">
        <ele>69</ele>
        <time>2012-10-14T14:37:08Z</time>
      </trkpt>
      <trkpt lat="44.79126" lon="-0.44699">
        <ele>71</ele>
        <time>2012-10-14T14:37:20Z</time>
      </trkpt>
      <trkpt lat="44.79159" lon="-0.44686">
        <ele>73</ele>
        <time>2012-10-14T14:37:32Z</time>
      </trkpt>
      <trkpt lat="44.79179" lon="-0.44674">
        <ele>75</ele>
        <time>2012-10-14T14:37:41Z</time>
      </trkpt>
      <trkpt lat="44.79196" lon="-0.44659">
        <ele>77</ele>
        <time>2012-10-14T14:37:52Z</time>
      </trkpt>
      <trkpt lat="44.79199" lon="-0.44651">
        <ele>77</ele>
        <time>2012-10-14T14:37:56Z</time>
      </trkpt>
      <trkpt lat="44.79199" lon="-0.4465">
        <ele>77</ele>
        <time>2012-10-14T14:37:57Z</time>
      </trkpt>
      <trkpt lat="44.79199" lon="-0.44648">
        <ele>77</ele>
        <time>2012-10-14T14:37:58Z</time>
      </trkpt>
      <trkpt lat="44.79198" lon="-0.44647">
        <ele>77</ele>
        <time>2012-10-14T14:37:59Z</time>
      </trkpt>
      <trkpt lat="44.79197" lon="-0.44645">
        <ele>77</ele>
        <time>2012-10-14T14:38:00Z</time>
      </trkpt>
      <trkpt lat="44.79197" lon="-0.44644">
        <ele>77</ele>
        <time>2012-10-14T14:38:01Z</time>
      </trkpt>
      <trkpt lat="44.79194" lon="-0.44637">
        <ele>77</ele>
        <time>2012-10-14T14:38:13Z</time>
      </trkpt>
      <trkpt lat="44.79193" lon="-0.44634">
        <ele>77</ele>
        <time>2012-10-14T14:38:24Z</time>
      </trkpt>
      <trkpt lat="44.79188" lon="-0.44621">
        <ele>77</ele>
        <time>2012-10-14T14:38:32Z</time>
      </trkpt>
      <trkpt lat="44.79173" lon="-0.44578">
        <ele>77</ele>
        <time>2012-10-14T14:38:44Z</time>
      </trkpt>
      <trkpt lat="44.79158" lon="-0.44544">
        <ele>76</ele>
        <time>2012-10-14T14:38:55Z</time>
      </trkpt>
      <trkpt lat="44.79149" lon="-0.44524">
        <ele>76</ele>
        <time>2012-10-14T14:39:05Z</time>
      </trkpt>
      <trkpt lat="44.79149" lon="-0.44521">
        <ele>76</ele>
        <time>2012-10-14T14:39:14Z</time>
      </trkpt>
      <trkpt lat="44.79147" lon="-0.4452">
        <ele>76</ele>
        <time>2012-10-14T14:39:26Z</time>
      </trkpt>
      <trkpt lat="44.79146" lon="-0.4452">
        <ele>76</ele>
        <time>2012-10-14T14:39:27Z</time>
      </trkpt>
      <trkpt lat="44.79145" lon="-0.44519">
        <ele>76</ele>
        <time>2012-10-14T14:39:28Z</time>
      </trkpt>
      <trkpt lat="44.79143" lon="-0.44518">
        <ele>76</ele>
        <time>2012-10-14T14:39:30Z</time>
      </trkpt>
      <trkpt lat="44.79142" lon="-0.44517">
        <ele>76</ele>
        <time>2012-10-14T14:39:31Z</time>
      </trkpt>
      <trkpt lat="44.79141" lon="-0.44516">
        <ele>76</ele>
        <time>2012-10-14T14:39:32Z</time>
      </trkpt>
      <trkpt lat="44.79139" lon="-0.44514">
        <ele>76</ele>
        <time>2012-10-14T14:39:33Z</time>
      </trkpt>
      <trkpt lat="44.79138" lon="-0.44512">
        <ele>76</ele>
        <time>2012-10-14T14:39:34Z</time>
      </trkpt>
      <trkpt lat="44.79119" lon="-0.44481">
        <ele>76</ele>
        <time>2012-10-14T14:39:47Z</time>
      </trkpt>
      <trkpt lat="44.79102" lon="-0.44442">
        <ele>76</ele>
        <time>2012-10-14T14:39:58Z</time>
      </trkpt>
      <trkpt lat="44.79091" lon="-0.44404">
        <ele>76</ele>
        <time>2012-10-14T14:40:08Z</time>
      </trkpt>
      <trkpt lat="44.7908" lon="-0.44358">
        <ele>76</ele>
        <time>2012-10-14T14:40:19Z</time>
      </trkpt>
      <trkpt lat="44.79064" lon="-0.44299">
        <ele>75</ele>
        <time>2012-10-14T14:40:31Z</time>
      </trkpt>
      <trkpt lat="44.79059" lon="-0.44278">
        <ele>75</ele>
        <time>2012-10-14T14:40:35Z</time>
      </trkpt>
      <trkpt lat="44.79044" lon="-0.44215">
        <ele>74</ele>
        <time>2012-10-14T14:40:47Z</time>
      </trkpt>
      <trkpt lat="44.79026" lon="-0.44169">
        <ele>73</ele>
        <time>2012-10-14T14:40:57Z</time>
      </trkpt>
      <trkpt lat="44.79013" lon="-0.4412">
        <ele>72</ele>
        <time>2012-10-14T14:41:07Z</time>
      </trkpt>
      <trkpt lat="44.78997" lon="-0.44067">
        <ele>72</ele>
        <time>2012-10-14T14:41:19Z</time>
      </trkpt>
      <trkpt lat="44.78985" lon="-0.44024">
        <ele>72</ele>
        <time>2012-10-14T14:41:29Z</time>
      </trkpt>
      <trkpt lat="44.78986" lon="-0.43985">
        <ele>72</ele>
        <time>2012-10-14T14:41:38Z</time>
      </trkpt>
      <trkpt lat="44.78986" lon="-0.43937">
        <ele>73</ele>
        <time>2012-10-14T14:41:48Z</time>
      </trkpt>
      <trkpt lat="44.78987" lon="-0.43894">
        <ele>74</ele>
        <time>2012-10-14T14:41:58Z</time>
      </trkpt>
      <trkpt lat="44.78987" lon="-0.43885">
        <ele>74</ele>
        <time>2012-10-14T14:42:01Z</time>
      </trkpt>
      <trkpt lat="44.78988" lon="-0.43882">
        <ele>74</ele>
        <time>2012-10-14T14:42:02Z</time>
      </trkpt>
      <trkpt lat="44.78989" lon="-0.4388">
        <ele>74</ele>
        <time>2012-10-14T14:42:03Z</time>
      </trkpt>
      <trkpt lat="44.7899" lon="-0.43881">
        <ele>74</ele>
        <time>2012-10-14T14:42:04Z</time>
      </trkpt>
      <trkpt lat="44.78992" lon="-0.43882">
        <ele>74</ele>
        <time>2012-10-14T14:42:05Z</time>
      </trkpt>
      <trkpt lat="44.79004" lon="-0.43888">
        <ele>74</ele>
        <time>2012-10-14T14:42:12Z</time>
      </trkpt>
      <trkpt lat="44.79027" lon="-0.43896">
        <ele>73</ele>
        <time>2012-10-14T14:42:21Z</time>
      </trkpt>
      <trkpt lat="44.79061" lon="-0.43906">
        <ele>73</ele>
        <time>2012-10-14T14:42:30Z</time>
      </trkpt>
      <trkpt lat="44.79095" lon="-0.4392">
        <ele>72</ele>
        <time>2012-10-14T14:42:37Z</time>
      </trkpt>
      <trkpt lat="44.79143" lon="-0.43938">
        <ele>68</ele>
        <time>2012-10-14T14:42:46Z</time>
      </trkpt>
      <trkpt lat="44.79154" lon="-0.4394">
        <ele>67</ele>
        <time>2012-10-14T14:42:48Z</time>
      </trkpt>
      <trkpt lat="44.79173" lon="-0.43939">
        <ele>67</ele>
        <time>2012-10-14T14:42:52Z</time>
      </trkpt>
      <trkpt lat="44.79201" lon="-0.43929">
        <ele>66</ele>
        <time>2012-10-14T14:42:59Z</time>
      </trkpt>
      <trkpt lat="44.7923" lon="-0.43917">
        <ele>65</ele>
        <time>2012-10-14T14:43:06Z</time>
      </trkpt>
      <trkpt lat="44.7924" lon="-0.43909">
        <ele>65</ele>
        <time>2012-10-14T14:43:09Z</time>
      </trkpt>
      <trkpt lat="44.7925" lon="-0.43882">
        <ele>65</ele>
        <time>2012-10-14T14:43:17Z</time>
      </trkpt>
      <trkpt lat="44.79251" lon="-0.43879">
        <ele>65</ele>
        <time>2012-10-14T14:43:18Z</time>
      </trkpt>
      <trkpt lat="44.79256" lon="-0.43843">
        <ele>66</ele>
        <time>2012-10-14T14:43:28Z</time>
      </trkpt>
      <trkpt lat="44.7926" lon="-0.43811">
        <ele>68</ele>
        <time>2012-10-14T14:43:36Z</time>
      </trkpt>
      <trkpt lat="44.79264" lon="-0.4378">
        <ele>70</ele>
        <time>2012-10-14T14:43:45Z</time>
      </trkpt>
      <trkpt lat="44.79263" lon="-0.4376">
        <ele>71</ele>
        <time>2012-10-14T14:43:52Z</time>
      </trkpt>
      <trkpt lat="44.79264" lon="-0.43736">
        <ele>72</ele>
        <time>2012-10-14T14:44:02Z</time>
      </trkpt>
      <trkpt lat="44.79266" lon="-0.43713">
        <ele>73</ele>
        <time>2012-10-14T14:44:11Z</time>
      </trkpt>
      <trkpt lat="44.79269" lon="-0.43689">
        <ele>73</ele>
        <time>2012-10-14T14:44:19Z</time>
      </trkpt>
      <trkpt lat="44.79274" lon="-0.43659">
        <ele>74</ele>
        <time>2012-10-14T14:44:28Z</time>
      </trkpt>
      <trkpt lat="44.79273" lon="-0.43641">
        <ele>74</ele>
        <time>2012-10-14T14:44:32Z</time>
      </trkpt>
      <trkpt lat="44.79272" lon="-0.43617">
        <ele>74</ele>
        <time>2012-10-14T14:44:37Z</time>
      </trkpt>
      <trkpt lat="44.79272" lon="-0.4357">
        <ele>74</ele>
        <time>2012-10-14T14:44:46Z</time>
      </trkpt>
      <trkpt lat="44.79277" lon="-0.43518">
        <ele>72</ele>
        <time>2012-10-14T14:44:54Z</time>
      </trkpt>
      <trkpt lat="44.79276" lon="-0.43505">
        <ele>71</ele>
        <time>2012-10-14T14:44:56Z</time>
      </trkpt>
      <trkpt lat="44.79282" lon="-0.43446">
        <ele>68</ele>
        <time>2012-10-14T14:45:06Z</time>
      </trkpt>
      <trkpt lat="44.79282" lon="-0.4342">
        <ele>67</ele>
        <time>2012-10-14T14:45:15Z</time>
      </trkpt>
      <trkpt lat="44.79282" lon="-0.43419">
        <ele>67</ele>
        <time>2012-10-14T14:45:22Z</time>
      </trkpt>
      <trkpt lat="44.79283" lon="-0.43418">
        <ele>66</ele>
        <time>2012-10-14T14:45:36Z</time>
      </trkpt>
      <trkpt lat="44.79283" lon="-0.43417">
        <ele>66</ele>
        <time>2012-10-14T14:46:00Z</time>
      </trkpt>
      <trkpt lat="44.79284" lon="-0.43417">
        <ele>66</ele>
        <time>2012-10-14T14:46:19Z</time>
      </trkpt>
      <trkpt lat="44.79291" lon="-0.43413">
        <ele>66</ele>
        <time>2012-10-14T14:46:24Z</time>
      </trkpt>
      <trkpt lat="44.79324" lon="-0.43402">
        <ele>67</ele>
        <time>2012-10-14T14:46:34Z</time>
      </trkpt>
      <trkpt lat="44.79343" lon="-0.43384">
        <ele>66</ele>
        <time>2012-10-14T14:46:44Z</time>
      </trkpt>
      <trkpt lat="44.79362" lon="-0.43363">
        <ele>66</ele>
        <time>2012-10-14T14:46:53Z</time>
      </trkpt>
      <trkpt lat="44.794" lon="-0.43335">
        <ele>65</ele>
        <time>2012-10-14T14:47:05Z</time>
      </trkpt>
      <trkpt lat="44.79407" lon="-0.43331">
        <ele>65</ele>
        <time>2012-10-14T14:47:07Z</time>
      </trkpt>
      <trkpt lat="44.79443" lon="-0.43309">
        <ele>64</ele>
        <time>2012-10-14T14:47:18Z</time>
      </trkpt>
      <trkpt lat="44.79475" lon="-0.4329">
        <ele>63</ele>
        <time>2012-10-14T14:47:29Z</time>
      </trkpt>
      <trkpt lat="44.79488" lon="-0.43281">
        <ele>62</ele>
        <time>2012-10-14T14:47:36Z</time>
      </trkpt>
      <trkpt lat="44.79512" lon="-0.43266">
        <ele>58</ele>
        <time>2012-10-14T14:47:41Z</time>
      </trkpt>
      <trkpt lat="44.7954" lon="-0.43248">
        <ele>53</ele>
        <time>2012-10-14T14:47:45Z</time>
      </trkpt>
      <trkpt lat="44.7956" lon="-0.43238">
        <ele>51</ele>
        <time>2012-10-14T14:47:48Z</time>
      </trkpt>
      <trkpt lat="44.7959" lon="-0.43214">
        <ele>50</ele>
        <time>2012-10-14T14:47:53Z</time>
      </trkpt>
      <trkpt lat="44.79616" lon="-0.43192">
        <ele>47</ele>
        <time>2012-10-14T14:47:58Z</time>
      </trkpt>
      <trkpt lat="44.79621" lon="-0.43189">
        <ele>46</ele>
        <time>2012-10-14T14:47:59Z</time>
      </trkpt>
      <trkpt lat="44.7966" lon="-0.4316">
        <ele>41</ele>
        <time>2012-10-14T14:48:09Z</time>
      </trkpt>
      <trkpt lat="44.79662" lon="-0.43157">
        <ele>40</ele>
        <time>2012-10-14T14:48:10Z</time>
      </trkpt>
      <trkpt lat="44.79663" lon="-0.43153">
        <ele>40</ele>
        <time>2012-10-14T14:48:11Z</time>
      </trkpt>
      <trkpt lat="44.79663" lon="-0.43148">
        <ele>40</ele>
        <time>2012-10-14T14:48:12Z</time>
      </trkpt>
      <trkpt lat="44.79662" lon="-0.43144">
        <ele>40</ele>
        <time>2012-10-14T14:48:13Z</time>
      </trkpt>
      <trkpt lat="44.79662" lon="-0.4314">
        <ele>40</ele>
        <time>2012-10-14T14:48:14Z</time>
      </trkpt>
      <trkpt lat="44.79662" lon="-0.43136">
        <ele>40</ele>
        <time>2012-10-14T14:48:15Z</time>
      </trkpt>
      <trkpt lat="44.79662" lon="-0.43133">
        <ele>40</ele>
        <time>2012-10-14T14:48:16Z</time>
      </trkpt>
      <trkpt lat="44.79661" lon="-0.43129">
        <ele>39</ele>
        <time>2012-10-14T14:48:17Z</time>
      </trkpt>
      <trkpt lat="44.79659" lon="-0.43077">
        <ele>38</ele>
        <time>2012-10-14T14:48:29Z</time>
      </trkpt>
      <trkpt lat="44.79655" lon="-0.4302">
        <ele>38</ele>
        <time>2012-10-14T14:48:40Z</time>
      </trkpt>
      <trkpt lat="44.79652" lon="-0.4299">
        <ele>38</ele>
        <time>2012-10-14T14:48:45Z</time>
      </trkpt>
      <trkpt lat="44.79648" lon="-0.42916">
        <ele>36</ele>
        <time>2012-10-14T14:48:56Z</time>
      </trkpt>
      <trkpt lat="44.79643" lon="-0.42878">
        <ele>35</ele>
        <time>2012-10-14T14:49:03Z</time>
      </trkpt>
      <trkpt lat="44.79642" lon="-0.42875">
        <ele>35</ele>
        <time>2012-10-14T14:49:04Z</time>
      </trkpt>
      <trkpt lat="44.79642" lon="-0.42872">
        <ele>35</ele>
        <time>2012-10-14T14:49:05Z</time>
      </trkpt>
      <trkpt lat="44.79642" lon="-0.4287">
        <ele>35</ele>
        <time>2012-10-14T14:49:06Z</time>
      </trkpt>
      <trkpt lat="44.79642" lon="-0.42868">
        <ele>35</ele>
        <time>2012-10-14T14:49:07Z</time>
      </trkpt>
      <trkpt lat="44.79642" lon="-0.42867">
        <ele>35</ele>
        <time>2012-10-14T14:49:08Z</time>
      </trkpt>
      <trkpt lat="44.79643" lon="-0.42866">
        <ele>35</ele>
        <time>2012-10-14T14:49:09Z</time>
      </trkpt>
      <trkpt lat="44.79646" lon="-0.42863">
        <ele>34</ele>
        <time>2012-10-14T14:49:18Z</time>
      </trkpt>
      <trkpt lat="44.79644" lon="-0.42864">
        <ele>34</ele>
        <time>2012-10-14T14:49:23Z</time>
      </trkpt>
      <trkpt lat="44.79643" lon="-0.42864">
        <ele>35</ele>
        <time>2012-10-14T14:49:24Z</time>
      </trkpt>
      <trkpt lat="44.79642" lon="-0.42863">
        <ele>35</ele>
        <time>2012-10-14T14:49:25Z</time>
      </trkpt>
      <trkpt lat="44.7964" lon="-0.42863">
        <ele>35</ele>
        <time>2012-10-14T14:49:26Z</time>
      </trkpt>
      <trkpt lat="44.79639" lon="-0.42862">
        <ele>35</ele>
        <time>2012-10-14T14:49:27Z</time>
      </trkpt>
      <trkpt lat="44.79637" lon="-0.42862">
        <ele>35</ele>
        <time>2012-10-14T14:49:28Z</time>
      </trkpt>
      <trkpt lat="44.79634" lon="-0.4286">
        <ele>35</ele>
        <time>2012-10-14T14:49:29Z</time>
      </trkpt>
      <trkpt lat="44.79632" lon="-0.42859">
        <ele>35</ele>
        <time>2012-10-14T14:49:30Z</time>
      </trkpt>
      <trkpt lat="44.79602" lon="-0.42845">
        <ele>36</ele>
        <time>2012-10-14T14:49:40Z</time>
      </trkpt>
      <trkpt lat="44.79599" lon="-0.42841">
        <ele>36</ele>
        <time>2012-10-14T14:49:45Z</time>
      </trkpt>
      <trkpt lat="44.79599" lon="-0.42837">
        <ele>36</ele>
        <time>2012-10-14T14:49:46Z</time>
      </trkpt>
      <trkpt lat="44.796" lon="-0.42833">
        <ele>35</ele>
        <time>2012-10-14T14:49:47Z</time>
      </trkpt>
      <trkpt lat="44.79601" lon="-0.42828">
        <ele>35</ele>
        <time>2012-10-14T14:49:48Z</time>
      </trkpt>
      <trkpt lat="44.79603" lon="-0.42823">
        <ele>35</ele>
        <time>2012-10-14T14:49:49Z</time>
      </trkpt>
      <trkpt lat="44.79605" lon="-0.42819">
        <ele>34</ele>
        <time>2012-10-14T14:49:50Z</time>
      </trkpt>
      <trkpt lat="44.79623" lon="-0.42774">
        <ele>32</ele>
        <time>2012-10-14T14:50:00Z</time>
      </trkpt>
      <trkpt lat="44.79641" lon="-0.42768">
        <ele>31</ele>
        <time>2012-10-14T14:50:07Z</time>
      </trkpt>
      <trkpt lat="44.79673" lon="-0.42772">
        <ele>31</ele>
        <time>2012-10-14T14:50:17Z</time>
      </trkpt>
      <trkpt lat="44.79705" lon="-0.42773">
        <ele>30</ele>
        <time>2012-10-14T14:50:26Z</time>
      </trkpt>
      <trkpt lat="44.79733" lon="-0.42774">
        <ele>30</ele>
        <time>2012-10-14T14:50:37Z</time>
      </trkpt>
      <trkpt lat="44.79755" lon="-0.42774">
        <ele>30</ele>
        <time>2012-10-14T14:50:45Z</time>
      </trkpt>
      <trkpt lat="44.79777" lon="-0.42778">
        <ele>30</ele>
        <time>2012-10-14T14:50:53Z</time>
      </trkpt>
      <trkpt lat="44.79802" lon="-0.42779">
        <ele>30</ele>
        <time>2012-10-14T14:51:01Z</time>
      </trkpt>
      <trkpt lat="44.79843" lon="-0.42779">
        <ele>31</ele>
        <time>2012-10-14T14:51:12Z</time>
      </trkpt>
      <trkpt lat="44.79867" lon="-0.42788">
        <ele>31</ele>
        <time>2012-10-14T14:51:18Z</time>
      </trkpt>
      <trkpt lat="44.79871" lon="-0.42791">
        <ele>31</ele>
        <time>2012-10-14T14:51:19Z</time>
      </trkpt>
      <trkpt lat="44.79897" lon="-0.42829">
        <ele>30</ele>
        <time>2012-10-14T14:51:28Z</time>
      </trkpt>
      <trkpt lat="44.79904" lon="-0.42845">
        <ele>30</ele>
        <time>2012-10-14T14:51:31Z</time>
      </trkpt>
      <trkpt lat="44.79911" lon="-0.42894">
        <ele>30</ele>
        <time>2012-10-14T14:51:40Z</time>
      </trkpt>
      <trkpt lat="44.79912" lon="-0.42952">
        <ele>30</ele>
        <time>2012-10-14T14:51:51Z</time>
      </trkpt>
      <trkpt lat="44.79913" lon="-0.42994">
        <ele>29</ele>
        <time>2012-10-14T14:51:58Z</time>
      </trkpt>
      <trkpt lat="44.79914" lon="-0.43">
        <ele>29</ele>
        <time>2012-10-14T14:51:59Z</time>
      </trkpt>
      <trkpt lat="44.79932" lon="-0.43077">
        <ele>29</ele>
        <time>2012-10-14T14:52:11Z</time>
      </trkpt>
      <trkpt lat="44.79949" lon="-0.43148">
        <ele>31</ele>
        <time>2012-10-14T14:52:23Z</time>
      </trkpt>
      <trkpt lat="44.79959" lon="-0.43187">
        <ele>32</ele>
        <time>2012-10-14T14:52:30Z</time>
      </trkpt>
      <trkpt lat="44.79977" lon="-0.43258">
        <ele>33</ele>
        <time>2012-10-14T14:52:43Z</time>
      </trkpt>
      <trkpt lat="44.79979" lon="-0.43263">
        <ele>33</ele>
        <time>2012-10-14T14:52:44Z</time>
      </trkpt>
      <trkpt lat="44.79981" lon="-0.43268">
        <ele>33</ele>
        <time>2012-10-14T14:52:45Z</time>
      </trkpt>
      <trkpt lat="44.79984" lon="-0.43273">
        <ele>33</ele>
        <time>2012-10-14T14:52:46Z</time>
      </trkpt>
      <trkpt lat="44.79987" lon="-0.43277">
        <ele>33</ele>
        <time>2012-10-14T14:52:47Z</time>
      </trkpt>
      <trkpt lat="44.7999" lon="-0.43282">
        <ele>33</ele>
        <time>2012-10-14T14:52:48Z</time>
      </trkpt>
      <trkpt lat="44.79997" lon="-0.4329">
        <ele>33</ele>
        <time>2012-10-14T14:52:50Z</time>
      </trkpt>
      <trkpt lat="44.80011" lon="-0.433">
        <ele>33</ele>
        <time>2012-10-14T14:52:53Z</time>
      </trkpt>
      <trkpt lat="44.80015" lon="-0.43302">
        <ele>33</ele>
        <time>2012-10-14T14:52:54Z</time>
      </trkpt>
      <trkpt lat="44.80072" lon="-0.43334">
        <ele>31</ele>
        <time>2012-10-14T14:53:05Z</time>
      </trkpt>
      <trkpt lat="44.80116" lon="-0.43371">
        <ele>30</ele>
        <time>2012-10-14T14:53:13Z</time>
      </trkpt>
      <trkpt lat="44.80132" lon="-0.43387">
        <ele>30</ele>
        <time>2012-10-14T14:53:16Z</time>
      </trkpt>
      <trkpt lat="44.80142" lon="-0.434">
        <ele>30</ele>
        <time>2012-10-14T14:53:18Z</time>
      </trkpt>
      <trkpt lat="44.80146" lon="-0.43409">
        <ele>30</ele>
        <time>2012-10-14T14:53:19Z</time>
      </trkpt>
      <trkpt lat="44.8015" lon="-0.43418">
        <ele>29</ele>
        <time>2012-10-14T14:53:20Z</time>
      </trkpt>
      <trkpt lat="44.80152" lon="-0.43428">
        <ele>28</ele>
        <time>2012-10-14T14:53:21Z</time>
      </trkpt>
      <trkpt lat="44.80154" lon="-0.43438">
        <ele>28</ele>
        <time>2012-10-14T14:53:22Z</time>
      </trkpt>
      <trkpt lat="44.80164" lon="-0.43475">
        <ele>26</ele>
        <time>2012-10-14T14:53:26Z</time>
      </trkpt>
      <trkpt lat="44.80168" lon="-0.43483">
        <ele>26</ele>
        <time>2012-10-14T14:53:27Z</time>
      </trkpt>
      <trkpt lat="44.80172" lon="-0.4349">
        <ele>25</ele>
        <time>2012-10-14T14:53:28Z</time>
      </trkpt>
      <trkpt lat="44.80182" lon="-0.43501">
        <ele>25</ele>
        <time>2012-10-14T14:53:30Z</time>
      </trkpt>
      <trkpt lat="44.80188" lon="-0.43505">
        <ele>25</ele>
        <time>2012-10-14T14:53:31Z</time>
      </trkpt>
      <trkpt lat="44.80194" lon="-0.43507">
        <ele>25</ele>
        <time>2012-10-14T14:53:32Z</time>
      </trkpt>
      <trkpt lat="44.80199" lon="-0.43509">
        <ele>26</ele>
        <time>2012-10-14T14:53:33Z</time>
      </trkpt>
      <trkpt lat="44.80205" lon="-0.43511">
        <ele>26</ele>
        <time>2012-10-14T14:53:34Z</time>
      </trkpt>
      <trkpt lat="44.8021" lon="-0.43511">
        <ele>26</ele>
        <time>2012-10-14T14:53:35Z</time>
      </trkpt>
      <trkpt lat="44.80214" lon="-0.43512">
        <ele>26</ele>
        <time>2012-10-14T14:53:36Z</time>
      </trkpt>
      <trkpt lat="44.80219" lon="-0.43512">
        <ele>26</ele>
        <time>2012-10-14T14:53:37Z</time>
      </trkpt>
      <trkpt lat="44.80223" lon="-0.43511">
        <ele>26</ele>
        <time>2012-10-14T14:53:38Z</time>
      </trkpt>
      <trkpt lat="44.80228" lon="-0.43511">
        <ele>26</ele>
        <time>2012-10-14T14:53:39Z</time>
      </trkpt>
      <trkpt lat="44.80264" lon="-0.43513">
        <ele>26</ele>
        <time>2012-10-14T14:53:47Z</time>
      </trkpt>
      <trkpt lat="44.80273" lon="-0.43514">
        <ele>26</ele>
        <time>2012-10-14T14:53:49Z</time>
      </trkpt>
      <trkpt lat="44.80278" lon="-0.43516">
        <ele>26</ele>
        <time>2012-10-14T14:53:50Z</time>
      </trkpt>
      <trkpt lat="44.80284" lon="-0.43518">
        <ele>26</ele>
        <time>2012-10-14T14:53:51Z</time>
      </trkpt>
      <trkpt lat="44.80289" lon="-0.4352">
        <ele>26</ele>
        <time>2012-10-14T14:53:52Z</time>
      </trkpt>
      <trkpt lat="44.80295" lon="-0.43524">
        <ele>26</ele>
        <time>2012-10-14T14:53:53Z</time>
      </trkpt>
      <trkpt lat="44.80299" lon="-0.43527">
        <ele>26</ele>
        <time>2012-10-14T14:53:54Z</time>
      </trkpt>
      <trkpt lat="44.80303" lon="-0.43532">
        <ele>26</ele>
        <time>2012-10-14T14:53:55Z</time>
      </trkpt>
      <trkpt lat="44.80312" lon="-0.43542">
        <ele>26</ele>
        <time>2012-10-14T14:53:57Z</time>
      </trkpt>
      <trkpt lat="44.80315" lon="-0.43547">
        <ele>26</ele>
        <time>2012-10-14T14:53:58Z</time>
      </trkpt>
      <trkpt lat="44.80318" lon="-0.43553">
        <ele>26</ele>
        <time>2012-10-14T14:53:59Z</time>
      </trkpt>
      <trkpt lat="44.80362" lon="-0.43632">
        <ele>27</ele>
        <time>2012-10-14T14:54:12Z</time>
      </trkpt>
      <trkpt lat="44.80374" lon="-0.43657">
        <ele>27</ele>
        <time>2012-10-14T14:54:16Z</time>
      </trkpt>
      <trkpt lat="44.80379" lon="-0.4367">
        <ele>27</ele>
        <time>2012-10-14T14:54:18Z</time>
      </trkpt>
      <trkpt lat="44.80383" lon="-0.43675">
        <ele>27</ele>
        <time>2012-10-14T14:54:19Z</time>
      </trkpt>
      <trkpt lat="44.80386" lon="-0.43681">
        <ele>27</ele>
        <time>2012-10-14T14:54:20Z</time>
      </trkpt>
      <trkpt lat="44.8039" lon="-0.43687">
        <ele>26</ele>
        <time>2012-10-14T14:54:21Z</time>
      </trkpt>
      <trkpt lat="44.80392" lon="-0.43693">
        <ele>27</ele>
        <time>2012-10-14T14:54:22Z</time>
      </trkpt>
      <trkpt lat="44.80399" lon="-0.43709">
        <ele>27</ele>
        <time>2012-10-14T14:54:25Z</time>
      </trkpt>
      <trkpt lat="44.80402" lon="-0.43715">
        <ele>27</ele>
        <time>2012-10-14T14:54:26Z</time>
      </trkpt>
      <trkpt lat="44.80406" lon="-0.43727">
        <ele>28</ele>
        <time>2012-10-14T14:54:28Z</time>
      </trkpt>
      <trkpt lat="44.80425" lon="-0.43796">
        <ele>26</ele>
        <time>2012-10-14T14:54:38Z</time>
      </trkpt>
      <trkpt lat="44.80427" lon="-0.43804">
        <ele>26</ele>
        <time>2012-10-14T14:54:39Z</time>
      </trkpt>
      <trkpt lat="44.80441" lon="-0.43875">
        <ele>25</ele>
        <time>2012-10-14T14:54:49Z</time>
      </trkpt>
      <trkpt lat="44.80453" lon="-0.43938">
        <ele>24</ele>
        <time>2012-10-14T14:54:58Z</time>
      </trkpt>
      <trkpt lat="44.80454" lon="-0.43945">
        <ele>23</ele>
        <time>2012-10-14T14:54:59Z</time>
      </trkpt>
      <trkpt lat="44.80464" lon="-0.44004">
        <ele>22</ele>
        <time>2012-10-14T14:55:07Z</time>
      </trkpt>
      <trkpt lat="44.80472" lon="-0.44037">
        <ele>21</ele>
        <time>2012-10-14T14:55:11Z</time>
      </trkpt>
      <trkpt lat="44.80498" lon="-0.4412">
        <ele>22</ele>
        <time>2012-10-14T14:55:23Z</time>
      </trkpt>
      <trkpt lat="44.80512" lon="-0.44159">
        <ele>26</ele>
        <time>2012-10-14T14:55:32Z</time>
      </trkpt>
      <trkpt lat="44.80531" lon="-0.44183">
        <ele>29</ele>
        <time>2012-10-14T14:55:41Z</time>
      </trkpt>
      <trkpt lat="44.80549" lon="-0.44187">
        <ele>31</ele>
        <time>2012-10-14T14:55:49Z</time>
      </trkpt>
      <trkpt lat="44.80571" lon="-0.44179">
        <ele>32</ele>
        <time>2012-10-14T14:55:58Z</time>
      </trkpt>
      <trkpt lat="44.80591" lon="-0.4416">
        <ele>32</ele>
        <time>2012-10-14T14:56:07Z</time>
      </trkpt>
      <trkpt lat="44.80617" lon="-0.44132">
        <ele>33</ele>
        <time>2012-10-14T14:56:20Z</time>
      </trkpt>
      <trkpt lat="44.8064" lon="-0.44111">
        <ele>34</ele>
        <time>2012-10-14T14:56:31Z</time>
      </trkpt>
      <trkpt lat="44.8066" lon="-0.44123">
        <ele>38</ele>
        <time>2012-10-14T14:56:40Z</time>
      </trkpt>
      <trkpt lat="44.80669" lon="-0.44153">
        <ele>41</ele>
        <time>2012-10-14T14:56:50Z</time>
      </trkpt>
      <trkpt lat="44.80663" lon="-0.44184">
        <ele>43</ele>
        <time>2012-10-14T14:57:01Z</time>
      </trkpt>
      <trkpt lat="44.80648" lon="-0.44206">
        <ele>43</ele>
        <time>2012-10-14T14:57:10Z</time>
      </trkpt>
      <trkpt lat="44.80639" lon="-0.44217">
        <ele>43</ele>
        <time>2012-10-14T14:57:15Z</time>
      </trkpt>
      <trkpt lat="44.80626" lon="-0.44239">
        <ele>44</ele>
        <time>2012-10-14T14:57:25Z</time>
      </trkpt>
      <trkpt lat="44.80628" lon="-0.44259">
        <ele>45</ele>
        <time>2012-10-14T14:57:32Z</time>
      </trkpt>
      <trkpt lat="44.80629" lon="-0.44262">
        <ele>46</ele>
        <time>2012-10-14T14:57:33Z</time>
      </trkpt>
      <trkpt lat="44.80629" lon="-0.44265">
        <ele>46</ele>
        <time>2012-10-14T14:57:34Z</time>
      </trkpt>
      <trkpt lat="44.80631" lon="-0.44267">
        <ele>46</ele>
        <time>2012-10-14T14:57:35Z</time>
      </trkpt>
      <trkpt lat="44.80632" lon="-0.44269">
        <ele>46</ele>
        <time>2012-10-14T14:57:36Z</time>
      </trkpt>
      <trkpt lat="44.80633" lon="-0.44271">
        <ele>47</ele>
        <time>2012-10-14T14:57:37Z</time>
      </trkpt>
      <trkpt lat="44.80634" lon="-0.44273">
        <ele>47</ele>
        <time>2012-10-14T14:57:38Z</time>
      </trkpt>
      <trkpt lat="44.80635" lon="-0.44275">
        <ele>47</ele>
        <time>2012-10-14T14:57:39Z</time>
      </trkpt>
      <trkpt lat="44.80637" lon="-0.44277">
        <ele>47</ele>
        <time>2012-10-14T14:57:40Z</time>
      </trkpt>
      <trkpt lat="44.80638" lon="-0.44278">
        <ele>47</ele>
        <time>2012-10-14T14:57:41Z</time>
      </trkpt>
      <trkpt lat="44.80654" lon="-0.44296">
        <ele>50</ele>
        <time>2012-10-14T14:57:51Z</time>
      </trkpt>
      <trkpt lat="44.80656" lon="-0.44297">
        <ele>50</ele>
        <time>2012-10-14T14:57:52Z</time>
      </trkpt>
      <trkpt lat="44.80658" lon="-0.44301">
        <ele>51</ele>
        <time>2012-10-14T14:57:54Z</time>
      </trkpt>
      <trkpt lat="44.80659" lon="-0.44303">
        <ele>51</ele>
        <time>2012-10-14T14:57:55Z</time>
      </trkpt>
      <trkpt lat="44.80661" lon="-0.44305">
        <ele>51</ele>
        <time>2012-10-14T14:57:56Z</time>
      </trkpt>
      <trkpt lat="44.80662" lon="-0.44308">
        <ele>51</ele>
        <time>2012-10-14T14:57:57Z</time>
      </trkpt>
      <trkpt lat="44.80664" lon="-0.44309">
        <ele>52</ele>
        <time>2012-10-14T14:57:58Z</time>
      </trkpt>
      <trkpt lat="44.80665" lon="-0.44311">
        <ele>52</ele>
        <time>2012-10-14T14:57:59Z</time>
      </trkpt>
      <trkpt lat="44.80667" lon="-0.44312">
        <ele>52</ele>
        <time>2012-10-14T14:58:00Z</time>
      </trkpt>
      <trkpt lat="44.80668" lon="-0.44314">
        <ele>52</ele>
        <time>2012-10-14T14:58:01Z</time>
      </trkpt>
      <trkpt lat="44.80669" lon="-0.44315">
        <ele>52</ele>
        <time>2012-10-14T14:58:02Z</time>
      </trkpt>
      <trkpt lat="44.8067" lon="-0.44317">
        <ele>52</ele>
        <time>2012-10-14T14:58:03Z</time>
      </trkpt>
      <trkpt lat="44.80685" lon="-0.44335">
        <ele>54</ele>
        <time>2012-10-14T14:58:13Z</time>
      </trkpt>
      <trkpt lat="44.807" lon="-0.44353">
        <ele>55</ele>
        <time>2012-10-14T14:58:22Z</time>
      </trkpt>
      <trkpt lat="44.80719" lon="-0.44372">
        <ele>55</ele>
        <time>2012-10-14T14:58:32Z</time>
      </trkpt>
      <trkpt lat="44.80737" lon="-0.44391">
        <ele>54</ele>
        <time>2012-10-14T14:58:42Z</time>
      </trkpt>
      <trkpt lat="44.8076" lon="-0.44403">
        <ele>55</ele>
        <time>2012-10-14T14:58:52Z</time>
      </trkpt>
      <trkpt lat="44.80785" lon="-0.44402">
        <ele>57</ele>
        <time>2012-10-14T14:59:03Z</time>
      </trkpt>
      <trkpt lat="44.80817" lon="-0.44396">
        <ele>60</ele>
        <time>2012-10-14T14:59:16Z</time>
      </trkpt>
      <trkpt lat="44.80842" lon="-0.44393">
        <ele>61</ele>
        <time>2012-10-14T14:59:27Z</time>
      </trkpt>
      <trkpt lat="44.80871" lon="-0.44389">
        <ele>63</ele>
        <time>2012-10-14T14:59:38Z</time>
      </trkpt>
      <trkpt lat="44.80911" lon="-0.4438">
        <ele>65</ele>
        <time>2012-10-14T14:59:52Z</time>
      </trkpt>
      <trkpt lat="44.80944" lon="-0.44374">
        <ele>67</ele>
        <time>2012-10-14T15:00:04Z</time>
      </trkpt>
      <trkpt lat="44.80983" lon="-0.44377">
        <ele>70</ele>
        <time>2012-10-14T15:00:18Z</time>
      </trkpt>
      <trkpt lat="44.81003" lon="-0.44388">
        <ele>70</ele>
        <time>2012-10-14T15:00:27Z</time>
      </trkpt>
      <trkpt lat="44.81029" lon="-0.44404">
        <ele>71</ele>
        <time>2012-10-14T15:00:39Z</time>
      </trkpt>
      <trkpt lat="44.81051" lon="-0.44416">
        <ele>72</ele>
        <time>2012-10-14T15:00:49Z</time>
      </trkpt>
      <trkpt lat="44.81078" lon="-0.44434">
        <ele>73</ele>
        <time>2012-10-14T15:01:00Z</time>
      </trkpt>
      <trkpt lat="44.81104" lon="-0.44462">
        <ele>74</ele>
        <time>2012-10-14T15:01:10Z</time>
      </trkpt>
      <trkpt lat="44.81126" lon="-0.44502">
        <ele>76</ele>
        <time>2012-10-14T15:01:22Z</time>
      </trkpt>
      <trkpt lat="44.8114" lon="-0.44528">
        <ele>77</ele>
        <time>2012-10-14T15:01:30Z</time>
      </trkpt>
      <trkpt lat="44.81157" lon="-0.4455">
        <ele>78</ele>
        <time>2012-10-14T15:01:39Z</time>
      </trkpt>
      <trkpt lat="44.81174" lon="-0.44565">
        <ele>80</ele>
        <time>2012-10-14T15:01:51Z</time>
      </trkpt>
      <trkpt lat="44.81178" lon="-0.44566">
        <ele>80</ele>
        <time>2012-10-14T15:01:54Z</time>
      </trkpt>
      <trkpt lat="44.8118" lon="-0.44565">
        <ele>80</ele>
        <time>2012-10-14T15:01:55Z</time>
      </trkpt>
      <trkpt lat="44.81181" lon="-0.44563">
        <ele>80</ele>
        <time>2012-10-14T15:01:56Z</time>
      </trkpt>
      <trkpt lat="44.81182" lon="-0.44562">
        <ele>80</ele>
        <time>2012-10-14T15:01:57Z</time>
      </trkpt>
      <trkpt lat="44.81183" lon="-0.44565">
        <ele>80</ele>
        <time>2012-10-14T15:02:04Z</time>
      </trkpt>
      <trkpt lat="44.81184" lon="-0.44565">
        <ele>80</ele>
        <time>2012-10-14T15:02:13Z</time>
      </trkpt>
      <trkpt lat="44.81185" lon="-0.44565">
        <ele>80</ele>
        <time>2012-10-14T15:02:29Z</time>
      </trkpt>
      <trkpt lat="44.81184" lon="-0.44565">
        <ele>80</ele>
        <time>2012-10-14T15:02:46Z</time>
      </trkpt>
      <trkpt lat="44.81184" lon="-0.44565">
        <ele>80</ele>
        <time>2012-10-14T15:03:03Z</time>
      </trkpt>
      <trkpt lat="44.81185" lon="-0.44564">
        <ele>80</ele>
        <time>2012-10-14T15:03:17Z</time>
      </trkpt>
      <trkpt lat="44.81185" lon="-0.44564">
        <ele>80</ele>
        <time>2012-10-14T15:03:34Z</time>
      </trkpt>
      <trkpt lat="44.81185" lon="-0.44564">
        <ele>80</ele>
        <time>2012-10-14T15:03:52Z</time>
      </trkpt>
      <trkpt lat="44.81185" lon="-0.44564">
        <ele>80</ele>
        <time>2012-10-14T15:04:04Z</time>
      </trkpt>
      <trkpt lat="44.81184" lon="-0.44563">
        <ele>80</ele>
        <time>2012-10-14T15:04:22Z</time>
      </trkpt>
      <trkpt lat="44.81184" lon="-0.44564">
        <ele>80</ele>
        <time>2012-10-14T15:04:32Z</time>
      </trkpt>
      <trkpt lat="44.81184" lon="-0.44565">
        <ele>80</ele>
        <time>2012-10-14T15:04:45Z</time>
      </trkpt>
      <trkpt lat="44.81184" lon="-0.44565">
        <ele>80</ele>
        <time>2012-10-14T15:04:57Z</time>
      </trkpt>
      <trkpt lat="44.81183" lon="-0.44565">
        <ele>80</ele>
        <time>2012-10-14T15:05:08Z</time>
      </trkpt>
      <trkpt lat="44.81183" lon="-0.44564">
        <ele>80</ele>
        <time>2012-10-14T15:05:23Z</time>
      </trkpt>
      <trkpt lat="44.81183" lon="-0.44564">
        <ele>80</ele>
        <time>2012-10-14T15:05:30Z</time>
      </trkpt>
      <trkpt lat="44.81187" lon="-0.44545">
        <ele>80</ele>
        <time>2012-10-14T15:05:40Z</time>
      </trkpt>
      <trkpt lat="44.81198" lon="-0.44509">
        <ele>80</ele>
        <time>2012-10-14T15:05:49Z</time>
      </trkpt>
      <trkpt lat="44.81201" lon="-0.44487">
        <ele>80</ele>
        <time>2012-10-14T15:05:54Z</time>
      </trkpt>
      <trkpt lat="44.81201" lon="-0.44449">
        <ele>79</ele>
        <time>2012-10-14T15:06:02Z</time>
      </trkpt>
      <trkpt lat="44.81211" lon="-0.44437">
        <ele>79</ele>
        <time>2012-10-14T15:06:07Z</time>
      </trkpt>
      <trkpt lat="44.81243" lon="-0.44429">
        <ele>78</ele>
        <time>2012-10-14T15:06:17Z</time>
      </trkpt>
      <trkpt lat="44.81265" lon="-0.44426">
        <ele>78</ele>
        <time>2012-10-14T15:06:23Z</time>
      </trkpt>
      <trkpt lat="44.81302" lon="-0.4442">
        <ele>78</ele>
        <time>2012-10-14T15:06:33Z</time>
      </trkpt>
      <trkpt lat="44.81315" lon="-0.44415">
        <ele>78</ele>
        <time>2012-10-14T15:06:38Z</time>
      </trkpt>
      <trkpt lat="44.81317" lon="-0.44413">
        <ele>78</ele>
        <time>2012-10-14T15:06:40Z</time>
      </trkpt>
      <trkpt lat="44.81313" lon="-0.44396">
        <ele>77</ele>
        <time>2012-10-14T15:06:48Z</time>
      </trkpt>
      <trkpt lat="44.81288" lon="-0.44351">
        <ele>75</ele>
        <time>2012-10-14T15:07:00Z</time>
      </trkpt>
      <trkpt lat="44.81284" lon="-0.44343">
        <ele>75</ele>
        <time>2012-10-14T15:07:02Z</time>
      </trkpt>
      <trkpt lat="44.81289" lon="-0.44324">
        <ele>74</ele>
        <time>2012-10-14T15:07:06Z</time>
      </trkpt>
      <trkpt lat="44.81293" lon="-0.44322">
        <ele>74</ele>
        <time>2012-10-14T15:07:07Z</time>
      </trkpt>
      <trkpt lat="44.81297" lon="-0.4432">
        <ele>74</ele>
        <time>2012-10-14T15:07:08Z</time>
      </trkpt>
      <trkpt lat="44.81301" lon="-0.44319">
        <ele>74</ele>
        <time>2012-10-14T15:07:09Z</time>
      </trkpt>
      <trkpt lat="44.81338" lon="-0.44307">
        <ele>74</ele>
        <time>2012-10-14T15:07:19Z</time>
      </trkpt>
      <trkpt lat="44.81347" lon="-0.44303">
        <ele>74</ele>
        <time>2012-10-14T15:07:30Z</time>
      </trkpt>
      <trkpt lat="44.81369" lon="-0.44293">
        <ele>72</ele>
        <time>2012-10-14T15:07:38Z</time>
      </trkpt>
      <trkpt lat="44.81381" lon="-0.44288">
        <ele>71</ele>
        <time>2012-10-14T15:07:41Z</time>
      </trkpt>
      <trkpt lat="44.81404" lon="-0.4428">
        <ele>68</ele>
        <time>2012-10-14T15:07:46Z</time>
      </trkpt>
      <trkpt lat="44.81415" lon="-0.44274">
        <ele>66</ele>
        <time>2012-10-14T15:07:49Z</time>
      </trkpt>
      <trkpt lat="44.81435" lon="-0.44247">
        <ele>64</ele>
        <time>2012-10-14T15:07:57Z</time>
      </trkpt>
      <trkpt lat="44.81457" lon="-0.44226">
        <ele>61</ele>
        <time>2012-10-14T15:08:05Z</time>
      </trkpt>
      <trkpt lat="44.81486" lon="-0.44211">
        <ele>58</ele>
        <time>2012-10-14T15:08:12Z</time>
      </trkpt>
      <trkpt lat="44.8149" lon="-0.44209">
        <ele>58</ele>
        <time>2012-10-14T15:08:13Z</time>
      </trkpt>
      <trkpt lat="44.81494" lon="-0.44206">
        <ele>57</ele>
        <time>2012-10-14T15:08:14Z</time>
      </trkpt>
      <trkpt lat="44.81505" lon="-0.44196">
        <ele>57</ele>
        <time>2012-10-14T15:08:18Z</time>
      </trkpt>
      <trkpt lat="44.81506" lon="-0.44194">
        <ele>57</ele>
        <time>2012-10-14T15:08:19Z</time>
      </trkpt>
      <trkpt lat="44.81508" lon="-0.44191">
        <ele>57</ele>
        <time>2012-10-14T15:08:20Z</time>
      </trkpt>
      <trkpt lat="44.81514" lon="-0.44167">
        <ele>58</ele>
        <time>2012-10-14T15:08:27Z</time>
      </trkpt>
      <trkpt lat="44.81508" lon="-0.44137">
        <ele>57</ele>
        <time>2012-10-14T15:08:33Z</time>
      </trkpt>
      <trkpt lat="44.81507" lon="-0.44097">
        <ele>58</ele>
        <time>2012-10-14T15:08:41Z</time>
      </trkpt>
      <trkpt lat="44.81509" lon="-0.44047">
        <ele>60</ele>
        <time>2012-10-14T15:08:50Z</time>
      </trkpt>
      <trkpt lat="44.81509" lon="-0.44042">
        <ele>60</ele>
        <time>2012-10-14T15:08:51Z</time>
      </trkpt>
      <trkpt lat="44.81507" lon="-0.43999">
        <ele>60</ele>
        <time>2012-10-14T15:08:59Z</time>
      </trkpt>
      <trkpt lat="44.81508" lon="-0.43988">
        <ele>61</ele>
        <time>2012-10-14T15:09:01Z</time>
      </trkpt>
      <trkpt lat="44.81516" lon="-0.43935">
        <ele>61</ele>
        <time>2012-10-14T15:09:10Z</time>
      </trkpt>
      <trkpt lat="44.81518" lon="-0.43922">
        <ele>60</ele>
        <time>2012-10-14T15:09:12Z</time>
      </trkpt>
      <trkpt lat="44.81521" lon="-0.43878">
        <ele>59</ele>
        <time>2012-10-14T15:09:19Z</time>
      </trkpt>
      <trkpt lat="44.81522" lon="-0.43871">
        <ele>58</ele>
        <time>2012-10-14T15:09:20Z</time>
      </trkpt>
      <trkpt lat="44.81527" lon="-0.43843">
        <ele>57</ele>
        <time>2012-10-14T15:09:27Z</time>
      </trkpt>
      <trkpt lat="44.81527" lon="-0.4384">
        <ele>57</ele>
        <time>2012-10-14T15:09:28Z</time>
      </trkpt>
      <trkpt lat="44.81527" lon="-0.43839">
        <ele>56</ele>
        <time>2012-10-14T15:09:29Z</time>
      </trkpt>
      <trkpt lat="44.81526" lon="-0.43836">
        <ele>56</ele>
        <time>2012-10-14T15:09:30Z</time>
      </trkpt>
      <trkpt lat="44.81525" lon="-0.43833">
        <ele>56</ele>
        <time>2012-10-14T15:09:31Z</time>
      </trkpt>
      <trkpt lat="44.81523" lon="-0.43829">
        <ele>56</ele>
        <time>2012-10-14T15:09:32Z</time>
      </trkpt>
      <trkpt lat="44.81521" lon="-0.43826">
        <ele>56</ele>
        <time>2012-10-14T15:09:33Z</time>
      </trkpt>
      <trkpt lat="44.8152" lon="-0.43823">
        <ele>55</ele>
        <time>2012-10-14T15:09:34Z</time>
      </trkpt>
      <trkpt lat="44.81508" lon="-0.43776">
        <ele>52</ele>
        <time>2012-10-14T15:09:46Z</time>
      </trkpt>
      <trkpt lat="44.81504" lon="-0.43716">
        <ele>51</ele>
        <time>2012-10-14T15:09:57Z</time>
      </trkpt>
      <trkpt lat="44.81503" lon="-0.43691">
        <ele>51</ele>
        <time>2012-10-14T15:10:01Z</time>
      </trkpt>
      <trkpt lat="44.81498" lon="-0.43635">
        <ele>51</ele>
        <time>2012-10-14T15:10:12Z</time>
      </trkpt>
      <trkpt lat="44.81492" lon="-0.43595">
        <ele>51</ele>
        <time>2012-10-14T15:10:22Z</time>
      </trkpt>
      <trkpt lat="44.81479" lon="-0.43557">
        <ele>51</ele>
        <time>2012-10-14T15:10:30Z</time>
      </trkpt>
      <trkpt lat="44.81475" lon="-0.43541">
        <ele>52</ele>
        <time>2012-10-14T15:10:33Z</time>
      </trkpt>
      <trkpt lat="44.81474" lon="-0.43534">
        <ele>52</ele>
        <time>2012-10-14T15:10:34Z</time>
      </trkpt>
      <trkpt lat="44.81468" lon="-0.43473">
        <ele>50</ele>
        <time>2012-10-14T15:10:41Z</time>
      </trkpt>
      <trkpt lat="44.8146" lon="-0.4342">
        <ele>46</ele>
        <time>2012-10-14T15:10:48Z</time>
      </trkpt>
      <trkpt lat="44.81461" lon="-0.43418">
        <ele>46</ele>
        <time>2012-10-14T15:10:49Z</time>
      </trkpt>
      <trkpt lat="44.81462" lon="-0.43418">
        <ele>46</ele>
        <time>2012-10-14T15:10:51Z</time>
      </trkpt>
      <trkpt lat="44.81463" lon="-0.43419">
        <ele>46</ele>
        <time>2012-10-14T15:10:52Z</time>
      </trkpt>
      <trkpt lat="44.81463" lon="-0.43421">
        <ele>46</ele>
        <time>2012-10-14T15:10:53Z</time>
      </trkpt>
      <trkpt lat="44.81464" lon="-0.43423">
        <ele>46</ele>
        <time>2012-10-14T15:10:54Z</time>
      </trkpt>
      <trkpt lat="44.81464" lon="-0.43424">
        <ele>46</ele>
        <time>2012-10-14T15:10:55Z</time>
      </trkpt>
      <trkpt lat="44.81465" lon="-0.43425">
        <ele>46</ele>
        <time>2012-10-14T15:10:56Z</time>
      </trkpt>
      <trkpt lat="44.81466" lon="-0.43426">
        <ele>47</ele>
        <time>2012-10-14T15:10:57Z</time>
      </trkpt>
      <trkpt lat="44.8147" lon="-0.43439">
        <ele>48</ele>
        <time>2012-10-14T15:11:04Z</time>
      </trkpt>
      <trkpt lat="44.81471" lon="-0.4344">
        <ele>48</ele>
        <time>2012-10-14T15:11:05Z</time>
      </trkpt>
      <trkpt lat="44.81472" lon="-0.4344">
        <ele>47</ele>
        <time>2012-10-14T15:11:06Z</time>
      </trkpt>
      <trkpt lat="44.81474" lon="-0.43439">
        <ele>47</ele>
        <time>2012-10-14T15:11:07Z</time>
      </trkpt>
      <trkpt lat="44.81475" lon="-0.43438">
        <ele>47</ele>
        <time>2012-10-14T15:11:08Z</time>
      </trkpt>
      <trkpt lat="44.81486" lon="-0.43429">
        <ele>46</ele>
        <time>2012-10-14T15:11:15Z</time>
      </trkpt>
      <trkpt lat="44.81487" lon="-0.43428">
        <ele>46</ele>
        <time>2012-10-14T15:11:16Z</time>
      </trkpt>
      <trkpt lat="44.81489" lon="-0.43426">
        <ele>45</ele>
        <time>2012-10-14T15:11:17Z</time>
      </trkpt>
      <trkpt lat="44.81491" lon="-0.43424">
        <ele>45</ele>
        <time>2012-10-14T15:11:18Z</time>
      </trkpt>
      <trkpt lat="44.81494" lon="-0.43422">
        <ele>45</ele>
        <time>2012-10-14T15:11:19Z</time>
      </trkpt>
      <trkpt lat="44.815" lon="-0.43417">
        <ele>44</ele>
        <time>2012-10-14T15:11:21Z</time>
      </trkpt>
      <trkpt lat="44.81526" lon="-0.434">
        <ele>43</ele>
        <time>2012-10-14T15:11:29Z</time>
      </trkpt>
      <trkpt lat="44.81558" lon="-0.43377">
        <ele>43</ele>
        <time>2012-10-14T15:11:38Z</time>
      </trkpt>
      <trkpt lat="44.81582" lon="-0.43354">
        <ele>44</ele>
        <time>2012-10-14T15:11:47Z</time>
      </trkpt>
      <trkpt lat="44.81599" lon="-0.43334">
        <ele>46</ele>
        <time>2012-10-14T15:11:55Z</time>
      </trkpt>
      <trkpt lat="44.81613" lon="-0.4332">
        <ele>47</ele>
        <time>2012-10-14T15:12:04Z</time>
      </trkpt>
      <trkpt lat="44.81616" lon="-0.43319">
        <ele>47</ele>
        <time>2012-10-14T15:12:06Z</time>
      </trkpt>
      <trkpt lat="44.8163" lon="-0.43308">
        <ele>49</ele>
        <time>2012-10-14T15:12:15Z</time>
      </trkpt>
      <trkpt lat="44.81631" lon="-0.43307">
        <ele>49</ele>
        <time>2012-10-14T15:12:16Z</time>
      </trkpt>
      <trkpt lat="44.81633" lon="-0.43306">
        <ele>49</ele>
        <time>2012-10-14T15:12:17Z</time>
      </trkpt>
      <trkpt lat="44.81634" lon="-0.43305">
        <ele>49</ele>
        <time>2012-10-14T15:12:18Z</time>
      </trkpt>
      <trkpt lat="44.81636" lon="-0.43304">
        <ele>49</ele>
        <time>2012-10-14T15:12:19Z</time>
      </trkpt>
      <trkpt lat="44.81652" lon="-0.43292">
        <ele>51</ele>
        <time>2012-10-14T15:12:29Z</time>
      </trkpt>
      <trkpt lat="44.81665" lon="-0.4329">
        <ele>52</ele>
        <time>2012-10-14T15:12:36Z</time>
      </trkpt>
      <trkpt lat="44.81689" lon="-0.4329">
        <ele>55</ele>
        <time>2012-10-14T15:12:46Z</time>
      </trkpt>
      <trkpt lat="44.81712" lon="-0.43286">
        <ele>56</ele>
        <time>2012-10-14T15:12:56Z</time>
      </trkpt>
      <trkpt lat="44.81715" lon="-0.43285">
        <ele>56</ele>
        <time>2012-10-14T15:12:58Z</time>
      </trkpt>
      <trkpt lat="44.81716" lon="-0.43285">
        <ele>57</ele>
        <time>2012-10-14T15:12:59Z</time>
      </trkpt>
      <trkpt lat="44.81718" lon="-0.43285">
        <ele>57</ele>
        <time>2012-10-14T15:13:00Z</time>
      </trkpt>
      <trkpt lat="44.8172" lon="-0.43284">
        <ele>57</ele>
        <time>2012-10-14T15:13:01Z</time>
      </trkpt>
      <trkpt lat="44.81722" lon="-0.43284">
        <ele>57</ele>
        <time>2012-10-14T15:13:02Z</time>
      </trkpt>
      <trkpt lat="44.81724" lon="-0.43283">
        <ele>57</ele>
        <time>2012-10-14T15:13:03Z</time>
      </trkpt>
      <trkpt lat="44.81726" lon="-0.43283">
        <ele>57</ele>
        <time>2012-10-14T15:13:04Z</time>
      </trkpt>
      <trkpt lat="44.81729" lon="-0.43282">
        <ele>57</ele>
        <time>2012-10-14T15:13:05Z</time>
      </trkpt>
      <trkpt lat="44.81741" lon="-0.43275">
        <ele>58</ele>
        <time>2012-10-14T15:13:11Z</time>
      </trkpt>
      <trkpt lat="44.81743" lon="-0.43274">
        <ele>58</ele>
        <time>2012-10-14T15:13:12Z</time>
      </trkpt>
      <trkpt lat="44.81746" lon="-0.43273">
        <ele>58</ele>
        <time>2012-10-14T15:13:13Z</time>
      </trkpt>
      <trkpt lat="44.8175" lon="-0.43272">
        <ele>58</ele>
        <time>2012-10-14T15:13:14Z</time>
      </trkpt>
      <trkpt lat="44.81753" lon="-0.4327">
        <ele>58</ele>
        <time>2012-10-14T15:13:15Z</time>
      </trkpt>
      <trkpt lat="44.81756" lon="-0.43269">
        <ele>58</ele>
        <time>2012-10-14T15:13:16Z</time>
      </trkpt>
      <trkpt lat="44.81782" lon="-0.43249">
        <ele>58</ele>
        <time>2012-10-14T15:13:25Z</time>
      </trkpt>
      <trkpt lat="44.81805" lon="-0.43229">
        <ele>58</ele>
        <time>2012-10-14T15:13:34Z</time>
      </trkpt>
      <trkpt lat="44.81823" lon="-0.43216">
        <ele>59</ele>
        <time>2012-10-14T15:13:42Z</time>
      </trkpt>
      <trkpt lat="44.81844" lon="-0.43211">
        <ele>60</ele>
        <time>2012-10-14T15:13:50Z</time>
      </trkpt>
      <trkpt lat="44.81872" lon="-0.43205">
        <ele>61</ele>
        <time>2012-10-14T15:13:59Z</time>
      </trkpt>
      <trkpt lat="44.81902" lon="-0.43204">
        <ele>63</ele>
        <time>2012-10-14T15:14:09Z</time>
      </trkpt>
      <trkpt lat="44.81929" lon="-0.43216">
        <ele>66</ele>
        <time>2012-10-14T15:14:18Z</time>
      </trkpt>
      <trkpt lat="44.8194" lon="-0.43228">
        <ele>67</ele>
        <time>2012-10-14T15:14:24Z</time>
      </trkpt>
      <trkpt lat="44.81951" lon="-0.43245">
        <ele>68</ele>
        <time>2012-10-14T15:14:34Z</time>
      </trkpt>
      <trkpt lat="44.81958" lon="-0.43257">
        <ele>69</ele>
        <time>2012-10-14T15:14:43Z</time>
      </trkpt>
      <trkpt lat="44.81958" lon="-0.43259">
        <ele>69</ele>
        <time>2012-10-14T15:14:44Z</time>
      </trkpt>
      <trkpt lat="44.81959" lon="-0.4326">
        <ele>69</ele>
        <time>2012-10-14T15:14:45Z</time>
      </trkpt>
      <trkpt lat="44.8196" lon="-0.43261">
        <ele>69</ele>
        <time>2012-10-14T15:14:46Z</time>
      </trkpt>
      <trkpt lat="44.81961" lon="-0.43263">
        <ele>69</ele>
        <time>2012-10-14T15:14:47Z</time>
      </trkpt>
      <trkpt lat="44.81962" lon="-0.43264">
        <ele>69</ele>
        <time>2012-10-14T15:14:48Z</time>
      </trkpt>
      <trkpt lat="44.81964" lon="-0.43269">
        <ele>70</ele>
        <time>2012-10-14T15:14:52Z</time>
      </trkpt>
      <trkpt lat="44.81965" lon="-0.4327">
        <ele>70</ele>
        <time>2012-10-14T15:14:53Z</time>
      </trkpt>
      <trkpt lat="44.81966" lon="-0.43272">
        <ele>70</ele>
        <time>2012-10-14T15:14:54Z</time>
      </trkpt>
      <trkpt lat="44.81966" lon="-0.43273">
        <ele>70</ele>
        <time>2012-10-14T15:14:55Z</time>
      </trkpt>
      <trkpt lat="44.81967" lon="-0.43274">
        <ele>70</ele>
        <time>2012-10-14T15:14:56Z</time>
      </trkpt>
      <trkpt lat="44.81968" lon="-0.43276">
        <ele>70</ele>
        <time>2012-10-14T15:14:57Z</time>
      </trkpt>
      <trkpt lat="44.81969" lon="-0.43277">
        <ele>70</ele>
        <time>2012-10-14T15:14:58Z</time>
      </trkpt>
      <trkpt lat="44.81978" lon="-0.43287">
        <ele>71</ele>
        <time>2012-10-14T15:15:07Z</time>
      </trkpt>
      <trkpt lat="44.8198" lon="-0.43288">
        <ele>71</ele>
        <time>2012-10-14T15:15:08Z</time>
      </trkpt>
      <trkpt lat="44.81981" lon="-0.43289">
        <ele>71</ele>
        <time>2012-10-14T15:15:09Z</time>
      </trkpt>
      <trkpt lat="44.82" lon="-0.43301">
        <ele>73</ele>
        <time>2012-10-14T15:15:19Z</time>
      </trkpt>
      <trkpt lat="44.82023" lon="-0.43308">
        <ele>74</ele>
        <time>2012-10-14T15:15:30Z</time>
      </trkpt>
      <trkpt lat="44.82024" lon="-0.43309">
        <ele>74</ele>
        <time>2012-10-14T15:15:31Z</time>
      </trkpt>
      <trkpt lat="44.82026" lon="-0.4331">
        <ele>74</ele>
        <time>2012-10-14T15:15:32Z</time>
      </trkpt>
      <trkpt lat="44.82028" lon="-0.43311">
        <ele>74</ele>
        <time>2012-10-14T15:15:33Z</time>
      </trkpt>
      <trkpt lat="44.82031" lon="-0.43316">
        <ele>74</ele>
        <time>2012-10-14T15:15:43Z</time>
      </trkpt>
      <trkpt lat="44.8203" lon="-0.43315">
        <ele>74</ele>
        <time>2012-10-14T15:15:59Z</time>
      </trkpt>
      <trkpt lat="44.82031" lon="-0.43314">
        <ele>74</ele>
        <time>2012-10-14T15:16:15Z</time>
      </trkpt>
      <trkpt lat="44.82042" lon="-0.43289">
        <ele>72</ele>
        <time>2012-10-14T15:16:45Z</time>
      </trkpt>
      <trkpt lat="44.8204" lon="-0.43292">
        <ele>72</ele>
        <time>2012-10-14T15:16:46Z</time>
      </trkpt>
      <trkpt lat="44.82033" lon="-0.43316">
        <ele>74</ele>
        <time>2012-10-14T15:17:09Z</time>
      </trkpt>
      <trkpt lat="44.82033" lon="-0.43317">
        <ele>74</ele>
        <time>2012-10-14T15:17:10Z</time>
      </trkpt>
      <trkpt lat="44.82026" lon="-0.43326">
        <ele>75</ele>
        <time>2012-10-14T15:17:19Z</time>
      </trkpt>
      <trkpt lat="44.82017" lon="-0.43345">
        <ele>76</ele>
        <time>2012-10-14T15:17:29Z</time>
      </trkpt>
      <trkpt lat="44.82011" lon="-0.43356">
        <ele>76</ele>
        <time>2012-10-14T15:17:33Z</time>
      </trkpt>
      <trkpt lat="44.82001" lon="-0.43383">
        <ele>77</ele>
        <time>2012-10-14T15:17:41Z</time>
      </trkpt>
      <trkpt lat="44.8199" lon="-0.43416">
        <ele>78</ele>
        <time>2012-10-14T15:17:51Z</time>
      </trkpt>
      <trkpt lat="44.81995" lon="-0.43462">
        <ele>79</ele>
        <time>2012-10-14T15:18:01Z</time>
      </trkpt>
      <trkpt lat="44.82004" lon="-0.43503">
        <ele>80</ele>
        <time>2012-10-14T15:18:12Z</time>
      </trkpt>
      <trkpt lat="44.82027" lon="-0.43556">
        <ele>80</ele>
        <time>2012-10-14T15:18:26Z</time>
      </trkpt>
      <trkpt lat="44.82046" lon="-0.43599">
        <ele>81</ele>
        <time>2012-10-14T15:18:38Z</time>
      </trkpt>
      <trkpt lat="44.82053" lon="-0.43638">
        <ele>82</ele>
        <time>2012-10-14T15:18:48Z</time>
      </trkpt>
      <trkpt lat="44.82043" lon="-0.43673">
        <ele>81</ele>
        <time>2012-10-14T15:18:57Z</time>
      </trkpt>
      <trkpt lat="44.82037" lon="-0.43685">
        <ele>81</ele>
        <time>2012-10-14T15:19:02Z</time>
      </trkpt>
      <trkpt lat="44.82031" lon="-0.43699">
        <ele>81</ele>
        <time>2012-10-14T15:19:08Z</time>
      </trkpt>
      <trkpt lat="44.82029" lon="-0.43708">
        <ele>81</ele>
        <time>2012-10-14T15:19:12Z</time>
      </trkpt>
      <trkpt lat="44.82025" lon="-0.43705">
        <ele>81</ele>
        <time>2012-10-14T15:19:18Z</time>
      </trkpt>
      <trkpt lat="44.82028" lon="-0.43695">
        <ele>81</ele>
        <time>2012-10-14T15:19:28Z</time>
      </trkpt>
      <trkpt lat="44.82033" lon="-0.43687">
        <ele>81</ele>
        <time>2012-10-14T15:19:39Z</time>
      </trkpt>
      <trkpt lat="44.82037" lon="-0.43674">
        <ele>81</ele>
        <time>2012-10-14T15:19:47Z</time>
      </trkpt>
      <trkpt lat="44.82041" lon="-0.43665">
        <ele>81</ele>
        <time>2012-10-14T15:19:52Z</time>
      </trkpt>
      <trkpt lat="44.82043" lon="-0.43666">
        <ele>81</ele>
        <time>2012-10-14T15:19:55Z</time>
      </trkpt>
      <trkpt lat="44.82037" lon="-0.43679">
        <ele>81</ele>
        <time>2012-10-14T15:20:01Z</time>
      </trkpt>
      <trkpt lat="44.82025" lon="-0.43717">
        <ele>81</ele>
        <time>2012-10-14T15:20:12Z</time>
      </trkpt>
      <trkpt lat="44.82031" lon="-0.43767">
        <ele>82</ele>
        <time>2012-10-14T15:20:23Z</time>
      </trkpt>
      <trkpt lat="44.82047" lon="-0.43813">
        <ele>83</ele>
        <time>2012-10-14T15:20:35Z</time>
      </trkpt>
      <trkpt lat="44.82049" lon="-0.43817">
        <ele>83</ele>
        <time>2012-10-14T15:20:36Z</time>
      </trkpt>
      <trkpt lat="44.82054" lon="-0.43858">
        <ele>83</ele>
        <time>2012-10-14T15:20:45Z</time>
      </trkpt>
      <trkpt lat="44.82061" lon="-0.43906">
        <ele>82</ele>
        <time>2012-10-14T15:20:56Z</time>
      </trkpt>
      <trkpt lat="44.82061" lon="-0.43909">
        <ele>82</ele>
        <time>2012-10-14T15:20:57Z</time>
      </trkpt>
      <trkpt lat="44.82054" lon="-0.43919">
        <ele>82</ele>
        <time>2012-10-14T15:21:01Z</time>
      </trkpt>
      <trkpt lat="44.82044" lon="-0.43926">
        <ele>82</ele>
        <time>2012-10-14T15:21:05Z</time>
      </trkpt>
      <trkpt lat="44.82042" lon="-0.43933">
        <ele>82</ele>
        <time>2012-10-14T15:21:13Z</time>
      </trkpt>
      <trkpt lat="44.82038" lon="-0.43935">
        <ele>82</ele>
        <time>2012-10-14T15:21:21Z</time>
      </trkpt>
      <trkpt lat="44.82033" lon="-0.43933">
        <ele>82</ele>
        <time>2012-10-14T15:21:33Z</time>
      </trkpt>
      <trkpt lat="44.82032" lon="-0.4393">
        <ele>81</ele>
        <time>2012-10-14T15:21:46Z</time>
      </trkpt>
      <trkpt lat="44.82032" lon="-0.43932">
        <ele>81</ele>
        <time>2012-10-14T15:22:08Z</time>
      </trkpt>
      <trkpt lat="44.82033" lon="-0.43932">
        <ele>82</ele>
        <time>2012-10-14T15:22:17Z</time>
      </trkpt>
      <trkpt lat="44.82033" lon="-0.43933">
        <ele>82</ele>
        <time>2012-10-14T15:22:27Z</time>
      </trkpt>
      <trkpt lat="44.82034" lon="-0.43933">
        <ele>82</ele>
        <time>2012-10-14T15:22:53Z</time>
      </trkpt>
      <trkpt lat="44.82035" lon="-0.43932">
        <ele>82</ele>
        <time>2012-10-14T15:23:24Z</time>
      </trkpt>
      <trkpt lat="44.82035" lon="-0.4393">
        <ele>82</ele>
        <time>2012-10-14T15:23:53Z</time>
      </trkpt>
      <trkpt lat="44.82035" lon="-0.43933">
        <ele>82</ele>
        <time>2012-10-14T15:24:26Z</time>
      </trkpt>
      <trkpt lat="44.82034" lon="-0.43932">
        <ele>82</ele>
        <time>2012-10-14T15:24:57Z</time>
      </trkpt>
      <trkpt lat="44.82034" lon="-0.43932">
        <ele>82</ele>
        <time>2012-10-14T15:25:25Z</time>
      </trkpt>
      <trkpt lat="44.82034" lon="-0.43932">
        <ele>82</ele>
        <time>2012-10-14T15:25:43Z</time>
      </trkpt>
      <trkpt lat="44.82035" lon="-0.43931">
        <ele>82</ele>
        <time>2012-10-14T15:26:01Z</time>
      </trkpt>
      <trkpt lat="44.82036" lon="-0.4393">
        <ele>82</ele>
        <time>2012-10-14T15:26:18Z</time>
      </trkpt>
      <trkpt lat="44.82036" lon="-0.43931">
        <ele>82</ele>
        <time>2012-10-14T15:26:27Z</time>
      </trkpt>
    </trkseg>
  </trk>
</gpx>